GFSNW_925_spd_000.txt.gz
Wind_Speed
12 14 15 18 24 30 5 4 1 17 17 3 4 4 3 5 3 1 3 8 10 7 9 5 3 4 5 4 1 2 1 2 4 2 2 2 2 3 7 2 1 3 3 6
13 13 15 16 19 22 9 3 2 12 4 5 6 7 6 7 6 7 3 4 3 2 3 4 5 6 5 5 5 2 3 1 4 2 2 3 2 2 3 5 2 3 3 4
12 12 13 13 15 18 7 3 2 3 4 7 8 8 6 4 3 4 6 2 5 5 7 6 6 5 2 2 3 2 2 2 3 2 5 2 3 2 3 3 2 3 8 9
10 11 11 11 12 13 6 3 2 1 3 5 7 6 4 6 3 3 3 4 7 3 4 6 4 5 4 4 0 2 3 2 5 5 3 2 5 8 8 10 12 6 15 12
9 9 9 10 10 9 2 2 1 2 3 1 3 2 4 6 4 7 4 6 5 8 8 6 4 5 2 3 0 2 3 1 3 2 7 4 6 11 11 14 17 15 16 20
8 8 8 8 9 7 4 2 1 2 2 1 2 3 4 6 2 5 7 5 5 10 8 8 7 6 5 4 3 4 2 1 3 3 4 4 9 12 14 10 11 8 12 16
5 7 6 6 6 7 5 4 4 2 2 1 3 4 4 8 6 4 4 8 5 2 3 4 1 4 4 5 3 3 2 3 1 3 4 3 7 5 6 5 7 10 11 9
6 4 6 4 4 5 5 4 4 3 3 5 5 5 6 7 4 5 6 6 5 7 3 1 3 2 2 2 6 5 3 2 3 3 4 8 10 5 2 1 5 6 7 9
6 4 3 5 2 2 5 5 6 2 2 1 4 4 2 3 3 3 2 2 4 2 1 1 2 3 3 4 4 2 1 3 2 3 3 5 2 5 7 4 5 4 6 6
5 5 4 3 4 1 3 3 5 3 2 1 1 2 2 3 3 3 2 1 2 2 1 2 1 1 1 2 3 4 3 3 6 6 4 6 9 9 4 1 3 2 3 5
5 5 5 4 3 4 1 1 1 3 2 2 1 2 3 3 1 3 3 3 1 1 2 2 2 2 2 0 2 3 6 6 4 3 3 6 3 5 2 4 4 2 4 3
3 4 4 3 4 5 6 2 3 3 2 2 2 5 6 4 3 3 2 1 3 2 3 1 2 1 2 1 2 1 4 5 2 6 5 4 1 3 6 10 7 6 7 4
3 3 4 5 4 5 8 1 4 3 2 1 1 2 3 10 10 2 2 2 2 2 3 2 2 2 3 3 5 7 5 7 6 7 2 5 10 12 9 7 5 6 6 6
5 5 4 5 6 6 12 3 5 4 2 1 3 1 0 3 7 13 3 4 5 4 3 2 2 2 4 2 4 7 4 8 4 7 12 12 9 4 5 2 4 3 3 3
6 7 6 6 6 7 10 9 6 5 2 1 2 8 3 2 2 7 7 7 5 2 2 2 3 1 1 1 3 9 6 8 4 7 9 11 11 8 3 5 5 5 5 3
8 8 7 6 6 8 6 1 7 11 4 1 1 3 3 5 4 4 5 4 2 3 3 2 2 1 3 2 3 7 7 6 7 8 6 7 8 6 3 2 3 6 6 5
9 10 9 7 8 8 2 2 1 6 11 1 1 2 2 2 4 2 2 4 2 3 2 3 3 2 4 2 7 6 8 9 10 10 8 8 5 1 5 6 6 10 10 8
11 11 10 9 10 9 4 4 5 8 4 1 1 1 3 2 2 2 1 2 2 2 2 2 3 3 3 5 9 4 6 7 5 5 5 2 4 5 4 5 4 5 5 6
11 11 13 7 3 2 3 5 5 3 2 1 2 2 2 2 1 2 1 1 3 2 3 2 3 3 6 8 5 8 6 3 4 3 4 4 3 3 3 4 4 6 6 6
15 11 3 2 2 10 7 4 2 2 1 1 2 1 2 1 3 1 3 1 1 1 2 2 3 4 10 10 9 6 3 2 3 1 4 5 5 7 7 8 5 5 5 4
5 2 2 4 7 1 2 2 1 1 1 2 2 1 3 2 2 2 1 2 3 2 2 3 3 4 5 5 3 4 3 3 4 3 2 4 4 6 7 6 5 4 4 4
8 11 7 4 1 2 2 3 2 3 3 2 3 2 2 1 2 2 0 1 1 3 2 2 4 4 4 2 3 4 5 6 6 6 5 4 2 6 6 5 6 6 6 5
12 4 2 3 0 3 5 7 3 3 4 3 2 2 2 2 2 2 1 1 2 2 1 4 5 2 1 2 1 2 3 5 3 1 2 5 6 9 8 7 7 7 6 6
2 5 5 5 4 5 4 2 3 2 3 5 4 3 2 2 2 2 2 1 1 3 3 7 3 6 5 4 3 3 4 5 6 6 7 6 7 6 7 7 7 7 6 6
3 4 5 6 2 3 3 2 3 1 3 4 4 3 2 2 2 2 2 4 4 4 5 3 2 2 4 3 4 6 6 7 6 8 7 9 11 9 9 9 8 6 6 8
3 3 1 2 3 2 1 1 3 1 4 2 2 3 3 4 3 5 7 3 6 4 3 3 3 4 5 5 5 7 7 7 8 11 12 12 10 9 8 7 7 7 9 11
3 3 2 2 2 4 4 4 3 6 3 3 3 6 9 2 3 4 4 5 3 3 3 2 4 4 5 5 5 5 7 7 9 9 11 9 8 7 5 4 8 7 8 11

GFSNW_925_spd_003.txt.gz
Wind_Speed
18 16 17 20 24 30 6 1 3 14 25 4 2 3 3 3 4 3 5 9 5 6 5 4 4 4 3 5 1 2 1 5 4 2 2 2 2 4 5 4 1 1 4 5
17 16 16 17 19 21 9 3 2 10 5 3 2 3 4 5 5 5 4 4 2 5 3 5 4 4 4 6 3 3 0 3 4 4 3 2 3 2 3 3 2 3 3 5
16 16 15 16 15 17 9 1 3 5 5 3 6 5 4 4 5 5 4 4 5 5 7 6 4 3 3 5 3 2 1 3 3 5 4 4 4 3 3 5 3 4 7 5
14 15 15 15 15 17 4 2 1 3 1 4 6 5 3 3 3 2 5 5 4 3 4 3 4 3 2 4 3 3 3 3 3 2 2 1 4 6 6 7 5 6 2 8
12 13 14 14 15 15 2 2 3 3 1 1 7 5 4 4 3 4 4 6 11 12 5 1 4 6 3 3 1 2 4 2 3 2 3 4 6 8 9 10 8 8 9 17
11 10 12 12 14 9 4 3 2 4 3 2 4 1 3 3 6 5 6 3 6 10 3 3 2 4 3 5 5 2 3 3 3 0 4 5 8 8 10 4 3 5 7 9
8 9 9 9 10 12 3 4 1 3 1 3 3 4 5 5 2 6 4 7 5 2 5 1 4 8 9 9 7 4 3 4 3 2 3 2 4 4 5 7 5 5 5 7
7 6 7 6 7 7 7 6 3 2 2 4 5 6 6 6 7 5 4 5 1 4 2 4 4 5 4 5 6 5 3 4 3 4 3 7 6 5 4 3 4 2 1 4
5 5 5 5 4 5 4 9 7 3 5 1 4 5 4 4 3 3 2 2 3 2 2 3 3 3 3 2 2 5 3 5 4 3 3 4 4 1 2 3 4 3 1 1
5 5 3 4 2 2 4 5 9 2 3 3 3 3 5 5 4 3 1 1 2 2 2 2 2 3 1 4 5 4 3 2 4 3 2 7 7 5 1 2 4 7 4 4
6 4 4 2 3 1 1 2 8 3 2 3 4 2 3 3 3 5 4 3 2 2 3 3 3 2 3 0 3 6 6 5 4 3 3 6 1 2 2 2 4 5 6 6
5 5 3 2 2 3 3 3 3 7 4 1 3 2 2 2 3 5 1 2 3 4 4 2 3 2 2 3 2 1 2 5 4 7 5 5 5 5 3 2 3 2 3 4
5 4 4 4 2 4 5 4 4 4 3 2 3 3 5 3 2 4 4 2 3 3 2 3 2 3 3 3 4 2 3 2 3 2 1 1 3 5 6 6 6 5 3 2
7 5 4 4 4 4 7 3 5 5 2 2 1 2 4 3 2 1 6 6 5 4 3 3 2 3 3 3 3 4 5 2 2 6 9 6 2 2 4 4 4 4 3 3
9 7 6 5 5 5 6 4 6 6 2 2 2 1 4 4 4 7 8 10 4 2 3 3 2 2 2 2 3 3 5 7 5 6 4 3 5 6 4 5 5 8 7 4
12 9 9 8 6 7 5 1 3 4 3 2 1 2 4 6 7 9 6 3 3 2 3 2 2 2 2 2 4 7 6 3 5 3 1 5 8 2 3 1 3 1 1 2
14 12 10 8 8 7 2 1 3 10 7 2 2 1 2 3 4 3 3 5 2 2 2 2 3 2 4 2 4 5 5 2 5 1 2 1 1 3 1 3 4 4 3 2
17 14 11 9 8 10 3 5 6 14 5 1 3 1 2 1 2 2 1 2 2 1 2 2 2 2 2 5 7 3 2 4 4 4 3 2 1 3 2 2 2 3 3 3
20 16 13 7 2 2 2 5 7 5 2 3 2 4 3 1 2 2 2 1 2 1 2 2 3 3 6 8 5 6 6 4 3 0 2 1 2 5 6 6 5 5 5 4
22 20 3 2 2 10 8 3 2 3 2 2 2 2 3 3 2 2 2 2 1 2 2 3 1 4 10 10 7 5 3 6 5 2 6 3 5 4 4 7 4 3 2 4
6 3 2 5 8 2 2 2 2 2 1 3 2 3 4 2 3 3 1 3 2 3 2 4 2 4 4 5 2 4 4 5 4 2 2 5 6 5 5 5 4 6 8 5
11 14 10 5 2 2 3 4 1 3 5 2 4 2 2 1 0 3 2 3 2 3 3 2 3 4 4 3 3 3 3 2 3 5 5 4 4 6 6 6 8 8 7 4
15 4 3 3 1 3 7 8 4 3 4 3 3 3 2 1 2 3 3 4 3 3 3 4 5 3 2 3 3 4 5 4 3 3 1 1 2 3 5 5 5 6 5 4
3 4 6 5 4 5 4 4 4 2 4 6 4 3 2 2 2 2 4 2 3 3 3 6 2 4 4 5 2 1 3 3 4 4 3 3 3 3 3 6 7 7 7 7
3 4 6 5 3 2 1 1 3 1 3 5 4 3 2 1 3 1 3 3 2 4 4 3 3 3 3 3 3 5 5 5 6 4 5 7 8 7 7 8 8 9 9 9
3 3 4 2 3 2 1 2 2 1 4 2 2 3 3 2 3 3 4 4 6 4 3 3 2 3 5 6 6 7 5 6 7 9 11 12 11 11 12 11 12 12 12 11
2 1 3 3 2 3 3 3 3 3 3 2 2 5 5 3 3 2 4 5 4 3 3 3 5 5 7 7 6 5 7 8 10 11 12 14 14 12 11 6 12 12 12 11

GFSNW_925_spd_006.txt.gz
Wind_Speed
16 18 19 19 21 23 6 1 1 22 30 2 1 2 3 4 4 7 4 15 19 7 4 3 3 5 2 2 3 6 2 5 4 3 1 1 3 7 5 4 3 1 3 5
14 16 16 17 17 16 8 2 1 16 8 2 2 1 4 2 2 2 9 4 1 4 4 5 2 4 2 5 3 5 5 3 4 3 4 2 4 4 4 4 3 4 5 5
13 14 14 15 15 14 7 1 1 2 3 1 6 4 2 3 1 7 4 4 5 3 6 6 4 3 3 2 2 1 2 3 5 7 4 5 5 5 5 5 4 3 5 2
10 12 12 13 14 16 4 1 2 2 2 2 3 2 3 3 3 5 4 5 4 5 4 3 3 2 3 4 2 3 3 4 2 3 3 3 4 6 8 7 4 6 1 5
9 11 10 12 14 13 1 3 1 2 2 1 4 4 0 3 3 3 4 6 4 7 5 2 5 5 2 2 3 3 3 3 2 2 4 2 3 5 6 5 4 6 2 11
8 9 8 10 11 8 1 0 0 3 4 2 3 2 5 4 6 4 6 9 11 12 0 4 4 4 7 4 4 2 3 3 2 2 3 5 5 6 5 4 4 5 4 5
7 7 6 6 7 9 1 2 2 3 0 1 2 3 3 4 1 6 3 5 6 3 3 3 4 9 9 10 7 3 4 4 2 2 2 1 1 4 6 5 3 3 4 5
8 5 5 4 4 5 4 3 2 3 3 2 5 5 6 5 6 5 4 4 1 1 3 4 4 4 3 5 6 6 3 4 3 3 2 5 2 3 3 3 2 2 4 1
8 5 3 3 2 3 1 8 2 3 5 2 3 4 3 4 3 3 3 2 2 0 3 3 4 4 3 2 2 5 5 6 4 3 3 5 3 2 2 2 2 3 2 3
7 6 3 2 1 2 1 3 5 3 4 2 1 3 5 5 4 4 2 2 2 2 2 2 2 2 2 4 6 4 3 3 5 3 2 6 6 6 1 4 3 3 3 4
7 6 4 2 1 0 1 2 8 1 3 1 3 2 3 2 2 5 4 3 2 2 3 3 2 2 3 2 4 5 6 6 4 3 2 7 2 1 3 3 2 3 4 3
7 6 5 1 1 2 1 1 4 6 4 3 2 4 5 4 2 5 1 2 3 4 4 2 3 2 1 3 2 1 2 5 4 7 5 1 3 5 3 4 4 3 2 3
9 7 7 5 1 2 2 2 3 4 3 3 3 3 6 3 7 5 4 2 3 2 2 3 2 2 3 4 4 2 2 2 2 1 1 6 4 2 1 4 5 6 4 3
9 6 6 8 5 5 3 3 4 4 3 3 1 2 4 6 2 6 5 7 6 4 3 3 2 2 3 3 2 3 5 2 2 3 6 3 4 4 6 5 4 2 2 4
11 8 6 7 8 8 8 8 8 8 2 3 2 2 5 7 4 8 11 10 4 3 3 3 1 1 3 1 2 4 4 6 4 4 4 3 3 1 2 3 3 7 8 4
13 10 9 8 9 10 4 2 0 2 5 3 2 1 5 7 10 10 6 3 3 2 3 2 1 1 2 2 2 6 4 0 3 4 4 3 2 3 2 1 2 4 2 0
16 14 12 10 10 8 4 3 1 5 3 3 2 1 2 2 4 3 3 5 2 2 2 2 2 1 3 2 4 6 2 5 0 2 4 2 1 2 5 5 3 3 1 2
19 16 13 11 11 10 5 5 6 7 5 3 3 1 1 2 2 2 1 2 1 3 2 2 2 1 2 4 4 2 2 1 4 4 4 2 3 4 3 3 5 6 5 4
22 19 16 10 3 3 3 8 8 6 3 2 2 4 3 1 2 2 2 1 2 1 2 2 3 3 5 5 3 5 5 4 5 3 1 4 2 5 6 5 4 5 4 4
26 22 3 2 3 11 8 3 2 3 2 1 2 2 2 2 2 2 2 2 1 2 0 3 2 4 6 5 6 5 5 5 6 2 3 3 3 4 4 5 5 6 5 5
8 3 2 6 12 3 3 2 2 1 1 2 2 2 4 0 3 2 1 2 1 2 3 3 2 3 3 5 3 1 3 5 6 4 3 3 4 5 4 4 4 6 6 6
10 14 11 6 3 2 4 4 2 3 5 3 4 3 3 2 2 3 2 3 1 3 2 2 3 4 3 3 5 5 6 7 6 5 4 5 5 7 5 5 5 8 9 8
12 4 4 3 1 3 8 9 4 4 4 4 3 3 3 2 2 3 2 3 3 4 2 3 4 3 3 3 3 2 1 1 1 3 4 5 5 5 6 6 8 10 10 10
3 4 6 5 5 6 5 5 4 3 5 8 5 3 2 2 2 2 4 2 4 3 3 5 3 4 2 2 0 1 3 7 7 7 7 7 8 8 9 11 12 13 12 13
3 4 6 7 3 1 1 2 3 1 5 6 5 3 3 2 3 2 3 3 3 5 4 3 4 3 4 4 4 7 7 6 5 3 4 7 8 9 10 12 13 14 11 10
2 3 2 2 5 2 1 1 3 2 4 3 3 4 4 3 4 4 4 7 6 3 3 3 3 4 6 5 6 7 5 5 6 8 9 11 10 12 12 11 13 12 11 10
4 2 1 3 3 4 3 3 3 3 3 3 4 5 6 3 3 2 3 4 3 4 3 3 5 6 7 6 6 6 8 8 10 10 12 14 12 11 9 6 12 12 11 10

GFSNW_925_spd_009.txt.gz
Wind_Speed
17 16 16 17 16 17 5 1 1 16 24 3 2 2 3 7 8 2 4 2 9 7 7 6 3 6 2 5 8 7 3 5 4 2 0 2 2 7 6 4 4 2 3 5
17 16 13 15 13 12 5 1 3 10 7 1 2 1 3 2 3 4 4 5 4 3 5 5 3 5 1 3 5 7 6 1 4 3 4 2 4 5 4 4 3 5 5 5
15 14 11 13 11 9 5 1 2 1 2 3 3 6 1 1 2 0 5 3 5 4 3 4 4 4 2 1 3 5 6 3 6 9 6 6 5 5 5 6 4 4 6 4
12 13 10 10 11 12 4 1 3 2 4 4 3 3 5 1 3 3 4 5 4 4 4 3 5 3 4 3 3 3 3 4 3 2 5 4 5 6 9 7 5 6 3 6
12 11 10 8 10 10 2 2 1 2 1 2 4 2 1 3 1 2 2 3 1 2 4 2 5 6 2 3 3 2 2 2 3 1 3 4 1 2 7 4 3 4 3 5
11 10 9 6 8 6 2 2 1 3 3 1 3 3 5 5 7 4 2 13 8 5 7 5 6 6 6 4 5 3 2 5 3 2 3 2 4 8 7 4 4 6 5 3
10 10 7 5 5 5 2 2 2 3 2 0 3 4 3 6 1 6 2 3 4 5 4 4 6 9 10 10 8 3 4 3 3 2 2 2 2 3 4 5 3 3 6 4
10 9 7 5 3 3 0 1 3 2 2 1 2 5 5 6 5 5 4 4 1 2 5 4 6 5 6 6 7 8 5 4 3 4 3 3 2 3 5 5 2 3 4 4
10 9 7 5 3 2 3 3 2 2 5 3 3 4 2 4 4 3 3 2 1 4 3 3 5 5 4 2 4 5 5 5 3 2 3 5 2 1 2 4 1 2 3 3
11 9 7 6 4 3 3 1 1 3 3 1 1 3 5 4 4 4 2 3 2 2 2 3 3 2 3 5 8 5 2 2 4 2 2 5 5 3 1 4 4 2 4 3
11 9 8 6 5 4 4 2 3 2 3 2 3 2 3 3 2 4 4 3 2 3 3 3 3 3 3 3 4 5 6 5 3 3 2 6 0 2 5 4 3 5 4 3
12 10 9 6 5 6 4 3 4 5 4 2 2 5 6 3 2 5 1 1 3 4 4 1 3 2 1 3 3 1 2 5 4 7 4 2 2 4 4 5 5 4 1 3
13 11 10 8 4 6 5 4 4 4 3 3 3 3 7 5 6 2 4 2 4 2 2 4 3 3 3 4 4 2 1 2 3 2 2 3 3 3 3 2 3 2 2 2
14 12 11 10 7 6 6 4 2 4 3 4 1 2 3 7 3 4 2 7 5 5 2 2 3 3 2 3 2 3 3 4 4 1 1 4 2 1 2 3 0 1 1 1
14 12 12 12 9 9 10 11 8 6 3 3 2 1 7 8 3 10 12 9 5 2 3 3 2 2 3 2 2 3 4 6 4 4 5 4 3 4 2 3 3 0 2 3
16 14 14 13 13 13 3 2 2 6 3 4 2 2 5 9 13 14 8 4 4 3 3 2 2 2 2 3 2 4 3 2 4 5 4 3 5 5 2 3 5 7 7 5
17 15 15 14 14 7 3 3 1 3 3 3 3 1 3 3 3 3 3 5 2 2 2 2 2 2 2 3 4 4 4 6 3 3 6 4 3 3 5 6 4 3 2 3
20 18 16 14 15 11 6 7 6 3 9 3 3 1 2 4 2 2 2 2 2 3 2 0 2 2 1 3 5 2 3 6 6 6 6 5 5 5 4 4 1 3 2 2
22 21 21 8 3 3 5 9 8 10 5 4 2 4 3 1 2 1 2 2 2 1 1 0 1 1 4 4 5 5 6 3 6 4 5 5 4 2 2 2 1 2 4 4
26 18 4 2 2 17 11 4 3 4 3 2 2 2 3 2 1 2 2 2 2 1 0 1 1 3 3 5 6 4 6 7 7 4 3 2 2 4 2 4 4 6 7 6
8 3 2 5 11 3 3 2 2 1 2 2 2 2 4 1 3 2 1 2 1 2 2 2 2 3 3 2 3 1 4 6 5 4 3 3 2 3 3 4 6 8 10 8
12 14 9 4 2 3 4 3 1 3 5 2 4 3 3 2 2 3 0 2 1 4 2 2 3 4 3 1 3 5 6 7 6 4 5 3 4 5 5 5 6 8 9 9
14 4 4 3 1 3 8 10 4 4 4 5 4 4 3 2 3 3 2 3 3 3 1 3 4 2 2 3 4 4 3 4 4 3 4 5 6 6 6 6 7 7 9 10
2 4 6 5 5 6 5 5 4 3 4 9 7 3 3 2 3 3 4 2 3 3 3 6 3 5 5 6 4 5 6 7 6 6 7 7 6 6 8 10 10 10 12 12
3 4 5 7 2 2 1 2 3 1 7 7 5 3 3 2 4 2 4 4 4 5 5 3 4 5 6 7 6 6 5 4 4 3 3 5 7 9 11 13 12 13 13 11
2 2 3 2 3 2 2 0 4 2 6 3 3 4 3 2 4 4 6 7 7 4 3 3 3 6 6 4 3 3 3 3 5 7 7 8 8 10 11 11 13 14 14 13
3 2 1 3 2 4 3 3 2 2 8 3 3 5 6 4 2 2 3 5 4 3 3 2 4 7 6 6 4 4 5 6 9 9 9 10 9 8 8 5 13 14 14 13

GFSNW_925_spd_012.txt.gz
Wind_Speed
16 14 12 12 12 11 3 2 2 13 25 5 2 6 6 8 7 1 3 3 7 9 11 6 6 8 5 11 10 8 3 6 5 4 1 5 5 7 6 4 4 1 3 6
16 13 12 11 9 6 2 3 3 10 9 3 3 2 2 3 3 2 4 4 4 13 7 7 3 3 5 6 7 8 7 2 5 3 1 3 4 4 4 5 3 7 6 5
16 13 11 11 8 5 2 2 3 3 3 2 3 3 3 3 2 4 2 5 11 7 4 7 7 7 2 4 4 4 7 3 6 9 5 7 5 5 5 6 4 5 6 5
15 14 12 11 8 5 5 2 4 4 4 5 6 3 5 4 5 6 2 4 10 6 5 5 5 3 5 3 5 3 4 4 3 3 3 5 7 9 10 9 7 7 5 8
15 13 12 11 7 5 5 3 3 0 1 1 7 4 5 4 3 4 1 6 6 7 3 4 8 7 4 5 3 5 2 2 3 2 3 2 3 4 8 5 4 3 5 5
15 14 12 11 7 5 4 2 1 3 1 2 3 3 4 4 6 2 3 6 6 7 2 2 5 6 6 6 6 3 6 5 3 3 1 3 4 8 7 5 4 7 7 7
15 14 12 11 9 8 5 4 2 3 2 2 2 3 1 5 2 5 2 4 5 5 2 3 6 10 12 11 7 2 5 4 2 3 1 1 3 1 6 6 2 4 5 5
16 14 11 11 9 8 6 4 3 3 2 1 1 4 4 6 6 4 4 4 3 4 2 4 5 4 4 5 6 7 3 4 3 4 4 3 0 4 6 5 1 1 7 6
16 14 12 11 10 8 7 4 5 2 4 4 2 4 3 4 4 4 2 1 2 2 2 4 3 2 3 3 2 3 4 6 4 2 3 7 1 3 4 4 2 5 7 5
16 14 13 12 10 8 7 4 5 2 4 2 1 3 5 4 3 4 4 3 2 1 2 3 3 4 2 4 7 5 3 3 4 2 2 6 3 3 1 5 4 4 5 6
17 15 14 11 10 9 7 3 2 2 3 2 2 2 4 2 2 4 5 4 1 2 3 3 3 3 4 3 2 5 5 6 4 3 2 6 2 4 5 4 3 6 5 4
18 16 15 13 11 10 7 3 3 4 4 2 2 6 6 2 2 5 2 1 3 4 4 1 3 2 2 4 3 2 2 4 4 6 4 1 2 2 4 4 6 4 4 4
19 17 15 13 11 11 8 4 7 3 3 3 3 3 5 7 6 1 4 2 3 2 2 4 2 3 3 4 4 2 1 2 2 3 2 2 4 4 4 4 5 4 3 3
19 17 15 14 11 10 10 4 6 3 3 4 0 2 3 8 6 1 1 6 5 5 2 3 2 3 2 3 3 3 3 5 4 0 2 2 1 2 5 5 5 6 5 3
20 18 15 14 13 10 10 8 5 2 2 3 2 2 6 9 7 10 9 7 4 2 3 3 2 2 3 1 2 2 4 5 5 5 6 4 4 5 4 6 5 5 3 2
20 17 17 16 13 17 5 2 2 4 4 4 2 2 4 7 13 14 8 4 3 3 3 2 1 1 3 3 4 3 4 3 4 3 4 3 7 6 3 6 5 3 5 4
21 18 17 16 16 8 1 2 5 5 4 3 3 2 3 3 4 3 3 4 2 3 2 2 2 1 3 3 4 4 6 7 5 6 7 5 2 4 4 6 6 4 3 2
23 20 17 15 11 12 4 5 5 4 7 3 3 1 1 3 2 2 2 2 2 4 2 1 2 0 2 3 4 4 5 6 6 6 5 5 7 6 5 4 4 2 1 0
26 23 22 9 3 2 4 11 8 9 4 4 2 5 3 1 2 2 2 1 2 1 1 1 1 1 4 5 6 7 7 7 9 5 6 5 4 5 4 3 3 3 3 3
31 20 4 1 2 17 10 3 3 4 3 3 3 2 3 2 1 2 2 2 1 1 0 1 2 3 2 4 5 8 9 8 11 6 3 2 2 4 5 5 3 4 4 4
9 3 2 5 13 3 3 2 3 0 2 2 3 3 4 2 3 2 1 2 1 2 3 2 3 3 3 2 5 2 6 9 5 5 6 6 6 5 4 3 4 5 6 5
11 14 10 5 3 3 4 3 1 3 6 2 4 3 3 1 2 3 1 3 2 1 0 1 3 3 1 2 2 3 7 8 8 5 8 6 5 5 4 2 3 4 6 6
14 5 3 3 1 3 7 8 4 3 4 5 4 4 3 2 3 3 3 3 3 2 1 3 4 3 2 4 5 6 6 7 7 6 6 7 5 4 3 3 5 5 6 7
3 4 6 6 5 5 5 4 4 2 4 9 7 3 3 2 3 2 4 1 3 3 4 7 3 6 6 6 4 6 7 7 7 6 5 4 3 3 5 6 6 6 8 8
2 3 5 4 2 2 1 3 2 1 8 6 5 3 3 2 4 1 3 4 4 6 5 3 3 6 7 7 5 6 7 6 6 4 4 5 5 5 6 6 7 9 7 7
1 2 4 4 4 2 2 4 3 1 6 3 3 4 3 2 4 4 6 7 7 4 3 3 3 7 6 6 6 6 4 4 3 4 5 6 7 7 6 4 5 7 8 8
3 2 2 3 2 4 3 3 3 1 5 3 3 5 4 3 3 4 4 5 3 3 2 2 4 9 7 6 5 4 5 5 6 6 7 4 1 2 2 4 5 6 6 7

GFSNW_925_spd_015.txt.gz
Wind_Speed
14 12 10 8 7 6 5 4 2 6 30 6 3 3 5 7 9 17 12 8 5 7 10 8 6 10 5 16 8 7 6 6 4 4 1 4 6 8 7 4 3 1 2 5
12 12 10 7 8 6 4 3 2 12 7 3 5 4 13 13 9 12 4 5 4 9 8 7 5 7 11 14 16 9 6 2 5 4 1 3 4 4 4 4 3 6 5 4
12 12 11 8 8 7 4 2 3 3 4 2 3 5 2 5 4 2 3 4 7 7 9 2 6 7 5 10 11 4 5 3 5 8 4 6 5 5 5 8 4 5 6 4
12 12 12 8 8 9 6 2 5 4 5 7 10 4 6 9 5 7 3 5 14 10 5 4 5 5 4 3 8 4 3 3 3 1 2 6 6 8 11 10 10 10 7 8
12 12 13 10 9 9 5 3 3 1 2 3 7 7 4 11 6 4 5 9 18 5 6 6 10 8 5 8 3 6 2 3 3 1 2 4 5 6 12 11 4 7 5 7
13 12 13 13 11 11 4 3 3 2 2 2 4 4 5 6 5 2 3 12 5 4 1 3 7 7 3 6 6 4 5 6 4 3 2 5 4 10 11 7 5 11 11 9
14 12 14 15 13 15 6 4 1 2 3 3 4 5 3 5 3 4 4 4 5 1 4 4 14 11 11 10 7 2 5 4 3 3 2 2 5 1 6 8 4 5 3 5
14 12 14 15 14 15 13 5 3 3 3 2 1 4 5 6 4 4 2 5 4 3 2 5 5 4 5 5 5 6 1 5 3 4 4 4 1 4 6 7 5 6 8 6
14 13 16 15 14 14 12 9 9 1 1 4 2 4 4 4 4 3 4 3 3 4 3 3 4 4 5 6 6 1 5 4 2 2 4 6 1 2 4 4 3 7 8 8
15 14 17 15 15 14 12 5 11 2 2 2 1 3 5 4 4 4 4 3 2 3 2 2 3 3 3 4 6 3 3 2 6 3 3 5 4 3 3 4 3 5 5 6
15 15 16 16 15 13 13 3 10 4 2 3 2 2 3 3 2 5 6 4 1 3 2 1 2 3 4 3 4 5 6 6 4 3 2 6 3 4 6 3 4 6 5 4
16 17 17 16 15 13 13 4 8 7 2 1 1 5 4 2 0 5 1 3 5 5 4 2 3 2 2 4 4 0 3 4 4 6 3 1 2 2 3 3 6 4 6 5
17 19 18 17 16 13 14 5 13 4 3 3 3 2 3 7 5 1 4 1 4 2 1 4 3 3 3 4 4 3 2 2 3 3 0 2 4 4 5 4 6 6 5 6
19 20 19 17 16 13 15 6 12 3 3 4 1 2 2 7 6 1 1 6 6 5 2 3 3 3 2 3 2 3 3 5 5 2 2 4 2 3 6 7 7 8 6 4
20 21 19 17 16 11 12 7 10 8 3 3 2 1 6 9 6 12 11 7 4 2 3 3 2 2 3 1 2 2 4 6 5 5 8 4 5 6 6 7 6 5 6 4
23 21 19 17 16 13 8 2 5 8 6 4 3 2 4 8 12 12 7 4 3 3 3 2 1 1 2 3 3 3 3 2 3 4 5 3 8 7 4 7 6 4 6 4
23 22 20 17 15 15 2 2 4 9 5 3 3 2 2 2 2 3 3 4 3 3 2 2 2 0 3 3 4 4 7 5 3 6 11 6 2 5 6 8 7 8 6 5
25 22 19 16 14 9 3 4 5 5 6 3 3 1 2 3 2 2 2 2 2 4 2 1 2 1 2 3 4 4 6 7 6 2 4 7 9 7 6 6 6 5 4 4
27 24 21 12 3 2 5 9 8 6 2 4 2 5 4 1 2 2 2 2 2 1 1 1 2 2 4 6 7 8 8 9 10 5 7 8 7 7 6 5 4 5 4 5
32 22 3 2 4 18 13 2 3 4 3 3 2 1 3 2 2 2 2 2 1 1 1 0 2 3 3 4 6 9 12 12 15 10 4 3 3 6 6 6 4 4 4 4
8 3 2 6 17 3 3 2 3 1 1 1 2 2 5 1 3 3 1 2 1 2 2 2 2 4 4 3 5 5 5 12 7 6 5 6 8 8 6 5 5 5 6 6
11 16 11 6 3 3 4 3 1 4 6 3 4 3 3 1 2 3 2 3 2 2 1 1 3 3 2 4 5 6 8 8 8 7 11 9 8 9 7 5 4 6 7 7
16 5 4 3 0 3 8 9 4 2 4 5 4 4 4 2 3 3 3 4 3 1 1 4 4 2 2 3 5 6 7 7 8 7 9 12 10 9 6 5 5 4 4 4
3 3 7 6 5 5 4 4 4 3 4 9 7 4 3 2 3 3 5 0 3 2 3 5 3 4 4 4 5 8 8 8 8 8 8 8 8 6 5 5 4 5 4 5
3 3 5 4 2 2 2 2 3 1 7 7 5 4 3 2 4 2 4 4 4 5 5 3 3 4 5 5 4 7 7 7 6 5 5 5 6 5 3 1 2 3 3 4
2 2 3 3 3 1 1 2 4 1 7 3 3 4 4 2 6 4 6 7 6 4 3 2 3 8 7 6 6 6 6 6 5 5 5 5 6 4 3 2 0 2 4 5
2 1 2 2 2 3 2 2 3 3 6 2 3 5 5 4 3 5 4 5 3 3 2 1 3 7 7 6 6 6 6 5 6 5 5 4 4 4 3 2 2 1 3 4

GFSNW_925_spd_018.txt.gz
Wind_Speed
19 15 13 13 12 10 11 6 3 18 32 5 3 5 5 5 11 15 12 9 9 15 18 14 8 15 9 21 11 10 8 5 5 5 2 10 10 12 11 4 5 2 3 2
19 15 13 13 14 14 9 3 2 18 15 4 6 6 8 9 8 12 10 10 12 13 14 10 10 15 15 19 17 11 11 7 8 6 3 2 6 11 15 11 2 10 8 3
20 16 13 14 16 15 8 3 3 2 4 2 2 8 8 11 13 10 11 10 11 15 14 10 12 10 9 20 20 17 1 4 11 10 7 11 12 19 17 18 11 10 11 7
20 18 14 16 16 15 11 4 4 5 5 10 12 6 4 8 6 6 9 3 13 17 12 12 12 13 10 15 19 11 4 4 7 4 3 15 19 19 21 22 22 14 15 17
21 19 16 18 17 16 7 3 3 2 3 9 14 13 10 15 10 7 7 8 16 17 15 14 14 11 10 9 17 17 10 3 3 2 2 8 11 19 21 24 22 24 18 16
21 19 18 19 19 22 4 3 1 1 3 5 5 4 5 9 11 6 6 15 16 15 12 7 11 13 8 8 14 18 12 6 3 3 3 4 7 18 19 20 21 21 20 20
22 19 19 20 22 23 8 4 2 3 5 6 4 3 6 5 10 2 1 13 16 2 7 13 12 7 9 11 7 11 12 7 1 1 5 3 2 2 16 22 18 20 17 5
22 20 19 20 22 21 17 6 3 3 4 2 3 5 3 4 4 4 3 4 2 1 3 9 6 2 4 3 5 3 3 2 3 3 8 6 4 5 7 12 14 15 16 8
24 21 19 19 21 21 23 13 9 2 3 2 2 4 5 3 2 2 3 3 3 2 2 3 3 4 5 5 2 3 7 2 1 2 2 5 2 3 5 6 7 13 14 16
19 21 18 19 20 20 21 6 18 2 3 1 2 3 6 5 3 3 2 1 2 3 1 2 2 2 1 9 9 6 4 4 10 4 3 6 1 5 5 6 0 9 13 16
15 21 17 19 20 19 22 4 18 4 2 1 1 1 2 3 4 5 4 3 1 1 3 3 3 2 5 4 7 10 9 7 4 4 6 9 5 5 6 4 9 12 14 12
16 22 18 20 20 19 19 4 15 14 2 2 1 1 2 2 1 5 2 1 5 4 3 1 2 3 2 5 5 2 7 4 3 7 3 2 1 2 1 8 13 9 13 11
18 22 18 21 20 19 20 6 15 5 2 1 2 1 1 4 3 2 3 3 5 2 1 4 2 2 3 5 4 4 2 3 2 4 2 1 1 4 6 9 11 11 12 11
15 21 20 21 19 19 17 7 17 3 2 2 2 1 1 6 4 4 2 3 7 5 2 2 2 2 1 2 2 1 1 9 6 1 1 4 3 7 10 12 12 13 9 8
11 22 21 20 19 18 15 18 11 11 1 2 2 0 4 7 4 5 8 8 5 2 2 1 2 3 3 1 1 3 6 6 5 3 13 3 14 12 13 14 12 11 12 8
13 23 21 20 19 16 9 2 10 17 6 3 3 2 2 5 8 10 7 4 3 2 2 2 2 1 1 3 3 2 7 5 2 3 10 2 15 13 9 12 10 8 8 7
23 25 22 20 18 19 2 2 5 18 8 3 3 2 1 2 2 2 2 3 3 2 2 2 2 2 2 1 4 4 10 7 5 11 12 9 12 8 10 11 10 12 11 8
28 25 21 17 16 12 3 4 11 16 6 2 3 1 2 1 2 2 3 2 1 4 2 2 2 3 1 4 7 4 9 8 9 9 4 7 13 13 11 10 9 8 6 6
30 27 21 12 4 3 5 11 11 7 3 3 2 5 4 2 2 1 1 1 2 1 1 1 2 3 5 6 8 13 14 12 14 8 9 10 11 10 9 8 7 7 6 6
34 25 4 2 5 17 14 3 2 2 1 2 2 1 3 1 1 2 2 2 1 1 1 0 2 4 5 4 6 10 14 13 16 13 6 7 6 9 10 8 7 6 6 6
10 3 2 6 17 3 3 2 2 1 1 2 3 3 4 0 2 3 1 2 0 3 2 2 2 4 3 1 6 8 11 14 11 7 9 10 13 13 10 8 6 6 7 6
11 18 12 6 3 2 4 2 1 4 5 4 5 4 3 2 0 3 1 2 1 3 2 2 3 3 1 4 7 11 12 13 8 8 12 10 11 11 9 7 7 7 6 6
16 5 4 4 1 3 8 9 5 4 5 5 4 4 3 3 2 3 2 3 2 3 3 4 4 1 2 4 6 10 11 10 11 11 12 15 12 11 8 8 6 6 5 4
3 4 8 6 6 7 5 4 4 2 4 10 6 4 3 2 2 3 4 2 3 3 3 5 1 3 7 6 6 12 12 11 12 11 10 10 10 9 8 7 7 6 5 5
3 3 5 4 3 3 1 1 4 2 8 7 6 4 3 3 4 2 4 4 4 5 4 2 1 5 8 10 11 12 11 9 8 8 8 8 9 9 7 5 4 4 4 5
2 2 3 3 3 2 3 3 3 1 8 3 3 4 3 2 5 5 6 7 6 3 2 2 5 8 8 10 10 10 9 9 8 9 8 9 8 7 6 5 4 4 4 4
2 2 3 2 1 3 3 3 3 2 6 3 3 5 3 5 3 5 4 5 1 2 2 4 6 8 9 9 9 8 8 8 9 9 8 8 8 9 7 5 3 4 5 5

GFSNW_925_spd_021.txt.gz
Wind_Speed
18 22 23 18 15 18 21 6 3 18 29 6 3 6 5 4 8 15 12 6 16 14 16 17 13 12 11 17 15 7 7 4 3 4 4 8 10 9 10 7 4 3 5 6
27 20 23 20 18 23 12 3 3 19 22 5 7 4 7 8 3 9 10 11 16 13 16 11 11 9 11 14 18 9 10 6 4 4 7 5 11 8 13 11 1 10 7 6
26 16 25 21 22 24 15 2 4 3 4 4 4 8 8 8 13 17 16 10 15 12 15 17 12 8 8 12 19 10 6 7 9 4 8 12 10 18 18 16 10 9 11 8
28 19 27 23 24 25 17 3 4 5 5 8 13 6 4 8 6 12 16 7 17 17 15 19 11 13 10 13 16 15 4 5 3 2 5 16 15 19 21 21 18 13 12 15
33 26 29 25 25 26 8 4 3 4 2 9 15 16 7 11 11 7 15 9 21 18 13 14 13 13 12 8 13 16 9 2 3 4 2 6 11 17 21 21 21 20 18 16
30 15 27 25 27 28 4 5 3 4 3 8 8 5 10 12 14 9 7 19 10 17 16 17 6 13 12 2 15 16 9 5 4 3 6 5 8 18 19 19 21 19 20 17
30 27 25 27 30 31 6 5 3 3 8 10 10 3 5 12 12 7 7 12 15 7 5 11 10 9 3 6 10 16 13 11 3 1 6 5 1 3 16 20 19 19 19 15
30 30 27 27 29 29 16 6 3 2 7 9 4 7 6 1 3 3 1 3 2 2 12 9 5 0 2 4 7 10 7 5 3 3 7 8 8 4 5 12 17 20 17 15
25 25 22 25 27 27 22 13 9 2 4 2 1 4 5 2 2 2 2 3 2 3 3 4 4 4 4 4 2 5 5 5 2 1 3 4 6 3 0 5 7 5 16 13
26 27 18 28 25 25 21 8 19 3 4 4 3 4 3 3 3 3 3 4 3 3 2 3 3 2 4 7 8 6 4 3 4 4 3 7 3 4 3 5 2 3 5 12
26 26 7 23 23 24 24 6 16 6 3 3 2 2 2 2 3 3 4 4 1 1 2 3 2 3 5 6 11 9 6 6 3 4 4 7 5 4 4 3 5 7 10 12
25 27 28 26 23 24 23 4 13 15 3 4 2 3 3 2 3 3 3 1 4 3 3 2 2 2 2 6 6 6 7 7 5 9 5 3 1 3 2 4 10 10 13 13
23 26 20 24 22 24 22 7 13 6 2 3 3 4 4 1 2 4 3 0 3 3 2 3 1 1 3 4 3 6 4 3 3 3 4 2 4 2 3 9 10 12 13 13
25 24 17 23 22 23 22 9 15 4 2 3 3 1 2 3 4 5 3 5 4 4 1 2 2 2 2 1 1 3 1 9 8 1 2 2 4 5 9 12 12 13 10 10
25 23 15 23 22 20 18 18 11 14 3 1 1 2 1 4 1 5 5 9 6 4 3 3 3 2 3 1 1 3 6 6 6 3 11 3 8 12 13 14 13 12 13 11
23 21 12 22 21 19 8 2 14 20 9 1 2 2 1 4 6 7 6 3 2 1 2 2 2 1 2 4 3 1 11 5 6 2 10 4 14 14 13 14 12 11 11 10
22 18 17 22 21 21 3 1 1 19 16 2 2 3 2 1 1 2 2 2 2 1 2 1 2 2 2 1 3 6 10 8 7 11 14 11 15 8 12 13 12 13 13 11
18 15 22 21 19 12 3 1 6 16 6 2 2 1 2 1 2 2 2 1 1 3 1 1 2 2 2 4 7 5 10 10 10 10 1 9 12 15 13 12 11 10 10 9
19 26 24 18 5 3 5 7 14 1 1 3 2 4 3 2 2 2 1 2 1 1 2 2 2 4 5 6 6 11 15 12 13 9 9 11 13 12 10 9 8 10 9 8
35 27 4 2 5 17 19 3 1 2 1 1 1 2 2 1 1 1 1 2 1 1 1 2 3 5 8 2 3 8 13 11 16 14 6 9 9 10 12 10 8 8 8 7
9 3 2 7 24 4 2 2 4 4 3 3 3 3 4 0 2 3 1 2 1 2 2 2 3 4 3 4 2 6 11 14 11 5 9 12 15 14 13 10 9 8 8 6
9 14 12 6 3 2 4 3 0 3 4 4 6 4 4 2 1 3 1 2 0 2 1 2 4 1 2 0 5 10 11 11 10 13 15 14 12 11 11 9 9 9 9 8
12 4 4 4 1 5 9 9 5 4 6 5 4 4 4 3 2 3 2 3 2 2 3 4 4 2 2 3 7 11 11 10 14 14 14 17 14 15 14 9 11 10 9 7
2 3 8 7 6 7 5 5 5 3 4 9 6 4 3 2 3 3 4 2 3 3 4 5 2 5 7 7 8 11 12 13 14 14 13 13 11 11 13 12 10 10 8 7
2 2 4 4 4 3 2 3 4 3 8 8 6 4 3 2 4 2 4 4 5 5 4 1 2 6 7 9 9 12 12 12 12 12 11 11 13 11 12 9 8 8 8 7
1 2 3 3 3 3 3 2 3 3 8 2 2 4 3 2 5 5 6 7 6 2 1 3 6 8 8 9 9 9 10 11 11 11 12 13 11 10 11 9 8 7 7 6
2 2 2 2 3 4 4 5 3 6 6 2 3 5 3 5 3 5 4 4 1 2 3 4 6 8 10 10 11 9 10 10 10 12 12 12 12 12 11 7 6 8 8 7

GFSNW_925_spd_024.txt.gz
Wind_Speed
16 21 29 19 27 21 26 5 3 19 33 8 3 6 5 4 6 15 12 7 14 13 12 13 14 10 7 11 19 10 9 5 3 4 2 13 6 7 5 0 3 3 3 2
16 19 24 23 28 28 13 5 3 18 18 6 6 4 4 8 6 9 8 9 13 12 15 7 16 10 9 11 12 12 9 3 0 1 6 6 6 5 3 5 4 3 3 3
24 19 26 33 26 28 17 3 5 3 3 1 8 10 5 6 13 17 8 5 14 14 16 10 2 8 5 13 15 16 9 5 6 2 6 9 8 6 5 5 0 1 2 7
27 20 30 36 29 31 12 2 4 5 5 7 9 7 5 7 5 12 14 7 18 14 11 11 11 11 6 10 15 12 4 2 5 8 12 11 10 11 9 10 7 2 2 7
29 21 36 11 31 33 6 4 3 3 3 11 15 14 7 11 8 7 6 12 13 15 12 11 10 10 9 7 8 9 9 5 5 7 7 7 8 10 13 14 8 7 8 5
30 26 26 12 28 32 3 4 0 0 1 8 7 6 8 8 10 10 14 18 13 14 13 8 6 9 11 4 9 10 5 3 4 4 4 3 3 9 14 13 11 11 11 8
28 28 26 27 23 36 7 4 3 2 4 5 8 11 9 10 12 13 9 13 14 4 9 8 9 7 7 3 7 9 6 2 3 1 4 2 5 2 11 11 7 11 8 6
29 30 28 25 26 37 10 7 4 3 2 4 13 3 1 6 6 10 5 7 3 6 5 4 1 3 4 5 7 2 7 1 1 2 4 5 3 2 1 6 9 8 7 9
26 28 24 26 24 31 17 10 8 1 1 2 6 3 3 5 3 3 1 2 3 3 3 3 4 3 4 3 1 5 4 5 3 3 2 2 2 3 5 3 3 6 7 8
26 27 25 29 15 27 20 6 17 3 2 4 4 2 3 2 0 2 2 3 2 4 2 3 3 3 2 6 8 4 3 3 4 2 2 6 2 1 4 3 3 7 7 13
27 27 23 26 17 24 23 5 15 8 2 3 1 3 2 1 2 2 3 3 1 2 2 3 2 3 4 3 6 6 4 5 3 3 2 6 4 2 2 2 3 3 8 10
26 25 24 24 8 22 25 3 15 19 1 2 3 5 4 3 3 1 1 1 1 3 2 2 2 2 3 5 3 6 6 6 6 7 5 2 4 3 0 1 4 6 10 12
26 25 24 23 11 19 23 6 11 5 1 3 3 3 7 4 6 5 2 1 1 1 2 2 0 2 2 3 3 4 5 2 2 4 3 4 5 3 2 3 7 8 9 11
28 25 23 21 14 18 23 7 14 5 2 3 2 3 3 4 5 9 3 3 4 3 2 2 1 1 3 1 1 1 1 7 6 2 2 3 1 4 6 9 10 10 9 10
28 26 22 19 11 17 21 16 10 13 1 2 2 2 1 3 7 10 8 5 3 2 2 2 2 2 3 1 2 3 4 5 4 3 9 5 5 8 9 11 9 9 14 11
28 25 20 17 8 17 12 2 14 19 11 2 1 0 2 1 5 6 5 4 2 1 2 2 2 1 1 3 3 3 6 4 3 3 5 6 12 10 8 11 10 9 11 10
28 24 19 12 16 22 3 1 1 19 18 2 1 1 1 2 1 1 2 2 1 1 1 1 2 1 2 1 3 4 7 7 7 9 15 9 7 6 10 11 12 14 13 14
27 22 13 6 19 14 5 2 6 19 5 1 2 0 2 1 2 2 1 2 2 3 1 1 1 1 1 4 6 5 8 8 6 5 5 8 12 14 10 10 11 12 10 9
25 13 8 18 7 3 6 9 13 5 2 3 2 4 3 0 1 1 1 2 2 0 1 1 1 2 4 5 3 8 8 6 9 7 9 11 12 11 9 9 8 12 8 8
10 13 3 3 8 17 20 4 1 2 1 1 2 1 2 1 1 2 1 2 2 1 0 2 2 4 4 3 1 6 9 14 13 12 7 9 8 10 8 7 7 9 7 7
10 3 2 8 27 4 1 2 2 2 2 3 3 2 3 1 3 2 2 1 1 0 1 1 2 3 2 5 4 2 9 11 8 7 8 7 12 13 11 10 9 8 10 8
9 9 7 6 3 2 4 3 1 3 5 3 4 3 3 2 1 3 1 2 1 3 1 1 3 3 2 4 1 7 9 8 8 12 15 14 11 10 11 10 9 12 17 17
11 2 3 3 1 4 8 9 4 5 4 4 3 3 3 2 2 3 3 3 3 1 2 3 4 1 1 2 4 7 7 10 13 15 14 20 15 18 17 10 17 19 17 14
2 3 6 5 5 6 4 4 5 3 4 8 4 3 3 2 3 3 4 1 3 2 3 5 2 4 5 4 5 7 8 13 14 14 14 16 15 13 18 19 20 19 15 13
2 2 3 3 3 3 2 2 4 1 8 7 4 3 3 2 3 2 4 3 4 5 5 2 2 4 5 6 6 9 10 11 12 12 13 13 16 15 16 19 19 19 17 15
1 2 3 2 2 1 2 2 3 2 7 2 3 4 3 2 4 4 6 7 6 4 2 2 3 6 6 7 7 7 9 10 11 12 15 17 16 15 17 19 18 16 15 14
2 2 2 2 2 2 3 3 2 6 7 3 3 5 5 4 3 3 4 5 2 3 1 2 4 5 7 9 10 10 11 11 13 16 17 18 22 23 19 10 14 16 16 17

GFSNW_925_spd_027.txt.gz
Wind_Speed
49 30 13 16 20 18 34 5 6 27 37 6 3 4 6 5 5 7 10 5 7 6 9 7 9 11 10 11 12 12 11 4 5 8 6 8 13 9 9 8 9 15 4 3
48 25 24 18 24 33 20 7 3 23 19 6 5 4 7 8 8 9 8 10 11 10 7 7 14 10 11 15 14 13 8 5 3 3 4 10 8 13 17 23 5 2 4 4
45 30 24 16 22 32 16 4 4 4 4 1 8 7 7 6 8 12 11 7 14 7 6 8 7 15 6 16 13 16 15 5 6 2 2 7 6 19 19 15 3 2 2 6
41 30 27 23 33 18 10 2 3 3 5 6 6 11 5 6 5 8 7 4 12 10 5 6 8 5 3 13 11 12 6 4 8 13 16 9 8 5 7 5 4 4 5 6
41 32 32 25 23 28 4 4 3 2 5 8 12 7 8 9 7 6 6 9 14 17 14 6 6 6 5 7 6 6 7 5 12 7 8 8 7 5 6 4 2 2 3 2
37 29 31 25 31 15 3 3 2 3 6 9 8 6 9 11 7 9 13 15 11 11 21 17 12 6 4 5 6 8 6 2 5 2 4 5 3 7 4 2 2 5 3 5
36 28 31 23 32 14 5 5 4 3 3 4 7 7 11 15 11 13 6 13 14 9 3 6 2 6 8 11 6 4 5 1 3 3 4 2 4 2 8 11 5 6 4 3
35 30 32 24 28 20 3 5 3 3 2 6 7 6 10 5 7 9 14 9 7 2 2 3 4 1 3 3 4 6 3 2 2 1 2 5 2 4 3 6 6 6 11 6
33 29 30 24 29 14 15 10 7 3 2 5 3 2 2 1 6 2 3 1 1 2 2 3 3 3 3 3 2 4 4 3 2 3 2 3 2 4 3 1 2 2 1 11
32 29 26 24 27 13 13 7 7 4 2 2 1 3 3 1 3 0 1 3 3 2 3 3 3 2 1 4 8 4 3 3 5 2 2 6 4 3 5 2 4 5 3 8
31 29 26 22 26 22 13 6 13 7 2 2 3 2 3 2 3 2 2 3 2 2 4 4 4 3 4 3 5 5 6 6 3 2 2 6 2 2 2 3 2 4 5 6
30 28 27 23 26 22 19 4 16 16 1 1 2 7 7 7 3 2 2 2 1 3 3 0 3 3 3 4 4 4 4 6 5 6 6 2 2 2 1 2 4 3 9 8
30 27 25 24 23 19 21 9 15 7 1 2 2 5 6 9 9 8 2 2 2 0 1 3 1 2 3 4 4 4 4 4 3 4 5 3 4 1 2 3 6 8 10 11
28 26 25 24 21 17 19 8 15 5 2 2 3 3 2 6 9 11 3 1 1 2 1 2 0 1 1 2 2 3 4 8 6 2 1 2 1 3 6 9 11 12 10 12
26 26 25 24 19 9 20 10 13 12 1 2 1 1 3 5 9 8 6 2 1 1 2 1 1 1 1 1 1 3 4 6 5 5 7 5 4 8 10 13 12 12 15 10
27 26 26 22 16 7 13 2 14 18 7 2 1 1 1 0 7 7 5 2 2 1 1 1 1 1 1 2 3 6 5 4 5 4 5 4 10 8 4 12 10 10 12 12
27 26 26 21 12 5 2 1 2 19 16 2 1 1 2 2 2 2 2 3 2 1 1 1 2 2 2 2 3 3 6 5 7 9 13 9 3 5 10 14 13 15 13 14
28 27 22 16 6 9 3 1 5 19 4 0 2 0 0 1 2 2 0 1 1 3 1 1 1 1 1 3 4 3 5 8 7 6 5 8 13 14 12 13 14 14 11 10
28 23 17 6 7 3 6 8 13 6 2 3 2 4 3 1 1 1 1 1 1 1 1 1 1 2 3 4 3 6 7 6 8 8 11 11 14 13 12 13 11 15 10 9
24 8 4 2 7 19 19 3 1 2 1 1 1 2 2 1 1 1 1 2 1 1 1 2 1 3 4 2 3 5 7 12 13 15 6 11 10 12 12 10 8 11 11 10
5 3 2 5 28 4 2 2 2 2 1 3 3 3 3 1 2 2 1 2 1 1 1 1 2 3 2 4 2 2 8 8 5 8 8 8 15 14 13 11 9 10 13 11
11 3 5 7 3 2 4 4 1 4 5 3 3 3 3 2 1 3 1 2 2 2 1 1 3 3 1 2 2 3 7 9 8 9 13 13 13 11 12 11 11 12 18 21
8 1 1 3 1 4 8 9 4 4 4 4 4 3 3 2 1 2 2 3 3 1 1 4 4 2 1 1 4 6 5 8 11 12 11 17 15 20 20 12 17 20 20 21
2 3 4 5 5 6 5 6 6 4 4 7 4 3 3 2 2 2 5 0 2 2 2 6 2 4 4 4 3 10 8 12 14 15 16 15 15 13 20 20 22 21 17 19
2 3 3 4 2 2 1 1 3 0 7 7 4 3 3 1 3 2 4 2 3 5 5 3 2 4 5 6 6 9 11 12 13 14 15 15 17 16 17 22 24 25 23 22
2 2 0 1 2 0 0 1 2 1 6 3 3 3 4 2 4 4 6 7 6 4 3 3 3 6 5 6 6 7 10 12 12 13 17 19 17 17 18 23 23 22 23 22
1 0 1 2 1 2 2 2 2 4 3 3 3 5 6 3 3 1 4 5 3 3 2 2 3 6 7 7 9 10 12 13 13 17 18 19 21 24 21 12 17 23 23 24

GFSNW_925_spd_030.txt.gz
Wind_Speed
37 38 33 30 17 11 14 3 4 27 45 7 5 4 7 5 7 2 2 4 8 5 9 5 8 11 8 9 7 11 13 4 7 17 8 17 23 20 18 7 8 6 4 7
35 37 28 27 11 8 4 3 2 28 27 5 6 5 5 5 6 8 7 8 9 11 7 6 9 11 7 8 12 10 9 4 4 4 5 9 15 17 22 14 3 16 6 7
35 36 29 27 19 6 11 4 5 4 5 3 7 8 7 7 7 8 8 5 11 10 7 12 4 6 6 14 13 19 13 5 7 8 1 7 10 22 22 18 6 10 11 17
33 36 35 31 22 24 12 3 2 4 10 7 9 12 8 13 7 7 9 4 14 8 7 6 10 15 14 4 11 12 9 5 8 14 22 16 18 22 24 26 12 12 23 25
31 35 35 33 25 26 11 2 4 2 6 14 11 13 10 10 8 9 5 8 11 16 12 8 5 6 6 5 11 11 7 4 5 7 8 16 14 17 19 16 13 22 15 2
30 35 37 31 24 21 3 3 2 4 7 8 8 6 9 11 8 12 11 15 13 14 21 17 18 6 11 6 6 10 5 3 4 6 1 14 8 18 14 18 20 8 2 2
29 33 36 30 26 23 11 6 3 3 5 8 9 9 13 15 15 11 8 12 13 4 4 6 7 11 9 6 8 8 5 3 4 3 5 3 4 3 6 6 7 6 6 3
29 32 34 27 25 26 16 4 3 3 2 3 8 9 4 7 12 15 11 14 9 6 8 3 1 2 5 2 2 6 8 2 3 2 2 4 4 5 3 4 3 6 7 6
26 30 32 29 28 28 9 2 4 3 3 6 2 4 4 3 2 7 8 1 3 6 3 3 4 3 4 3 2 2 4 3 2 3 2 1 2 2 1 1 2 0 3 8
26 30 33 29 28 28 23 5 7 4 3 2 3 2 2 2 1 3 1 2 4 4 5 2 3 3 2 3 5 4 3 1 2 2 2 6 4 2 2 2 4 2 2 7
25 28 31 27 27 25 22 5 8 3 1 1 3 4 4 2 3 2 1 2 2 2 4 3 4 3 4 2 3 4 4 5 2 2 1 5 3 3 2 3 2 2 2 3
25 28 28 25 26 23 20 3 10 8 2 2 2 7 6 7 5 2 3 2 2 3 3 2 3 2 2 2 3 1 4 5 4 7 5 1 3 1 1 2 2 3 5 9
23 26 25 24 25 23 19 8 13 5 1 2 1 5 8 13 13 12 2 2 3 2 1 3 2 2 4 4 5 4 4 3 2 1 2 2 2 2 3 4 4 7 9 12
22 26 25 25 25 22 20 8 14 5 1 2 3 2 2 4 10 11 8 3 2 2 0 1 2 2 2 2 1 2 4 5 4 4 3 0 2 1 5 7 10 12 9 10
23 25 24 23 24 20 15 10 14 10 1 1 2 0 3 4 8 7 8 4 2 1 2 2 3 1 2 1 1 3 4 5 4 5 5 4 2 8 8 11 10 11 15 11
22 24 23 23 22 16 11 1 11 16 6 0 2 1 1 3 9 5 3 2 1 1 1 2 1 1 2 1 3 5 6 5 3 1 4 4 8 7 4 10 9 9 11 13
25 26 24 22 16 13 4 1 2 22 12 1 1 1 2 2 4 2 2 3 2 1 2 0 2 1 3 2 3 3 1 6 5 8 10 7 1 5 9 14 12 13 12 13
28 27 24 19 14 10 6 1 9 19 4 0 1 1 1 2 2 1 1 2 0 1 0 1 1 1 1 3 5 1 4 7 6 5 3 8 13 13 11 13 14 14 11 11
30 29 17 6 6 3 6 7 17 8 2 2 2 3 2 2 1 1 1 0 1 1 1 1 0 2 4 5 4 5 6 4 8 7 9 12 14 13 11 13 11 15 10 9
28 3 4 2 4 20 17 2 1 1 1 1 2 1 1 0 0 1 0 2 1 1 1 3 1 3 3 2 1 2 7 10 12 14 6 10 9 12 12 10 9 11 10 10
1 2 1 2 24 3 2 2 3 2 2 3 3 3 3 1 2 2 1 1 1 0 1 1 2 4 3 3 2 2 7 9 3 5 7 7 16 15 13 10 9 10 12 10
10 15 11 3 2 2 3 3 1 3 5 3 3 3 3 2 1 2 1 2 1 2 1 1 3 3 1 3 2 2 5 7 6 6 13 12 12 12 13 12 10 11 17 19
5 3 1 2 1 4 7 9 3 3 4 4 3 3 3 2 2 3 2 2 2 1 0 4 4 2 2 1 3 5 6 8 8 11 11 16 13 20 20 13 17 20 18 19
2 2 4 4 4 5 3 4 5 3 4 7 4 2 3 2 3 2 4 1 2 1 2 6 2 5 3 3 2 6 7 9 12 13 14 15 15 13 17 20 21 21 18 21
2 2 3 3 1 1 2 2 1 1 5 7 4 3 2 2 4 2 4 2 3 5 5 3 3 4 4 4 5 7 9 10 11 13 14 15 17 15 15 17 23 24 24 22
1 1 2 1 0 1 1 1 0 1 4 2 2 3 3 2 4 3 6 7 6 4 3 2 3 6 5 6 6 6 8 11 12 11 16 19 18 17 17 23 23 22 24 22
2 1 1 2 1 2 1 2 3 2 3 2 3 4 6 3 3 2 4 5 3 2 2 2 2 5 7 6 8 9 11 12 12 18 19 20 22 24 22 13 16 23 23 23

GFSNW_925_spd_033.txt.gz
Wind_Speed
31 32 32 38 28 14 3 3 2 24 39 4 2 5 7 5 6 1 2 3 4 8 8 7 8 8 7 8 8 10 10 4 8 20 7 15 20 15 12 6 7 7 2 10
30 32 33 32 30 12 3 3 2 26 30 5 5 7 4 3 5 5 4 6 8 9 4 5 10 6 9 8 10 10 10 5 5 4 5 10 10 13 14 16 2 10 9 10
27 29 32 31 28 16 6 2 2 4 6 2 13 7 7 6 3 4 5 5 8 7 6 11 4 5 5 9 13 11 13 5 8 11 10 1 6 14 17 19 11 8 15 20
25 28 30 31 27 25 14 2 3 4 7 6 12 7 11 12 7 7 10 6 11 7 6 8 11 11 12 9 9 10 9 8 12 18 20 16 4 12 20 23 22 14 10 21
25 27 31 34 30 31 6 3 3 3 8 14 11 13 8 14 11 9 5 9 10 14 8 10 3 6 6 7 5 9 5 6 4 17 20 23 10 14 22 21 24 16 13 21
24 25 30 34 25 22 3 2 3 2 9 11 9 7 7 12 10 10 11 15 12 12 15 16 16 6 10 7 4 8 4 3 3 6 6 7 6 16 24 19 20 21 13 20
23 23 26 29 25 21 15 5 6 2 4 9 10 8 11 7 12 9 9 12 9 4 1 5 10 13 14 13 15 12 5 4 3 4 2 3 4 18 19 20 14 13 13 19
23 23 25 28 28 25 22 12 3 2 4 7 8 9 6 7 7 11 14 11 7 2 1 3 2 1 3 6 7 13 10 2 4 4 3 2 4 9 9 11 12 22 24 20
23 24 26 30 28 28 25 10 7 1 4 4 5 9 5 3 4 2 4 3 4 6 4 4 5 4 4 3 2 5 3 5 3 3 3 2 2 3 8 12 3 13 19 13
22 22 24 29 26 28 25 3 4 2 3 2 4 3 3 4 2 2 3 3 5 11 7 4 3 4 4 3 4 3 3 2 3 2 3 6 4 5 2 3 4 2 3 6
21 23 24 28 26 26 23 8 1 3 2 1 2 4 4 3 2 3 2 3 3 3 5 4 4 3 5 2 2 4 5 5 3 2 2 4 5 4 3 1 2 2 3 3
21 22 23 25 25 26 21 3 9 3 2 1 2 4 5 6 5 3 4 2 3 3 3 2 2 2 2 4 2 1 4 5 4 6 4 3 3 2 2 1 1 1 3 6
22 22 22 25 23 24 17 9 9 4 1 2 1 4 10 15 15 13 2 2 3 3 1 2 1 3 3 4 4 4 4 4 2 1 1 2 3 2 4 5 4 6 7 9
19 21 21 22 23 24 18 6 9 3 2 1 2 1 3 4 13 13 10 2 5 2 0 3 2 1 2 2 2 2 3 4 3 4 5 4 4 1 5 7 8 12 9 9
22 21 22 23 23 24 18 4 13 6 1 1 2 2 2 4 9 9 8 5 4 2 2 3 3 2 2 1 1 3 4 6 4 4 3 2 0 6 7 8 8 8 13 12
23 24 23 23 22 19 8 1 8 14 3 1 2 2 1 3 6 5 3 3 3 1 1 1 1 1 2 1 2 5 3 4 3 3 3 3 6 6 3 9 8 9 8 12
24 25 25 23 20 14 4 2 3 13 7 1 2 1 1 3 3 1 2 2 2 1 1 1 1 1 1 2 3 4 6 4 4 6 8 5 0 4 7 12 12 13 12 12
25 26 26 24 16 11 7 5 6 17 4 1 1 2 1 1 1 1 1 2 1 0 0 0 1 1 0 3 7 3 0 5 6 5 3 6 11 12 10 12 13 13 10 10
31 28 18 4 5 2 2 6 16 8 2 2 1 2 2 2 1 0 0 1 1 1 1 1 1 2 4 6 6 4 6 3 7 7 9 9 12 12 11 12 10 14 9 9
16 2 2 1 4 9 15 2 3 2 1 1 1 2 1 0 0 1 1 2 1 0 1 1 2 3 4 2 1 1 7 9 10 12 6 7 7 11 11 8 8 11 10 9
8 2 2 9 7 4 1 2 1 1 1 3 3 3 3 1 1 1 1 1 1 1 2 1 2 4 3 2 2 1 6 8 3 3 7 5 13 15 13 10 9 11 11 11
8 10 8 5 1 2 3 4 1 4 5 3 4 3 3 1 1 2 2 1 1 3 2 1 3 4 2 2 3 2 6 7 5 3 10 12 12 12 13 12 11 11 17 20
4 3 2 1 2 4 6 7 3 3 3 4 3 3 3 2 2 2 1 1 2 1 0 3 4 2 3 2 1 4 5 7 8 9 9 13 11 16 18 12 17 21 19 18
2 2 3 3 3 3 2 2 3 2 2 6 3 3 2 2 2 2 3 1 2 2 2 5 3 4 3 1 2 5 6 7 9 10 12 14 14 12 17 18 20 22 19 22
2 2 3 2 1 1 1 0 2 2 1 4 3 3 2 2 3 1 3 1 3 5 4 3 3 2 2 3 3 6 7 8 9 11 12 14 16 14 16 19 23 24 23 23
1 2 2 2 1 1 1 1 1 2 1 2 3 3 3 3 4 3 6 6 6 4 3 3 1 4 3 4 5 6 6 8 10 10 14 18 18 16 18 23 23 23 24 22
2 2 0 1 2 2 1 1 2 1 1 3 3 5 5 3 2 2 4 5 3 2 2 1 1 4 6 6 7 7 9 10 11 16 18 20 24 24 23 13 17 24 23 24

GFSNW_925_spd_036.txt.gz
Wind_Speed
29 29 31 34 35 35 3 0 2 13 39 6 3 4 7 5 5 2 3 3 4 5 6 7 8 8 6 8 8 10 9 3 6 11 12 14 15 15 19 5 5 4 3 14
28 26 30 33 34 27 6 3 2 19 26 5 5 6 4 3 4 3 3 3 3 3 6 3 8 4 6 9 11 12 10 4 5 7 1 5 7 12 14 16 3 14 6 11
26 25 28 31 35 22 11 1 1 4 2 3 7 7 5 5 3 4 4 3 4 3 5 8 3 5 3 8 11 10 12 5 8 11 19 11 7 13 17 16 7 13 18 19
26 25 27 30 33 27 14 2 1 3 6 2 7 4 6 5 5 2 5 5 9 8 4 5 7 11 9 6 7 8 7 7 9 21 26 27 24 12 18 19 26 10 17 18
23 24 26 29 32 33 1 1 2 2 6 8 11 5 6 13 4 8 6 7 6 9 6 6 4 4 4 5 4 8 6 4 4 19 20 19 19 16 17 22 20 22 19 18
22 23 24 27 28 26 4 5 4 1 10 6 6 6 7 7 7 6 5 9 9 10 14 15 15 9 5 6 3 5 3 2 3 11 10 11 5 8 15 14 14 18 15 19
21 23 24 25 27 25 15 7 1 2 5 10 6 9 8 7 10 7 4 10 9 3 1 6 9 12 13 11 13 10 6 3 3 6 7 5 4 5 13 17 12 16 12 14
20 22 23 24 27 26 23 10 4 2 3 6 11 8 11 6 6 9 8 6 4 5 3 3 3 1 4 8 12 12 15 5 4 4 4 6 5 2 4 5 6 16 17 17
22 21 22 24 28 26 27 19 9 3 3 6 4 7 6 4 4 3 4 1 5 5 2 3 3 3 3 3 2 3 8 11 3 4 4 3 3 4 5 3 5 9 15 15
21 22 24 22 27 27 28 10 10 4 3 1 4 4 5 3 3 1 1 2 4 10 6 3 3 4 2 3 2 3 3 3 6 2 3 6 2 3 6 4 3 2 10 13
19 21 22 21 26 27 27 16 7 3 2 1 1 4 4 2 3 3 2 2 4 4 5 4 3 4 6 2 3 3 5 4 3 3 3 3 3 2 2 1 3 2 1 4
19 20 21 21 23 24 24 6 6 4 1 2 1 3 3 5 6 4 4 2 1 3 3 3 3 3 2 3 2 1 3 5 3 6 5 3 2 3 3 4 3 1 3 3
20 21 22 21 22 21 20 12 10 1 1 2 1 4 4 10 10 10 3 2 3 2 1 1 1 4 3 4 4 3 3 3 2 3 2 4 2 1 3 3 3 4 5 9
21 23 23 23 23 23 20 12 11 4 1 1 2 1 1 4 13 17 13 2 0 3 2 2 2 2 3 2 2 3 3 4 3 5 7 5 4 2 3 4 7 9 9 8
22 23 23 24 24 24 23 16 8 4 1 1 2 1 1 3 8 9 6 2 2 2 2 2 3 1 2 1 1 3 4 6 4 5 4 3 1 5 6 6 6 7 12 11
24 25 25 23 23 22 12 2 7 10 1 1 2 1 2 2 6 5 3 3 3 2 1 2 2 1 2 2 2 5 4 3 3 2 3 3 6 6 3 7 7 8 9 10
26 27 24 22 21 18 5 5 2 5 2 1 2 2 1 4 3 2 2 2 2 2 1 2 1 1 2 2 4 4 4 5 4 5 7 4 3 5 7 11 12 13 12 12
30 28 27 24 19 13 9 6 6 11 2 0 1 2 2 1 1 1 2 2 1 2 1 1 1 1 1 4 8 5 2 5 5 3 2 2 10 11 9 10 14 13 11 11
32 25 12 3 4 3 3 4 11 6 2 1 1 2 2 2 0 0 1 0 1 1 1 0 1 2 4 7 6 5 6 5 7 5 7 7 10 12 9 9 11 15 10 10
16 4 2 2 2 7 15 5 1 2 2 0 2 1 2 1 0 0 0 2 1 1 1 2 2 4 5 4 2 1 6 9 10 10 5 6 7 10 11 6 7 11 10 10
8 4 3 10 6 2 1 1 1 2 2 3 3 3 3 1 1 1 1 1 0 1 2 1 2 4 3 4 2 2 4 8 3 2 5 5 10 13 13 10 10 11 12 12
8 10 8 6 2 1 3 3 0 3 3 2 3 3 2 1 1 2 1 0 1 3 3 1 3 3 2 3 4 4 3 6 4 3 8 10 12 11 11 12 11 12 19 21
4 1 2 1 1 2 5 5 2 2 2 2 1 1 2 1 1 2 1 0 2 1 0 3 4 3 2 1 2 4 5 6 7 8 8 12 13 16 17 13 18 21 19 18
2 2 3 2 2 2 1 1 2 1 2 2 3 2 2 1 2 1 2 1 1 1 2 5 3 3 1 2 2 4 4 7 8 9 11 13 14 13 19 20 21 23 20 21
2 1 2 2 2 1 1 2 1 1 2 1 2 2 2 1 2 1 2 0 3 5 4 3 3 3 1 2 3 6 6 6 8 9 11 12 15 15 16 19 24 26 25 25
0 1 2 2 1 1 1 1 2 1 1 1 2 2 2 3 3 3 6 5 5 3 3 2 1 2 2 3 5 6 6 8 9 9 13 17 16 15 18 22 23 23 24 24
2 1 1 1 2 2 2 1 2 1 1 2 2 5 6 2 2 3 4 5 3 2 2 1 2 2 4 5 6 7 8 9 10 14 17 19 23 25 24 14 16 24 26 27

GFSNW_925_spd_039.txt.gz
Wind_Speed
28 27 28 29 34 39 17 5 2 7 25 4 2 3 4 3 3 6 5 4 4 5 7 5 6 7 4 6 8 9 8 3 5 12 9 14 15 12 18 9 8 6 10 17
26 26 28 28 33 34 9 5 2 14 7 3 3 4 1 2 3 3 3 3 3 2 4 4 5 5 4 8 8 9 8 4 4 9 2 2 8 15 22 12 8 10 3 9
25 24 26 28 33 36 19 2 2 4 3 3 7 3 4 4 3 4 4 4 4 5 3 2 2 4 3 10 8 9 10 5 7 10 14 7 12 14 15 17 8 13 16 21
24 23 25 27 31 36 12 1 1 2 2 1 9 5 3 7 4 2 3 3 3 5 3 3 5 7 5 6 11 8 7 6 9 20 24 25 26 27 22 20 26 10 16 18
23 22 26 26 30 34 7 3 2 1 5 6 12 4 5 7 4 6 4 4 7 5 4 5 3 4 6 4 3 8 6 4 5 18 22 21 21 18 16 16 21 18 21 24
22 22 24 23 27 28 5 6 3 2 7 6 4 4 6 10 7 3 5 7 4 7 12 10 11 8 6 3 1 9 4 3 3 7 13 23 4 5 7 4 7 15 14 15
21 22 21 20 23 26 13 8 5 1 2 4 7 7 4 8 9 5 3 5 5 1 4 2 3 7 10 10 13 9 6 5 3 7 13 4 2 2 6 10 9 15 11 10
20 21 21 21 21 24 20 15 4 2 2 5 7 8 5 4 4 3 5 5 4 7 2 2 2 2 2 9 18 17 15 7 4 3 4 8 3 4 2 2 6 16 14 13
20 20 21 22 21 25 25 23 8 3 2 7 8 6 5 4 4 2 3 3 5 3 3 3 3 4 3 3 1 6 10 13 6 2 4 4 3 6 1 3 4 4 9 9
20 20 21 22 22 25 29 12 6 5 2 1 4 4 6 4 3 2 2 3 3 7 4 4 3 3 3 3 4 4 4 4 11 8 3 7 4 7 1 4 5 4 6 5
18 20 22 23 22 24 25 18 8 5 1 2 2 2 4 3 3 3 3 1 2 3 4 4 4 4 5 1 3 4 5 5 3 3 3 6 3 2 2 2 4 5 3 6
20 20 21 22 22 23 22 7 21 15 1 2 1 2 1 3 7 4 3 1 2 3 3 3 2 3 2 3 3 1 3 5 4 6 5 5 3 5 3 2 4 3 4 1
21 20 20 21 22 23 20 16 20 5 2 2 1 3 2 5 7 11 4 3 4 3 1 2 2 5 4 4 5 3 3 3 2 2 3 6 6 3 3 3 3 4 1 3
21 21 21 22 22 22 21 14 16 9 2 0 3 1 2 3 9 9 7 3 2 2 1 2 2 2 3 3 2 3 4 5 4 5 7 5 5 2 4 4 4 6 8 6
23 21 21 21 22 23 26 20 13 12 2 2 2 1 1 2 4 9 9 6 3 2 2 3 3 2 2 1 0 3 5 6 4 4 2 0 1 3 4 5 5 7 11 11
23 21 22 21 18 18 15 2 1 3 4 1 2 0 1 1 2 3 2 2 2 1 2 2 2 1 3 2 3 4 5 3 4 2 3 3 4 5 3 6 6 9 12 11
24 24 23 19 16 14 5 5 3 7 9 1 2 2 1 4 2 1 2 2 1 1 2 2 1 1 3 2 4 4 5 5 5 3 7 3 3 3 7 9 10 13 14 14
27 27 21 16 11 10 9 10 6 6 3 1 1 2 2 4 2 2 3 2 2 3 1 1 1 0 2 4 7 5 4 3 2 4 2 1 10 9 10 8 11 12 13 11
29 12 3 4 4 3 3 4 6 8 2 1 1 1 1 1 1 0 1 1 2 1 2 1 1 2 5 6 3 3 6 6 6 5 6 7 10 9 10 10 8 15 10 10
13 5 3 1 2 8 4 4 2 2 1 1 2 1 2 2 0 1 1 1 1 1 0 2 2 4 5 1 2 2 3 7 10 7 5 6 6 10 12 9 8 13 11 11
7 3 2 10 8 0 1 1 2 1 2 2 3 4 2 1 2 1 0 1 1 1 1 2 2 3 3 5 2 3 2 7 3 1 2 7 11 13 13 11 9 12 14 13
8 8 6 6 3 2 2 2 0 2 3 1 2 2 1 0 1 1 1 1 1 3 2 1 3 3 2 3 3 4 2 6 3 2 7 10 13 11 12 13 12 14 21 22
2 1 2 1 0 2 4 5 2 2 1 1 0 1 0 0 2 2 1 1 2 1 1 3 4 2 2 2 1 3 4 5 6 7 7 12 12 18 19 14 19 23 22 21
1 1 1 1 1 2 1 1 1 1 2 2 1 2 1 1 2 1 0 1 1 1 2 5 3 2 2 2 0 4 5 6 7 8 10 13 14 13 19 21 23 25 21 21
0 1 1 2 2 1 1 1 1 2 1 1 1 2 2 2 2 2 1 1 4 5 4 3 3 3 2 2 1 4 5 6 6 7 9 11 14 14 16 19 22 25 25 25
1 0 2 1 0 1 2 2 2 1 1 0 1 2 2 3 3 3 5 4 5 4 3 2 2 2 1 1 2 3 5 6 7 7 12 15 15 14 18 21 21 22 25 26
1 1 0 1 2 2 2 2 2 3 1 2 2 4 7 2 2 3 4 5 3 2 2 2 2 3 2 2 4 5 6 6 7 12 15 17 22 25 24 14 17 25 25 26

GFSNW_925_spd_042.txt.gz
Wind_Speed
27 26 26 29 30 34 21 2 1 1 23 3 1 3 4 7 12 3 4 6 10 15 13 12 8 8 3 7 11 10 12 4 7 15 11 14 15 12 19 7 8 9 12 22
25 26 27 27 30 34 22 2 3 5 4 4 2 4 2 4 4 2 3 4 3 5 10 6 7 6 5 12 10 11 10 5 4 4 5 4 8 14 20 18 13 22 15 14
24 25 26 30 30 35 20 0 1 2 2 1 6 5 4 5 4 3 6 8 8 9 8 3 6 6 4 11 10 8 11 5 8 9 11 9 9 16 15 16 10 22 22 31
23 24 25 29 30 38 14 2 2 2 3 2 5 5 7 10 5 2 3 4 6 5 4 5 4 6 3 4 8 9 9 5 12 18 22 22 23 25 26 19 23 16 29 20
22 23 24 27 28 35 7 3 2 4 3 9 12 6 9 14 4 3 3 6 8 5 4 5 6 5 6 5 11 10 7 4 8 13 20 20 21 21 20 17 12 16 22 24
21 22 22 25 24 28 4 2 4 1 6 7 9 5 12 10 9 3 2 7 7 7 6 5 4 5 3 3 4 13 5 4 3 8 13 23 5 4 10 8 7 7 9 13
19 20 20 23 21 23 15 7 5 1 3 5 5 7 7 11 5 5 4 7 5 3 1 2 2 7 10 11 14 9 5 5 2 7 14 3 5 4 8 8 11 13 14 14
18 18 20 19 20 19 19 13 4 3 3 4 7 6 5 8 6 4 4 5 4 8 4 1 2 3 2 9 16 17 14 6 3 4 7 15 1 2 6 3 5 9 14 12
17 18 19 21 20 21 20 14 3 2 3 5 5 10 8 5 6 4 3 4 8 4 2 3 3 4 3 3 5 5 10 10 5 3 5 4 4 4 2 3 4 11 7 7
16 18 18 20 20 22 21 8 8 4 3 2 4 4 8 4 5 3 3 5 4 5 3 4 3 4 2 3 3 4 4 3 12 10 5 9 6 4 3 4 5 5 7 5
18 18 18 19 20 23 23 12 5 5 3 1 2 3 4 4 4 4 4 3 2 2 4 3 3 5 5 3 2 6 7 6 4 4 5 7 1 2 5 3 3 4 1 4
17 17 17 17 18 19 19 5 20 16 4 2 1 1 1 1 2 4 5 1 3 3 4 3 4 4 3 3 2 3 4 6 2 7 5 3 2 5 4 2 6 5 3 3
18 18 17 17 18 17 15 13 18 6 2 1 1 2 1 3 4 6 4 2 4 3 1 2 3 4 2 4 5 3 5 5 4 3 3 8 3 2 1 2 2 3 3 4
18 18 18 17 18 17 15 11 13 6 3 2 0 1 2 3 6 6 3 5 4 2 1 1 2 3 4 2 2 3 1 5 5 6 12 10 2 2 1 2 5 6 6 4
20 18 19 16 17 16 18 19 12 11 2 2 2 0 2 2 3 7 6 6 3 2 2 4 3 1 1 1 1 4 5 5 4 3 2 3 3 3 2 2 5 7 10 11
21 20 20 18 15 12 9 1 6 6 2 2 2 1 1 1 2 4 3 2 2 2 3 3 2 1 3 3 3 6 8 5 6 2 2 2 6 4 5 6 7 9 11 12
24 23 21 17 13 9 5 3 3 5 12 2 2 2 1 2 2 1 1 2 1 2 2 3 1 1 2 3 11 6 5 8 7 5 5 3 4 3 6 11 10 10 15 15
27 24 15 9 7 7 8 4 6 8 4 1 2 2 1 4 2 2 2 2 2 4 2 1 2 2 3 5 10 8 5 3 4 4 3 4 10 11 10 12 9 11 13 12
26 11 5 4 2 3 3 8 3 8 2 1 1 1 1 2 2 1 2 2 3 2 2 2 1 3 5 6 6 3 4 5 4 6 8 8 9 10 6 13 9 11 13 13
12 3 2 1 2 9 2 3 2 1 2 1 2 1 1 2 0 0 1 0 0 2 1 2 3 4 9 2 2 2 3 6 11 8 5 7 6 9 10 9 8 10 13 14
5 4 2 9 8 1 0 1 1 1 2 2 1 2 1 1 1 1 1 1 1 1 1 2 2 3 2 3 3 1 2 7 5 2 4 6 11 14 14 11 12 11 14 15
7 8 6 6 3 2 1 2 1 2 3 1 1 1 2 1 0 1 0 0 0 2 2 2 3 3 2 3 3 2 2 7 4 1 5 10 14 14 12 13 13 16 20 23
1 1 1 1 1 2 4 5 2 2 1 2 1 1 1 1 0 1 1 1 2 1 2 3 4 2 3 2 3 2 1 3 5 6 8 13 12 18 19 14 19 23 22 21
1 0 0 2 2 1 1 1 1 1 2 2 1 1 1 0 2 0 1 1 1 2 2 4 1 2 4 3 2 1 1 2 6 7 10 13 13 13 19 20 24 24 21 21
1 1 2 2 1 1 1 1 2 2 2 1 1 1 1 1 2 1 1 1 3 4 4 2 2 4 4 3 2 0 3 4 6 8 10 12 15 14 16 19 20 22 24 22
0 1 1 0 1 1 0 1 1 1 2 1 0 1 1 2 2 2 4 2 5 2 2 2 3 2 2 3 1 1 3 5 6 7 11 15 16 15 18 21 21 22 24 24
2 1 0 1 1 2 1 2 1 2 2 2 1 4 2 2 2 3 4 4 2 2 2 2 3 4 3 1 0 3 5 7 8 12 12 14 18 22 22 15 18 20 20 20

GFSNW_925_spd_045.txt.gz
Wind_Speed
27 26 27 29 31 32 23 1 0 8 21 3 2 4 5 6 11 4 3 8 6 16 17 11 11 12 2 10 11 13 9 3 5 11 8 8 14 11 16 6 7 7 10 20
25 25 26 29 31 33 20 2 1 2 10 3 2 5 1 5 4 2 3 5 2 12 15 7 5 8 7 10 12 11 10 5 3 3 3 7 9 16 17 17 14 22 14 15
24 24 26 28 30 35 13 2 2 2 2 4 6 6 2 5 5 4 8 9 12 14 12 4 10 9 4 8 9 8 8 4 7 4 8 6 5 13 16 14 7 22 23 33
23 23 25 27 29 32 10 2 2 1 3 3 6 4 3 12 4 3 2 4 5 10 5 6 5 8 7 6 5 7 5 5 10 16 20 20 19 20 19 18 20 15 30 26
22 22 23 25 26 26 5 3 3 4 1 7 8 6 10 7 5 1 2 7 9 4 5 0 5 8 7 5 9 8 4 4 6 12 19 18 16 18 20 19 18 15 16 21
20 21 22 23 24 22 5 5 4 3 2 4 7 4 8 11 12 1 3 9 7 4 4 3 4 2 2 4 7 11 5 2 3 5 9 17 6 6 6 9 12 7 9 10
20 19 21 22 21 19 8 5 4 2 1 3 6 5 6 12 8 5 5 6 3 4 2 3 2 3 4 6 9 8 6 8 3 6 11 3 8 4 4 8 10 9 14 14
18 19 20 21 21 20 15 8 3 2 2 4 4 8 7 9 6 8 8 4 5 7 4 2 2 3 2 8 11 14 10 3 3 3 6 14 8 2 5 2 3 8 11 9
20 20 20 19 20 22 25 9 4 3 2 6 7 6 7 6 6 4 4 3 5 3 2 1 1 3 3 3 4 8 10 9 3 3 4 3 2 4 2 3 2 10 9 11
21 20 19 19 19 19 23 7 7 3 2 4 6 5 6 1 4 2 4 4 4 2 3 2 2 3 3 4 5 5 5 3 8 8 5 8 9 3 4 4 5 6 5 9
20 19 18 19 17 19 19 11 4 4 3 5 3 3 4 5 5 4 4 3 2 2 4 2 3 4 5 5 4 7 8 8 4 4 5 8 1 2 5 4 2 2 2 4
20 19 19 19 18 17 15 5 11 15 3 3 3 4 3 2 4 2 5 3 3 3 3 2 3 4 3 7 4 7 5 6 4 7 6 7 1 7 8 5 6 3 4 3
21 20 19 18 16 16 14 12 14 5 3 3 2 3 2 1 0 1 2 1 4 3 2 1 2 6 3 5 7 5 7 7 5 3 5 9 7 7 1 3 5 3 3 5
21 20 19 17 16 15 14 11 10 6 3 2 2 1 1 2 1 1 2 1 4 3 1 2 3 4 4 4 3 5 3 6 5 11 16 9 6 5 4 3 3 5 2 4
22 22 19 19 17 15 16 16 15 11 2 3 3 3 1 1 2 4 4 5 4 2 3 3 4 2 1 3 3 8 7 8 5 5 6 4 5 4 4 4 4 4 7 9
23 23 22 19 15 11 8 2 2 5 6 2 2 2 2 0 1 4 4 3 4 2 2 3 3 3 4 3 4 6 8 10 8 7 3 3 3 6 7 7 7 7 9 10
25 25 23 18 12 11 5 3 2 4 9 2 3 2 2 3 2 1 2 3 1 2 2 3 3 2 2 4 12 8 3 5 4 4 3 2 5 3 8 10 10 10 10 14
27 26 17 6 6 7 8 6 3 10 3 2 2 2 2 4 2 2 2 2 2 3 2 1 2 1 2 5 10 11 8 10 5 6 5 2 9 10 9 10 11 10 10 12
27 14 2 4 2 3 3 7 2 10 3 2 2 2 1 2 2 1 2 2 3 2 3 2 1 3 5 10 9 6 4 2 1 3 4 7 9 9 8 7 10 10 10 11
10 3 3 1 1 9 6 3 2 2 2 2 2 2 1 2 0 0 1 0 1 2 1 1 3 6 11 11 4 2 1 3 7 6 4 5 4 8 10 6 8 9 9 10
4 3 2 6 7 2 0 2 1 1 2 3 1 2 3 1 2 1 1 1 1 1 1 2 2 3 1 3 4 5 6 5 8 5 2 8 8 11 11 9 8 11 13 11
6 7 6 5 2 1 1 2 1 2 2 1 2 1 2 0 0 1 0 1 1 2 2 2 3 1 4 5 5 5 5 4 7 1 5 6 11 13 12 11 12 14 17 19
2 1 2 1 0 3 3 5 3 2 1 2 2 0 2 2 2 1 0 1 2 0 2 3 3 3 4 5 5 4 3 1 1 2 3 7 9 15 14 12 17 20 19 18
1 2 2 3 3 2 0 2 2 2 1 3 2 2 1 1 1 1 2 0 1 2 2 4 2 5 6 6 5 4 2 3 3 4 6 8 9 9 15 17 20 22 20 20
1 1 3 3 1 0 0 1 1 1 2 2 1 1 1 1 1 1 1 1 3 3 3 2 4 6 5 6 6 4 1 2 3 4 6 8 11 11 13 17 20 22 23 22
1 2 2 1 1 1 1 1 1 1 3 1 0 1 1 2 1 2 4 2 4 1 3 4 6 7 6 6 5 4 3 1 4 5 7 10 12 12 15 19 19 20 22 22
2 2 1 1 1 1 1 2 2 4 2 2 0 3 2 1 2 3 2 2 3 5 6 5 6 7 8 7 6 3 1 1 4 7 10 12 16 19 18 13 17 18 19 21

GFSNW_925_spd_048.txt.gz
Wind_Speed
25 27 29 32 33 35 18 3 2 5 18 2 1 2 4 3 1 7 1 3 11 13 14 11 7 9 4 13 11 11 6 3 3 8 8 12 11 6 8 3 4 4 2 7
25 27 29 31 33 32 17 2 1 2 4 1 1 1 2 1 2 5 2 5 9 15 11 8 6 11 5 6 10 12 7 3 2 3 2 6 4 6 9 10 4 12 6 6
24 25 27 31 31 32 9 2 2 2 1 3 4 3 2 4 3 8 4 6 15 15 6 8 9 8 3 4 3 8 10 4 4 2 4 2 3 6 7 6 5 13 19 25
22 24 26 29 33 31 6 2 2 3 2 2 4 1 2 6 2 4 6 4 11 12 6 11 10 10 8 3 4 4 4 3 5 10 13 9 10 10 13 15 20 12 23 23
22 23 25 27 31 24 4 3 3 3 3 0 1 3 3 6 3 7 3 7 9 2 5 6 10 11 6 5 5 5 3 2 4 5 12 12 12 16 16 19 19 16 19 24
20 21 24 25 27 25 5 4 4 3 5 4 3 3 7 5 2 8 7 8 6 9 8 8 8 7 5 7 8 8 6 3 1 3 7 9 8 9 9 4 7 8 9 17
20 21 22 23 25 25 16 3 2 2 3 5 2 3 3 10 6 3 3 3 4 2 2 6 5 6 5 3 3 5 5 5 2 4 8 4 2 6 6 7 8 8 13 14
21 20 20 21 21 22 22 9 2 2 2 4 3 3 2 9 7 8 7 8 6 4 4 1 4 2 3 7 7 8 5 2 2 2 5 9 3 4 1 1 3 4 8 12
20 20 19 19 20 21 23 8 5 2 3 1 7 3 4 2 4 3 3 5 5 3 1 1 2 2 4 4 4 6 6 5 0 3 3 3 2 4 4 7 2 4 1 8
20 19 18 19 18 20 20 7 11 3 2 4 4 1 1 1 1 2 4 4 2 3 1 1 1 2 4 2 7 4 4 2 6 4 3 6 7 7 6 1 4 3 1 5
18 19 18 18 18 18 18 15 5 5 2 6 4 3 4 1 2 1 3 3 1 1 2 1 2 2 3 2 5 7 6 6 3 3 3 7 1 3 0 2 2 3 3 1
18 18 18 17 17 15 15 6 11 15 4 4 6 10 8 3 4 1 2 1 3 2 1 0 2 3 2 4 3 7 5 6 5 6 6 7 4 6 2 3 2 3 2 4
19 18 18 16 16 14 11 13 14 5 3 3 2 3 4 1 1 1 2 1 3 2 1 2 2 4 2 2 4 3 4 8 3 4 5 9 4 6 6 5 4 4 2 3
20 19 19 17 15 15 14 12 11 9 3 2 1 1 2 2 1 2 1 4 6 4 1 2 2 3 3 3 4 3 1 1 4 6 9 2 6 5 4 4 5 3 1 3
21 20 19 18 17 13 15 18 16 15 4 2 4 8 4 3 3 3 2 4 4 2 2 2 3 2 2 3 3 4 4 5 4 3 3 1 2 3 4 5 3 3 3 5
22 21 21 19 16 10 8 2 1 10 9 2 2 1 4 2 2 2 3 4 2 3 3 2 3 4 2 3 3 7 6 8 5 0 3 5 6 6 6 5 5 6 5 7
24 24 22 17 11 11 5 2 2 3 5 2 3 2 2 2 2 1 1 2 1 2 2 3 2 1 1 3 5 6 7 5 1 6 6 3 7 5 7 7 7 10 9 9
26 24 14 5 6 7 8 9 6 9 3 2 1 3 2 2 1 1 2 2 2 2 2 2 3 2 3 4 7 7 7 2 3 5 4 4 9 10 8 7 7 9 8 7
27 14 3 3 2 3 3 5 7 11 3 2 2 1 2 1 1 1 1 2 2 1 3 2 0 3 5 5 5 7 4 3 2 6 6 7 6 7 7 7 7 10 9 9
7 2 2 2 3 6 5 4 2 3 2 2 2 2 2 3 1 1 1 1 1 2 1 1 3 3 10 7 5 5 5 4 6 4 1 4 3 7 7 7 6 9 11 11
4 3 1 5 7 3 2 2 1 2 2 2 2 1 2 1 1 1 1 1 1 1 1 2 2 3 2 6 7 6 5 6 6 4 1 7 8 10 9 8 9 9 13 12
7 8 6 4 2 1 1 2 1 1 2 2 2 1 1 1 1 1 1 1 1 1 2 1 2 2 5 6 6 7 6 7 1 4 3 5 8 9 10 9 9 13 19 21
3 2 2 2 1 2 3 5 2 1 1 2 2 1 1 1 1 1 0 2 2 1 1 2 3 3 6 6 5 7 6 6 5 4 3 6 10 14 15 10 15 20 21 21
2 2 2 2 2 2 1 2 1 2 1 1 2 2 1 1 1 1 2 1 0 1 1 3 2 7 9 8 7 6 5 5 5 4 4 6 8 9 16 18 21 22 20 22
2 1 3 3 1 1 1 1 2 1 1 1 1 1 0 1 1 1 1 1 2 2 2 2 3 7 6 7 7 8 7 5 3 2 4 6 9 10 12 18 21 21 23 24
1 3 2 2 1 2 1 1 1 1 2 0 1 1 0 2 2 2 4 1 2 1 2 3 5 7 7 7 8 6 6 6 3 2 4 8 9 10 14 18 20 20 22 22
2 3 2 1 0 1 1 1 2 3 2 1 1 3 3 1 1 2 3 2 2 2 3 2 4 6 7 6 6 6 6 5 4 2 4 6 13 19 18 11 16 21 21 23

GFSNW_925_spd_054.txt.gz
Wind_Speed
24 26 28 30 34 32 11 3 3 3 10 3 1 3 7 6 6 4 3 3 10 4 6 4 3 6 5 7 5 5 2 5 3 3 2 4 4 5 5 4 4 1 1 7
24 26 28 29 33 26 5 2 0 1 3 3 3 4 4 3 4 4 2 4 4 4 5 5 4 5 4 11 5 6 3 2 3 2 4 2 4 5 4 4 3 5 4 6
23 25 28 28 31 22 6 2 3 3 2 1 3 4 3 3 7 5 3 5 11 7 4 4 4 3 7 5 6 10 6 2 4 5 4 4 4 5 8 6 3 3 7 11
22 24 27 29 30 17 3 3 2 1 4 3 8 8 8 11 7 7 9 5 7 6 3 5 4 4 4 7 4 4 4 3 4 5 6 2 4 6 8 13 16 6 3 8
21 21 23 26 28 15 8 2 2 2 2 5 8 7 7 13 11 6 6 6 5 10 2 1 5 6 3 2 3 3 2 1 1 4 6 8 7 10 10 13 15 15 21 24
19 20 20 21 24 19 5 4 2 1 4 4 2 3 3 6 5 12 8 6 8 12 7 4 4 5 5 7 6 3 4 3 1 4 3 1 5 11 15 7 7 10 13 17
18 18 18 18 19 19 6 3 4 2 3 3 3 5 2 4 4 5 3 6 5 1 1 2 8 11 8 6 4 4 5 4 3 3 3 3 5 4 7 14 10 11 14 14
16 17 17 17 16 17 13 5 3 2 3 1 5 10 3 5 6 5 6 6 2 2 4 3 3 2 2 2 3 4 4 3 2 2 2 6 2 2 4 6 5 7 8 7
14 15 16 16 16 15 14 4 9 2 3 3 2 3 4 1 3 4 2 3 5 5 3 2 2 3 3 3 3 3 3 4 2 1 1 3 2 2 3 4 4 8 7 7
12 13 14 14 15 15 14 1 8 2 2 3 1 3 2 2 2 2 1 0 4 3 2 2 2 1 2 4 6 4 3 2 4 4 3 7 7 2 3 2 5 4 4 4
12 12 13 12 13 13 13 5 6 4 2 5 3 3 2 3 2 2 3 3 3 2 2 0 1 1 2 1 4 5 6 5 3 3 3 7 3 3 2 3 4 2 3 4
13 12 12 12 11 11 11 5 4 5 3 4 7 16 16 7 2 2 0 2 2 3 2 1 1 1 1 1 2 1 4 6 5 7 6 5 3 4 4 2 3 3 2 4
13 13 13 12 11 10 9 11 10 2 2 4 3 5 6 8 13 6 2 2 2 1 1 2 1 2 1 2 4 3 4 6 3 2 5 8 8 5 2 1 2 2 1 5
14 13 14 14 12 12 11 12 8 4 2 2 3 1 1 2 6 5 4 3 4 3 2 1 1 2 3 3 3 3 4 4 3 5 7 7 3 3 2 2 2 2 2 5
15 15 15 15 13 12 13 15 19 16 2 2 3 12 3 3 3 3 2 3 3 1 2 2 3 2 1 2 1 4 4 7 4 4 5 4 3 3 2 2 2 2 4 5
16 16 16 15 13 11 6 3 7 18 13 2 2 2 1 2 3 3 3 2 2 2 2 2 2 3 3 2 2 6 4 3 4 4 5 3 1 2 2 4 3 1 5 5
18 17 18 15 15 11 6 2 4 15 14 2 2 2 0 3 2 2 1 2 2 2 2 3 3 3 5 2 3 6 6 4 7 8 4 3 4 4 5 3 4 5 6 7
19 18 10 7 7 7 10 20 15 7 3 2 2 2 2 5 2 2 2 2 1 2 1 1 2 2 2 4 7 6 7 9 4 6 1 2 3 6 5 4 4 5 5 5
16 8 3 4 2 3 3 7 5 11 3 2 2 2 2 2 2 2 1 1 2 1 2 2 2 3 4 2 6 7 8 6 9 6 1 3 2 5 5 5 5 5 5 5
4 0 2 2 3 4 3 4 3 3 3 3 2 2 2 3 2 2 1 2 2 2 3 1 3 2 6 7 7 7 8 8 7 6 5 3 3 6 6 6 5 6 7 6
3 3 1 6 6 4 2 2 3 3 2 2 3 3 2 2 2 2 3 2 1 2 1 1 2 1 3 6 8 8 8 7 8 8 9 7 5 6 7 6 6 8 11 9
2 4 5 4 2 0 2 3 1 3 3 1 2 2 2 1 0 1 2 2 1 3 1 2 1 2 4 6 9 10 10 10 9 6 7 7 6 6 8 8 8 12 14 16
1 1 1 2 1 3 5 5 3 2 1 1 1 1 1 1 1 1 0 2 2 1 1 1 1 3 7 9 8 11 10 9 9 8 7 2 4 9 11 8 14 16 16 16
1 1 3 3 3 3 2 0 1 1 1 0 0 1 1 1 0 1 2 1 1 2 1 1 2 6 8 8 8 9 11 10 10 9 6 3 4 5 10 12 15 16 16 19
2 2 3 3 1 0 1 1 1 1 1 1 1 1 1 1 1 1 1 1 3 2 1 1 3 6 6 7 8 8 9 10 9 8 7 3 4 6 7 11 14 14 16 17
1 2 2 1 1 0 0 1 0 1 1 0 1 0 1 2 2 1 4 1 3 2 1 1 3 5 5 7 7 7 8 7 8 10 8 3 2 5 8 12 14 17 19 18
2 3 2 1 2 2 1 1 1 2 1 1 1 4 3 0 2 3 0 1 2 2 2 1 2 3 5 6 6 8 10 9 10 10 10 5 1 8 12 6 11 16 16 17

GFSNW_925_spd_057.txt.gz
Wind_Speed
27 28 30 32 34 33 10 2 2 1 9 3 1 2 9 6 6 1 4 9 8 5 5 4 3 5 2 6 6 4 1 4 3 2 1 3 3 5 4 4 3 1 1 6
26 27 29 31 32 29 10 1 2 2 3 3 3 5 5 4 5 4 2 4 4 4 4 5 3 3 2 7 4 5 3 2 3 2 2 2 3 4 4 5 3 5 5 5
25 27 27 29 32 28 7 2 4 3 3 1 2 3 3 3 4 4 2 4 5 4 4 5 4 3 4 6 4 7 5 3 4 5 3 4 3 4 6 5 3 3 7 7
23 25 26 28 32 25 4 3 2 1 4 5 10 8 6 12 5 5 7 5 6 5 3 4 3 3 4 5 7 3 4 2 2 3 4 2 5 4 8 11 9 6 3 6
21 22 24 25 30 24 6 2 2 2 3 7 6 8 9 13 7 5 6 7 8 9 3 2 6 6 3 2 3 3 2 1 1 3 4 6 5 7 8 9 10 12 19 22
18 20 21 22 24 25 6 5 4 1 4 5 3 4 5 5 3 9 8 5 6 12 6 2 5 4 4 5 5 2 3 3 2 4 4 3 5 8 13 7 5 14 12 20
16 18 19 20 19 19 12 4 3 2 3 4 3 5 2 6 5 3 4 4 3 1 2 3 7 9 8 8 6 3 4 4 2 2 4 2 6 3 6 14 9 14 14 14
16 16 17 16 17 16 17 6 3 2 3 3 4 8 3 4 4 4 4 5 2 3 5 3 4 3 3 3 3 4 4 3 2 1 2 6 1 3 5 6 5 11 15 13
15 15 15 15 16 15 16 5 8 2 2 2 3 4 3 2 2 4 3 3 4 5 3 3 2 2 3 3 2 3 4 4 3 1 1 3 2 1 2 4 3 5 8 7
13 14 14 13 14 14 15 3 10 3 2 2 2 3 3 3 2 1 2 4 4 3 2 2 2 1 2 4 5 4 3 2 4 5 3 6 7 6 2 2 3 4 2 5
13 13 13 13 12 12 14 9 3 6 2 5 3 3 2 4 1 2 2 3 3 3 2 2 2 1 1 1 2 5 6 5 3 3 3 6 3 1 3 3 2 3 3 2
14 13 13 13 12 10 9 5 6 9 3 4 6 16 18 8 1 1 1 2 1 2 2 1 0 0 1 3 2 0 3 5 4 7 5 5 4 5 5 3 3 3 3 3
14 14 14 13 12 11 9 11 9 6 3 4 3 6 9 10 19 14 2 2 0 0 1 2 1 1 2 2 4 3 4 4 3 1 4 11 10 6 4 3 3 2 3 4
15 14 15 14 14 13 12 12 10 3 3 3 3 2 2 2 6 9 7 2 2 2 1 1 2 2 3 2 3 2 4 5 4 4 7 9 7 5 3 3 1 2 3 4
16 15 16 16 16 14 13 17 18 14 3 3 4 12 4 5 5 5 5 4 3 1 1 2 3 2 2 1 0 4 5 7 4 5 4 3 7 2 1 4 3 5 4 3
16 17 18 17 16 14 7 3 8 22 18 3 2 3 2 2 2 4 2 3 2 2 2 3 2 3 3 3 3 6 4 3 4 4 4 7 9 4 3 3 4 3 5 5
17 19 19 18 16 12 5 2 5 13 18 3 2 2 1 4 3 2 2 3 2 2 2 3 3 3 5 2 4 5 4 6 7 3 5 5 3 4 4 3 4 4 3 4
18 19 15 13 9 9 9 20 17 6 6 3 2 2 2 5 2 2 2 2 2 3 2 1 2 2 3 4 3 6 6 9 0 8 5 5 3 2 3 2 4 4 4 4
19 11 7 4 2 2 3 4 8 12 5 2 2 1 3 2 2 2 1 1 2 1 2 3 3 3 4 2 4 6 7 5 10 11 8 5 5 5 4 4 5 5 5 5
8 3 3 3 3 3 5 4 4 4 3 3 2 2 2 3 2 2 2 2 2 2 3 1 3 2 5 5 4 5 7 8 7 7 7 3 5 5 4 7 5 5 6 6
1 1 2 2 2 2 3 3 3 3 3 3 3 4 2 2 2 1 3 2 1 2 1 2 2 2 2 7 8 7 7 7 7 7 10 11 12 10 5 5 6 6 10 7
3 6 6 3 0 2 2 3 2 3 3 1 2 2 1 0 1 1 2 2 1 3 1 2 2 2 3 5 7 8 8 9 10 9 8 9 9 10 6 6 7 11 12 15
3 3 2 2 1 3 4 4 2 2 1 1 1 0 1 0 0 2 1 2 2 1 2 2 2 1 4 6 5 8 8 9 9 10 12 9 4 1 5 6 12 15 13 14
2 2 2 3 3 3 1 1 1 1 1 1 0 1 0 1 1 2 2 1 1 2 2 2 1 4 6 6 5 6 10 9 10 10 11 8 3 4 7 11 14 14 13 14
2 2 4 4 2 1 0 0 0 1 2 1 1 1 0 1 2 1 1 1 3 3 2 2 0 3 4 7 8 8 8 8 8 10 9 8 6 3 5 8 11 13 14 15
1 3 2 2 1 1 1 1 1 1 1 1 1 1 1 3 2 2 4 2 4 2 2 2 0 2 4 5 7 8 9 9 8 9 12 10 8 4 2 6 8 10 15 17
2 3 2 1 2 2 0 1 1 2 0 1 1 4 5 1 2 3 3 3 2 3 2 1 2 1 3 5 5 7 10 10 10 11 13 13 9 2 2 3 5 8 10 12

GFSNW_925_spd_060.txt.gz
Wind_Speed
27 28 28 29 32 34 16 3 3 8 13 3 1 3 6 3 4 6 3 7 7 4 5 4 3 4 2 2 4 4 2 4 3 1 1 2 3 5 4 4 3 1 1 5
26 27 29 29 30 30 10 2 2 6 6 4 4 6 4 2 5 5 4 3 5 3 4 5 3 4 2 4 4 4 4 2 3 1 1 1 3 4 4 5 3 5 4 4
24 26 28 30 31 29 7 2 4 4 3 1 3 5 5 4 1 5 5 5 6 6 6 5 3 3 3 2 3 7 5 3 4 5 3 3 3 4 5 5 3 3 5 6
22 24 27 29 32 25 4 3 2 1 4 5 8 8 7 8 7 6 9 6 5 4 3 3 3 3 3 5 6 4 3 3 1 4 2 3 4 4 8 6 5 5 3 6
20 23 24 27 30 23 6 2 2 3 3 7 6 8 7 8 7 5 5 5 4 4 4 0 6 6 3 3 3 3 3 1 2 3 2 6 4 7 8 9 7 9 9 18
19 20 22 23 25 24 6 6 3 2 5 5 2 3 4 6 3 7 5 3 5 11 6 1 5 5 4 5 6 3 3 3 2 3 4 3 4 7 11 6 5 8 7 11
17 18 19 19 20 20 12 4 3 2 3 3 3 5 4 6 4 4 3 5 3 1 3 2 6 9 8 8 6 3 4 4 2 2 4 2 4 1 6 12 4 11 9 11
15 16 17 18 17 17 18 6 4 2 2 3 4 8 4 3 5 3 3 4 1 2 2 3 3 2 3 4 5 4 2 3 1 1 2 6 0 2 5 5 1 9 12 12
13 14 14 16 16 16 17 4 10 3 2 2 2 4 3 2 3 4 3 2 3 3 3 3 2 2 2 3 2 4 5 5 3 0 1 2 2 2 2 1 2 2 6 9
11 11 13 14 14 14 16 4 12 3 2 1 2 3 3 3 1 1 2 4 4 3 2 2 2 2 2 3 4 3 2 1 3 1 2 6 6 5 1 2 3 4 1 4
11 11 11 12 12 12 13 10 4 5 3 5 3 3 3 3 1 1 2 3 3 2 3 2 2 2 1 2 1 4 5 4 2 3 3 6 4 0 2 2 3 4 3 3
12 11 11 11 11 10 9 5 9 11 3 5 6 16 22 11 3 2 2 3 1 3 2 1 0 1 2 3 2 1 3 5 3 6 5 4 2 4 5 3 6 4 2 2
12 12 11 10 11 9 9 10 10 9 3 5 4 7 10 13 23 19 1 2 2 1 1 2 1 1 2 2 3 1 3 3 3 1 3 7 9 6 4 3 4 3 2 1
13 12 13 12 12 12 10 13 12 7 4 3 4 3 6 3 7 14 14 2 1 1 1 0 2 1 3 3 2 3 4 4 4 4 6 6 2 2 2 2 4 4 3 2
13 14 13 14 14 14 15 16 17 16 4 3 4 15 5 6 7 9 8 4 2 1 0 2 3 2 2 1 2 3 4 7 4 5 6 3 5 3 1 5 4 5 3 2
14 14 15 15 14 12 6 3 6 23 19 2 3 3 2 3 6 7 4 3 2 2 2 2 2 2 3 3 3 4 4 2 3 4 3 5 8 8 3 3 5 4 4 5
15 16 17 17 14 10 5 3 6 15 17 2 3 2 2 4 3 2 2 3 2 2 2 3 3 3 3 2 4 4 3 3 6 3 5 4 2 3 6 3 1 1 0 3
16 17 19 11 11 7 11 22 18 10 3 3 3 2 1 5 2 2 2 2 2 2 2 0 2 2 2 4 4 1 4 7 4 5 4 6 7 5 3 0 1 2 3 2
17 16 8 2 2 2 2 5 9 11 6 3 2 1 2 2 1 2 1 1 3 0 2 2 3 3 5 1 1 3 4 3 8 12 10 8 7 6 4 4 4 5 4 4
12 1 0 1 3 3 6 6 3 3 3 4 2 0 1 3 2 3 1 2 2 2 3 1 3 4 5 4 3 4 5 6 6 8 7 6 6 6 5 6 5 6 5 5
1 1 2 4 4 3 2 3 3 3 3 3 3 4 2 2 2 2 2 1 2 2 2 2 2 2 1 4 5 4 5 6 7 7 10 10 10 9 9 8 7 6 8 7
1 4 5 3 2 2 3 3 2 3 3 2 2 3 2 1 1 1 2 2 2 3 2 2 2 2 2 4 6 6 6 7 9 9 9 9 10 10 9 9 7 10 12 12
1 3 2 2 2 4 4 4 2 1 2 2 2 1 0 1 0 1 1 3 3 2 2 2 1 1 2 4 4 6 6 8 7 9 12 14 8 8 4 4 6 12 12 14
1 2 3 3 3 4 2 1 2 1 1 2 1 1 1 0 1 2 2 1 1 2 2 4 2 0 3 4 4 4 7 8 8 8 10 10 9 5 5 4 8 11 10 12
2 2 4 4 2 2 1 0 1 1 1 1 0 0 0 0 2 2 1 2 3 4 3 2 2 2 1 3 4 5 5 7 7 8 7 10 11 7 4 2 4 6 10 12
1 3 2 2 1 2 2 1 0 0 1 1 1 2 2 4 2 3 4 2 4 3 2 2 3 3 1 3 4 5 6 6 8 10 11 10 10 8 4 2 2 5 8 11
3 3 2 1 2 2 1 1 1 3 0 1 1 3 5 0 2 3 3 4 3 3 2 2 4 3 1 2 3 4 7 9 11 11 9 10 12 5 5 3 1 2 4 6

GFSNW_925_spd_063.txt.gz
Wind_Speed
25 28 29 31 32 33 15 4 3 11 17 3 1 3 5 4 5 2 3 2 5 3 4 5 3 3 1 1 2 3 1 5 4 2 1 2 2 3 3 3 3 1 1 4
25 28 28 31 31 28 7 2 3 4 6 4 4 4 3 2 6 4 2 3 3 4 3 5 3 2 4 1 2 5 4 2 4 1 1 2 2 4 4 4 2 4 3 3
24 26 28 30 32 26 4 2 4 4 3 1 3 4 5 6 1 3 4 4 4 4 5 6 4 3 3 4 3 9 6 3 4 4 2 3 2 4 4 4 2 4 5 5
21 24 27 29 33 20 3 3 2 1 4 4 7 3 4 5 7 6 9 6 6 4 3 3 3 3 3 6 5 4 3 3 2 1 2 3 4 4 7 5 5 5 2 5
20 22 25 26 31 20 7 3 3 3 3 5 6 6 6 7 6 6 6 5 6 4 3 1 5 6 3 3 3 3 3 2 2 3 1 4 3 4 7 8 3 7 2 13
16 18 21 22 25 26 8 6 4 2 5 5 3 4 5 5 2 6 5 2 3 8 5 2 3 3 4 5 5 3 3 4 2 2 2 1 4 9 11 5 4 8 7 9
12 16 17 19 19 20 11 4 3 2 3 2 2 5 3 7 5 3 4 4 4 1 2 0 3 9 8 8 6 2 4 4 2 1 2 2 3 1 7 12 4 11 6 9
11 14 14 15 15 16 17 6 4 2 2 3 3 6 4 5 5 3 2 4 1 2 2 3 3 3 2 4 5 5 1 3 2 1 2 5 1 2 5 5 1 9 13 13
13 13 12 12 13 13 15 5 10 2 2 2 3 4 3 2 3 4 2 2 2 3 3 2 2 3 2 2 2 4 4 5 3 1 1 2 2 0 2 2 3 3 7 7
11 10 10 11 11 12 13 3 11 3 2 1 1 2 3 2 2 2 3 4 3 2 2 2 1 2 2 3 5 4 1 1 3 2 2 5 5 4 1 1 3 2 1 4
11 9 11 10 9 9 10 7 6 6 3 5 4 3 3 2 1 1 2 2 2 2 2 2 2 2 1 1 1 4 5 4 3 2 0 5 4 1 1 1 3 3 3 3
10 10 9 9 10 8 8 3 8 8 4 5 7 13 19 14 11 3 1 2 1 3 3 1 2 2 2 3 2 2 3 5 3 6 5 4 3 3 1 1 5 4 1 2
9 10 9 9 9 9 7 8 7 6 2 6 5 7 12 17 26 21 2 2 2 0 1 2 1 1 2 3 3 2 3 3 2 1 1 6 6 5 4 2 3 2 2 2
10 10 10 11 9 11 9 11 9 5 4 3 5 7 8 5 11 20 21 3 1 0 0 1 1 1 3 3 2 3 4 5 4 4 6 5 1 3 3 2 2 2 2 2
11 10 11 11 13 12 13 17 18 15 4 3 5 17 12 10 10 13 16 8 2 1 1 1 2 1 3 1 1 4 5 6 4 5 6 4 5 4 4 5 5 3 3 2
11 11 12 13 13 11 7 3 3 18 16 2 3 6 3 6 10 11 9 6 3 2 3 3 1 1 3 3 3 5 3 2 2 2 1 5 7 6 4 5 4 3 4 4
12 12 14 15 13 10 4 2 4 9 17 2 3 3 3 8 5 3 2 4 2 2 2 3 2 3 4 2 4 5 4 1 2 2 4 2 1 1 7 5 3 1 1 2
11 13 15 15 11 9 10 20 8 9 3 2 3 3 1 5 3 2 3 3 2 2 2 1 3 2 2 4 4 2 2 4 3 2 2 4 8 7 6 2 2 2 3 2
11 14 10 3 4 3 1 4 10 16 4 3 3 2 1 2 2 2 2 2 3 1 2 2 3 4 5 3 2 2 3 3 7 8 8 7 4 5 5 3 4 4 4 4
10 0 2 2 3 4 3 8 3 3 3 3 3 2 2 2 1 2 3 2 1 2 3 2 3 3 3 3 2 1 2 2 4 6 5 6 6 6 6 6 6 6 5 4
2 1 2 2 3 3 2 3 4 4 3 4 3 3 2 1 2 2 2 2 1 2 2 2 2 2 3 2 2 3 3 4 5 6 8 8 9 10 9 9 9 9 9 8
2 1 4 3 2 2 3 3 2 4 3 2 2 2 3 1 1 2 2 2 2 4 2 2 3 2 2 3 3 4 5 5 6 7 7 8 8 12 9 9 9 12 14 12
2 3 2 2 3 4 4 3 2 3 1 2 2 0 1 1 1 1 2 3 3 2 2 3 2 2 1 3 3 4 4 7 6 6 9 11 11 10 6 6 10 9 10 12
2 2 4 3 3 4 2 1 2 1 1 1 1 1 1 0 1 1 2 1 2 2 2 4 2 3 2 2 3 3 6 7 7 7 9 9 10 9 9 8 3 3 7 10
2 2 4 3 1 2 1 0 1 1 2 1 1 1 1 0 2 2 1 2 3 3 3 2 2 3 2 2 2 3 4 5 6 8 6 9 11 9 8 9 5 1 5 9
1 2 2 2 2 2 1 0 1 1 2 1 1 1 2 4 2 2 5 2 4 2 2 2 4 5 3 1 1 2 4 5 6 8 8 9 11 10 9 8 6 3 1 5
3 3 1 1 1 2 1 1 1 2 1 1 1 4 4 2 2 3 3 4 3 3 2 3 5 5 4 1 1 3 4 6 8 9 9 10 13 10 9 6 11 6 2 2

GFSNW_925_spd_066.txt.gz
Wind_Speed
25 33 33 31 33 36 11 4 2 9 9 2 1 2 3 2 2 4 4 2 6 4 3 5 4 4 1 1 1 3 1 5 4 2 3 2 1 2 3 3 4 1 1 3
23 31 33 32 32 29 8 2 2 5 4 3 4 2 1 2 6 5 4 4 4 3 3 4 4 3 3 1 1 3 5 4 5 2 2 2 5 4 3 4 2 4 2 4
23 28 31 32 33 27 5 1 2 3 3 2 3 5 4 3 1 5 3 3 2 3 5 6 4 5 3 4 4 7 3 3 0 3 3 4 4 8 8 3 3 4 4 2
20 26 29 31 34 21 4 3 3 2 4 5 7 6 5 4 5 5 9 4 7 2 2 3 4 3 4 3 3 2 1 3 2 3 2 2 3 5 10 6 3 4 2 4
18 23 25 29 32 19 7 3 2 3 3 6 5 9 8 8 4 6 4 5 7 4 3 3 5 5 3 3 1 2 2 3 2 2 2 5 5 7 10 12 11 11 8 14
15 19 22 24 27 22 6 6 4 2 3 3 2 3 4 6 5 4 5 2 4 8 4 1 3 1 4 4 4 2 1 4 1 0 2 3 5 9 12 8 8 11 9 7
15 15 18 20 21 22 5 4 3 3 2 2 3 5 4 7 6 2 4 3 3 4 2 2 9 12 10 8 7 1 5 4 1 0 2 2 3 2 3 11 5 12 8 10
12 12 14 17 17 18 11 7 4 2 2 4 1 8 5 5 4 4 3 5 3 1 1 2 3 2 2 4 6 5 1 2 2 2 2 4 2 3 4 4 2 11 13 13
10 11 13 13 13 15 14 7 9 2 3 2 3 3 5 3 3 1 1 2 2 1 1 1 2 2 1 3 2 4 4 5 1 1 2 2 2 2 2 2 2 2 8 7
9 9 9 13 10 11 14 5 12 4 3 3 3 4 2 2 2 3 2 3 0 1 1 2 2 2 0 3 4 4 3 1 4 3 3 3 2 2 1 3 5 1 3 6
8 8 9 10 9 9 9 6 5 5 3 8 5 3 4 2 2 2 3 2 3 1 3 2 2 2 2 2 1 3 6 5 3 3 3 4 4 3 3 3 1 4 5 4
8 8 9 10 7 7 6 3 6 6 6 6 7 14 19 15 9 2 1 3 1 0 1 2 2 2 2 2 2 2 4 3 1 5 2 2 2 1 1 3 3 2 3 2
9 8 10 10 9 8 8 9 8 7 4 7 7 9 16 21 28 20 3 2 2 2 1 1 0 2 1 3 4 3 4 4 3 2 3 8 7 6 4 1 1 2 2 3
11 8 10 11 10 9 10 10 8 4 5 4 5 6 9 7 10 23 25 2 1 2 2 1 1 2 2 1 1 3 0 6 5 5 9 9 4 5 1 4 4 2 2 4
12 10 11 12 12 11 11 15 17 16 7 3 6 21 13 13 13 17 19 12 3 2 2 2 2 2 3 1 0 4 5 7 5 5 4 3 3 1 4 6 8 6 3 4
12 10 13 13 12 9 4 2 2 8 16 3 4 6 4 6 12 14 14 10 4 2 3 2 2 1 3 3 3 4 7 5 5 1 1 4 8 7 3 5 5 4 5 5
11 11 14 14 12 8 5 2 1 1 15 2 4 4 4 8 6 4 3 6 3 3 2 3 3 3 4 3 7 6 7 7 5 1 2 5 2 1 8 7 6 4 3 3
10 13 14 15 12 9 10 18 6 9 4 3 3 4 3 8 4 3 3 4 3 4 1 1 3 2 3 5 8 4 5 4 3 4 2 5 8 8 7 5 3 4 5 4
10 12 14 6 4 4 3 5 17 13 4 3 3 3 1 1 1 2 2 2 2 1 3 3 3 5 6 5 6 6 3 2 4 3 5 7 7 5 7 6 5 7 6 5
9 6 4 3 4 8 5 5 2 2 3 3 4 3 2 2 1 2 4 2 2 3 4 2 3 3 3 3 4 3 1 1 1 3 4 3 8 7 8 10 9 9 8 4
2 4 2 2 5 4 3 3 4 4 4 4 4 4 2 1 2 2 1 2 2 2 2 3 2 3 3 3 3 2 1 2 3 5 8 8 9 10 11 12 12 12 13 9
4 2 2 2 3 3 4 4 3 5 3 2 2 2 3 2 2 2 2 2 2 3 2 2 3 2 4 2 2 1 2 2 4 5 6 8 9 11 10 9 10 15 15 14
4 2 2 3 3 5 5 4 3 3 1 1 1 2 0 1 1 2 2 3 3 2 3 3 2 3 2 2 1 1 3 4 4 5 7 8 9 10 7 8 10 12 12 10
2 4 5 4 4 4 3 1 0 1 2 2 3 1 0 0 1 1 2 1 2 2 2 3 2 4 4 2 1 1 3 5 5 6 7 7 8 8 9 8 9 8 5 2
2 3 4 4 2 2 1 2 2 0 2 2 2 1 1 1 1 1 1 3 3 3 2 1 4 6 5 3 2 2 2 4 5 6 7 9 9 7 8 10 9 7 4 0
1 2 2 1 2 2 1 1 1 2 2 1 1 1 2 3 1 3 4 2 3 1 2 3 7 7 5 4 2 0 2 3 5 6 6 7 9 9 8 9 10 9 6 3
3 3 3 2 2 3 1 1 1 3 2 1 2 3 2 2 2 3 3 3 2 1 2 5 6 7 6 5 3 1 2 4 5 6 6 8 7 6 7 7 13 10 6 4

GFSNW_925_spd_069.txt.gz
Wind_Speed
24 28 31 33 34 37 14 3 3 4 4 2 3 4 3 2 4 3 4 5 5 5 5 9 5 5 6 4 3 4 3 5 4 2 2 4 4 4 6 3 3 1 3 4
23 29 30 33 32 28 7 5 3 4 6 3 4 4 3 3 6 5 4 4 5 3 3 3 5 4 3 3 1 2 5 4 5 2 2 3 5 7 4 1 2 3 2 5
23 27 29 32 34 28 3 2 3 2 4 3 4 4 4 2 3 7 4 3 1 2 5 5 4 5 2 4 4 6 3 2 2 1 4 5 3 8 7 3 2 2 3 8
21 24 29 32 34 21 4 3 3 3 4 4 8 4 6 4 4 5 5 2 4 3 1 3 4 2 4 3 1 0 2 2 3 3 3 0 3 5 10 5 5 2 5 2
19 20 25 28 32 14 9 3 3 4 5 6 6 8 6 7 6 6 3 4 5 3 2 4 4 4 4 3 3 2 0 2 2 1 1 3 5 6 8 12 14 12 8 7
17 19 21 25 27 17 7 7 4 2 5 5 2 3 5 6 6 3 5 4 2 4 5 3 4 2 3 1 3 4 2 4 2 0 2 4 7 12 12 9 8 13 10 11
15 14 16 18 21 18 7 7 4 2 4 4 3 4 5 7 5 4 4 3 1 4 1 0 6 8 6 5 3 2 3 3 1 2 2 3 3 1 4 12 6 11 8 6
14 13 13 16 15 17 7 7 6 3 4 7 7 7 6 7 2 1 2 5 4 2 3 3 3 4 3 3 3 1 3 3 2 3 4 5 4 4 4 7 3 14 12 9
12 11 11 13 12 15 9 5 7 3 4 2 6 8 5 4 4 3 2 2 2 2 2 2 3 3 1 3 3 1 1 1 3 1 2 2 4 3 2 2 3 5 4 2
11 11 9 10 10 10 9 2 6 3 4 6 5 5 5 3 4 4 1 1 2 1 2 2 3 2 1 3 4 5 4 3 6 5 3 4 6 4 1 3 3 5 3 4
12 11 11 9 9 8 6 6 2 2 3 10 8 8 10 5 4 3 4 3 4 2 3 2 2 3 3 3 1 2 6 4 3 4 4 4 6 4 2 3 3 5 5 4
13 12 11 8 7 8 6 6 3 2 5 7 18 22 21 21 17 5 3 4 3 2 3 2 2 3 2 3 2 3 4 3 1 5 2 4 5 3 4 3 1 2 3 3
17 13 11 10 8 10 10 11 8 6 5 8 9 8 13 22 25 17 3 3 3 2 3 2 2 4 2 4 6 4 5 4 4 2 4 7 6 2 3 1 1 2 1 3
17 15 12 10 9 11 9 11 8 4 4 4 5 7 9 7 15 23 27 13 6 5 3 3 2 3 1 2 2 4 3 7 7 7 9 5 8 5 3 3 3 2 4 4
17 14 13 11 9 10 13 12 14 13 5 4 8 27 30 25 20 17 20 20 7 3 3 3 3 1 3 2 3 8 6 8 7 3 4 4 3 5 2 4 4 3 4 6
15 12 12 11 9 9 5 3 3 5 13 3 4 8 9 8 16 16 14 12 6 3 3 3 3 1 3 3 4 4 5 8 8 8 3 2 4 3 1 3 5 5 5 5
17 11 11 11 10 9 6 3 2 2 10 2 4 5 3 10 9 5 3 9 3 4 3 4 4 3 4 4 10 6 5 6 6 2 2 5 6 1 4 6 6 5 6 6
12 9 10 12 9 12 12 20 12 8 3 3 3 5 4 8 4 4 5 4 3 4 3 1 3 2 3 5 4 12 10 4 5 6 3 3 5 7 6 6 5 6 6 6
14 7 8 5 4 5 2 5 14 14 5 2 3 3 3 5 2 5 3 2 3 1 3 3 4 5 7 7 7 6 6 4 1 4 4 4 6 7 6 6 7 8 7 5
7 3 3 2 3 5 5 4 2 3 3 3 4 3 3 2 2 4 1 2 3 3 4 2 4 4 10 2 3 5 3 2 2 2 4 3 5 6 7 9 9 9 9 8
4 3 2 1 7 4 3 3 4 4 3 4 4 7 5 2 3 2 2 1 2 3 3 3 3 3 3 5 4 3 2 0 1 3 5 6 8 8 9 10 10 11 13 11
9 2 1 2 3 3 4 3 3 5 4 4 3 2 3 2 3 2 3 2 0 2 3 2 3 2 5 4 4 3 1 1 2 3 5 6 7 9 8 9 9 12 14 17
6 1 1 2 3 5 5 6 3 3 2 2 2 2 2 2 3 1 1 2 2 2 3 3 2 4 4 3 3 3 2 2 3 5 6 7 8 8 8 8 10 12 13 14
3 5 4 4 4 5 2 3 3 3 2 3 2 2 2 1 1 1 2 2 2 3 3 3 2 4 5 3 2 2 2 4 5 5 6 6 7 7 8 7 9 10 10 9
2 3 4 5 3 2 2 2 3 1 2 2 3 2 2 1 0 0 1 3 3 2 2 1 4 7 6 5 3 3 2 2 3 4 5 6 8 7 7 9 9 8 8 7
1 3 3 2 3 3 1 2 2 2 2 1 1 2 1 2 1 2 3 2 3 1 0 3 6 7 7 6 4 3 1 1 2 3 4 6 7 7 8 8 9 10 8 7
2 3 4 4 3 4 4 1 1 3 2 2 2 3 1 1 2 2 2 3 2 3 2 3 5 7 6 6 5 3 1 1 2 4 4 5 7 6 6 6 11 12 10 8

GFSNW_925_spd_072.txt.gz
Wind_Speed
25 28 32 33 35 36 14 4 3 4 2 3 1 4 4 2 3 4 6 6 7 7 8 9 5 7 5 6 4 4 5 4 3 3 3 1 3 5 5 3 2 1 1 3
25 27 31 32 34 27 7 4 3 3 4 3 4 7 7 3 7 5 6 4 4 4 4 3 5 5 5 4 5 3 3 3 4 3 2 2 3 3 2 5 2 2 1 2
23 25 29 32 31 19 5 3 4 3 2 4 1 3 6 4 3 3 4 3 5 3 6 7 4 4 3 4 4 7 4 4 3 3 3 4 2 4 5 4 2 2 4 5
21 24 27 30 30 17 3 4 4 3 4 4 6 3 8 10 7 8 4 1 5 4 2 2 4 3 4 1 1 1 4 3 3 4 4 3 4 3 7 4 5 3 5 2
18 19 24 28 32 14 9 3 3 4 4 7 7 7 5 8 10 7 5 6 6 8 6 5 1 2 2 2 0 2 2 2 3 2 0 2 3 5 6 7 7 7 5 5
17 18 21 22 27 17 9 7 5 1 6 6 5 2 4 6 9 2 5 7 9 6 4 6 6 4 5 5 2 1 2 3 1 1 1 4 5 10 9 6 6 9 7 6
16 16 15 18 19 15 7 4 3 2 4 7 6 6 7 7 8 6 6 6 6 2 6 7 2 4 4 4 2 3 2 2 1 1 1 2 3 4 2 8 6 7 6 4
14 14 13 14 14 16 7 6 3 2 4 5 10 10 10 8 8 4 4 3 4 5 5 2 0 1 2 2 3 1 3 2 2 1 3 1 1 2 3 5 5 8 6 3
14 13 11 10 10 11 7 3 5 3 2 2 9 9 8 4 5 6 3 3 1 3 2 2 2 2 2 3 2 1 1 3 1 2 1 2 3 3 1 2 2 3 7 6
14 14 12 11 9 8 7 1 4 5 3 4 4 2 4 5 2 4 6 2 2 0 2 2 2 2 3 2 4 4 3 3 3 4 2 4 5 5 1 2 3 5 2 2
16 14 12 11 10 10 7 6 3 3 3 8 6 5 5 6 3 3 4 3 2 1 2 2 2 1 2 2 1 4 5 4 4 4 2 5 4 2 1 4 4 5 4 4
19 16 12 10 7 6 7 6 5 7 5 6 18 22 23 19 15 2 3 4 5 3 2 1 2 2 2 4 1 3 2 2 2 5 3 2 5 5 4 3 3 2 4 4
22 19 14 10 8 9 9 14 11 8 3 9 8 7 13 17 26 17 3 3 4 2 4 3 2 2 2 1 4 4 5 2 1 3 2 6 6 4 5 4 5 3 3 2
25 20 15 9 9 10 10 10 13 7 4 4 4 7 8 5 8 24 24 10 5 4 3 3 2 2 1 2 0 1 0 4 5 4 5 3 4 5 8 5 3 3 2 2
26 22 16 12 9 9 11 16 17 13 4 3 7 26 21 14 29 16 23 18 6 1 3 3 3 1 1 1 2 3 4 4 3 2 2 4 5 7 7 4 3 3 2 4
28 24 13 9 7 7 6 2 1 7 8 3 4 7 7 16 9 19 11 10 5 3 3 3 3 1 1 2 3 4 1 4 1 2 4 4 5 6 5 3 3 2 3 4
24 22 12 9 7 10 4 2 1 0 5 2 4 4 4 3 4 4 4 10 2 3 3 4 3 3 2 2 4 2 5 6 4 5 4 2 1 3 4 3 3 3 4 4
18 14 14 8 7 8 6 19 19 9 2 3 3 4 4 2 3 3 5 5 4 4 3 2 2 1 3 4 4 8 4 4 6 6 5 3 2 3 3 3 3 3 4 3
19 9 4 1 1 3 4 4 13 13 4 2 3 3 3 4 2 2 2 4 3 1 3 3 2 3 5 5 3 3 6 4 1 5 5 3 3 3 4 4 4 4 5 2
15 7 3 0 3 4 4 2 2 2 2 3 4 3 4 1 2 1 3 2 3 2 4 2 4 4 4 5 6 6 6 6 4 2 1 1 2 3 4 4 5 5 5 5
4 2 1 1 4 2 2 2 3 3 3 3 3 5 4 1 3 2 2 1 2 3 3 3 2 3 2 6 7 5 5 4 4 2 1 2 4 4 5 5 5 7 9 8
9 5 2 2 3 2 3 3 3 4 3 4 3 2 4 3 1 2 2 2 0 2 2 1 3 1 4 5 5 5 4 3 3 5 4 5 5 6 6 6 6 8 10 13
7 1 2 2 2 3 4 4 3 3 1 3 3 3 2 2 4 1 1 2 2 2 2 2 2 3 4 4 4 5 5 6 6 5 5 5 6 6 6 6 8 10 11 12
3 3 3 3 3 3 1 3 3 3 3 5 4 3 2 1 1 0 1 1 2 2 3 3 2 4 5 4 3 3 4 5 5 4 5 5 6 5 6 7 9 10 10 12
2 3 4 4 1 1 1 2 3 2 3 4 3 3 2 2 1 1 1 2 2 2 2 0 1 5 5 4 3 4 4 3 3 2 3 5 6 6 6 8 9 9 11 10
1 3 2 2 2 2 2 2 2 0 3 2 1 2 2 2 2 1 2 3 1 2 2 1 3 5 5 5 4 4 4 2 0 3 5 6 6 7 7 9 9 11 10 11
2 3 2 2 1 4 4 3 1 2 2 2 2 2 1 2 2 2 1 2 2 2 3 1 2 5 6 5 5 5 4 2 1 3 4 6 9 9 7 5 12 13 11 11

GFSNW_925_spd_075.txt.gz
Wind_Speed
23 26 29 31 33 31 11 3 3 4 1 4 2 3 7 2 6 3 5 4 4 4 7 7 4 3 2 7 4 3 3 5 4 2 5 10 5 5 4 4 5 3 2 4
22 26 30 32 31 23 9 2 1 6 2 4 5 6 5 3 2 4 3 4 4 4 5 4 3 3 5 7 3 2 3 3 4 3 2 3 4 8 5 2 2 3 4 4
22 24 29 32 28 19 3 2 4 4 4 1 1 3 5 9 3 3 4 4 5 4 5 6 2 2 2 4 2 4 2 3 5 6 4 5 4 5 5 4 3 3 4 4
20 22 26 30 27 17 2 4 2 2 4 4 8 4 4 7 7 5 5 1 7 4 2 2 2 2 2 1 3 3 4 3 2 2 4 4 5 4 7 4 4 5 1 3
18 20 24 28 28 12 8 3 2 3 3 8 5 5 4 6 6 3 6 3 8 6 3 2 3 1 2 1 1 1 3 2 3 2 3 3 3 6 7 5 4 4 4 4
16 18 19 23 25 14 6 5 1 2 4 4 2 1 2 6 8 6 0 3 4 2 2 5 5 2 2 2 2 1 2 4 3 2 2 0 5 9 9 5 5 6 5 7
15 16 16 18 20 14 6 6 4 3 3 1 1 4 6 9 9 5 9 4 3 2 5 6 2 1 2 4 3 1 2 3 2 2 2 1 5 1 8 9 7 8 4 4
13 14 14 12 13 12 7 7 3 1 4 3 6 4 1 7 10 3 2 0 3 3 3 1 1 2 2 3 2 4 2 2 1 3 2 4 2 3 5 7 6 7 7 5
12 13 12 11 8 9 6 1 5 2 3 4 4 3 4 2 3 6 2 2 3 1 1 1 1 3 3 3 1 1 3 3 3 2 1 3 2 2 1 3 3 5 8 7
13 14 12 10 9 7 6 2 4 1 4 4 5 2 3 3 2 3 3 4 3 2 0 1 3 3 2 3 3 4 1 1 3 2 2 5 1 3 3 3 3 2 5 5
19 18 14 9 8 6 6 4 4 2 3 7 6 5 3 4 2 2 4 3 2 1 1 2 2 1 2 1 4 5 5 4 3 3 3 5 4 2 2 3 3 4 3 2
21 21 18 13 9 5 6 4 2 7 5 7 25 29 29 18 9 3 3 3 2 2 2 0 1 1 0 3 2 1 2 5 4 6 4 4 5 2 3 3 4 3 4 3
25 25 25 17 10 6 8 11 10 7 3 7 5 5 7 13 20 25 3 3 3 1 1 1 2 2 2 2 3 2 2 3 1 3 1 5 6 2 2 2 3 4 3 4
23 23 23 16 11 5 6 11 12 8 4 3 5 8 5 9 15 14 24 12 5 4 2 1 2 2 2 2 2 3 4 3 3 3 5 2 4 4 5 5 4 3 1 1
19 20 19 18 11 5 10 13 18 16 4 3 6 22 18 6 10 24 19 18 8 2 3 2 3 2 1 1 1 2 4 5 3 4 2 3 1 4 4 5 4 3 2 4
16 19 16 18 8 5 4 3 5 2 7 3 5 6 6 18 10 11 14 11 3 2 3 3 3 3 2 2 3 5 3 4 5 4 3 3 6 5 2 4 3 2 2 3
17 13 14 9 6 9 3 2 2 2 3 2 4 4 4 6 3 1 2 9 3 3 3 3 2 3 0 1 3 4 5 6 6 7 6 3 1 4 4 4 2 1 3 4
4 13 10 8 6 6 7 15 16 8 0 3 3 4 4 4 1 3 4 4 3 3 2 2 3 1 3 4 6 9 4 6 4 5 3 5 6 4 4 3 2 3 3 4
14 13 10 6 2 1 4 5 3 15 2 2 2 2 3 3 1 2 2 3 3 3 4 3 2 3 4 6 6 2 3 4 7 5 6 5 4 3 2 1 4 3 3 4
14 6 3 2 2 2 5 2 1 1 2 3 3 2 3 2 2 1 2 2 2 3 4 3 3 3 3 2 4 5 6 6 5 4 2 2 3 3 2 2 1 2 2 3
3 2 2 3 2 2 1 0 2 2 3 3 3 4 4 2 3 2 2 1 2 2 2 4 2 3 1 5 6 5 5 5 5 5 4 4 3 2 3 3 2 4 5 4
5 8 5 2 1 1 2 2 2 4 3 2 2 3 4 3 3 2 2 2 1 2 3 2 2 1 3 4 4 4 5 6 6 7 5 5 4 4 4 4 4 6 8 9
7 3 2 1 1 1 3 2 3 2 1 2 3 4 2 2 2 3 2 2 1 1 1 2 2 1 2 4 4 5 6 8 7 6 5 4 4 5 5 5 6 9 9 9
2 3 2 4 3 4 3 1 1 2 4 6 5 4 2 2 1 1 2 1 1 2 2 3 1 3 5 4 3 5 5 5 5 5 5 6 6 6 7 7 8 9 9 11
2 3 4 4 3 1 2 1 1 2 3 5 3 3 2 2 2 1 1 2 2 2 1 1 2 2 4 4 3 4 4 3 3 2 2 3 4 4 5 7 7 10 10 11
1 3 3 2 2 3 0 1 2 2 3 4 2 2 2 2 2 1 2 2 2 2 3 2 1 2 3 3 4 4 4 3 2 2 3 4 5 6 7 5 9 11 10 11
1 3 2 1 1 2 2 2 2 2 2 2 2 3 2 3 2 2 1 2 2 2 3 2 1 3 4 3 3 5 5 4 2 0 2 3 6 5 5 5 11 12 10 11

GFSNW_925_spd_078.txt.gz
Wind_Speed
23 25 29 31 31 26 6 2 3 10 6 4 1 2 5 4 5 2 5 2 4 4 3 4 3 2 2 6 2 4 3 4 5 2 4 4 4 5 6 4 4 2 4 5
22 25 29 31 30 22 6 2 2 3 4 3 2 4 5 3 3 3 2 4 2 4 3 3 2 1 3 5 2 3 4 2 4 2 2 4 4 6 7 3 3 5 5 5
21 24 28 32 31 19 5 2 2 4 4 2 2 2 4 5 3 5 4 4 5 5 5 5 3 1 2 4 1 1 3 3 5 6 4 5 6 8 9 5 3 2 5 4
18 22 26 30 30 17 4 3 1 2 3 3 3 2 2 3 5 2 4 2 4 2 3 2 2 1 2 3 3 2 3 3 3 2 5 4 5 7 10 8 6 5 3 7
16 20 23 26 28 18 8 2 3 3 3 4 3 4 4 3 2 2 4 3 7 2 1 2 1 4 1 2 3 3 3 2 2 4 1 1 2 6 8 6 5 3 4 6
14 18 20 22 24 18 6 4 4 2 5 3 0 4 4 6 1 6 6 4 3 4 3 4 5 4 5 1 3 1 2 4 3 3 1 1 5 10 9 5 5 7 6 7
12 14 15 16 18 15 5 4 3 3 4 4 4 6 6 8 4 3 8 7 3 2 4 4 3 3 4 3 2 3 4 4 2 2 2 2 5 1 7 9 6 8 3 4
9 10 12 13 12 11 7 4 2 1 4 3 7 10 5 10 8 5 7 4 4 1 3 0 2 2 2 2 2 4 3 3 2 3 3 5 3 3 4 6 7 8 8 5
10 10 10 12 10 7 6 2 4 1 2 3 3 5 5 3 5 5 4 3 1 1 1 1 3 3 3 4 4 4 5 4 3 2 2 4 2 1 1 4 4 4 8 7
13 12 12 12 9 5 3 2 2 1 2 4 2 2 3 6 4 6 4 5 3 2 1 2 3 3 2 3 5 4 2 1 4 2 1 6 4 2 3 1 4 1 6 6
17 17 15 14 11 6 5 4 7 3 3 7 4 2 2 3 3 3 6 6 2 1 2 2 3 2 3 2 3 5 5 5 3 3 3 5 4 2 3 3 1 2 3 4
18 19 18 18 15 6 5 3 4 8 5 7 21 25 29 24 22 2 4 5 8 2 1 2 1 1 2 2 2 1 2 5 4 6 5 4 5 3 2 3 3 2 3 2
17 16 15 15 20 11 9 8 8 4 3 6 3 5 10 7 14 24 4 3 4 4 3 1 1 2 3 2 4 0 2 2 2 1 2 4 4 1 2 1 2 3 3 3
13 14 13 11 10 12 11 7 5 3 4 3 5 5 10 6 5 11 24 15 7 7 3 2 1 2 2 2 2 2 4 3 3 3 5 1 2 3 4 4 5 5 3 2
10 9 8 7 8 10 6 6 12 12 5 3 6 20 8 7 6 18 20 15 6 1 3 2 2 2 1 1 1 3 4 5 4 4 4 3 3 4 5 5 4 4 3 2
7 8 9 6 13 10 2 2 3 5 10 3 4 6 5 14 13 10 11 11 3 3 3 3 3 3 1 2 2 5 4 3 6 4 3 3 5 4 3 5 4 3 2 1
7 2 6 11 8 5 3 2 6 6 1 1 3 4 4 9 5 2 2 7 2 3 3 3 2 3 3 2 3 5 5 6 4 3 6 3 3 4 4 5 3 3 2 2
7 11 13 7 5 3 6 8 10 4 3 0 2 4 4 2 3 1 3 3 3 5 3 2 3 1 3 4 8 10 4 4 3 3 4 1 6 6 5 3 2 2 3 3
11 11 8 5 1 2 4 3 3 7 2 1 1 2 4 5 2 2 2 2 3 2 3 3 3 3 5 7 8 5 4 5 6 6 6 6 5 4 3 3 4 2 2 3
13 6 4 2 2 3 2 1 1 1 1 1 2 1 3 3 2 2 1 3 2 3 4 2 3 3 5 3 3 4 5 5 5 5 4 4 3 3 2 2 1 1 2 2
2 3 2 1 2 3 1 0 1 2 0 2 3 4 3 2 3 3 2 1 2 2 2 4 3 3 2 3 5 4 5 6 6 6 6 5 4 2 2 2 3 4 5 4
6 10 5 1 2 2 2 1 3 3 3 2 2 2 3 3 3 3 2 2 2 3 3 2 2 1 1 1 2 3 4 6 7 7 6 6 6 5 3 3 4 6 8 9
7 5 2 2 2 2 3 3 3 0 1 1 3 5 2 2 2 3 2 3 2 0 2 2 2 1 2 2 3 4 5 8 7 6 8 9 8 8 7 5 7 7 7 8
3 4 0 3 4 4 4 3 2 0 1 4 5 3 2 2 2 2 3 1 1 1 1 3 2 2 3 3 2 3 3 5 6 6 7 7 6 5 5 4 5 7 7 9
3 3 4 5 4 2 1 1 2 1 1 2 4 3 3 2 3 1 3 2 2 2 1 2 4 3 3 3 2 3 3 3 3 4 4 4 4 4 3 4 4 7 7 9
2 3 3 2 2 3 2 1 2 2 1 1 2 3 3 2 2 2 3 2 2 3 2 3 3 0 2 3 3 3 3 4 3 1 2 2 3 5 5 4 7 8 7 9
3 3 1 2 2 3 3 2 0 1 1 1 1 3 2 3 2 3 1 1 2 3 3 2 3 2 2 3 4 5 5 4 5 2 2 2 4 4 4 5 9 9 8 8

GFSNW_925_spd_084.txt.gz
Wind_Speed
14 19 22 25 27 18 5 2 2 2 6 2 0 1 3 2 4 3 4 3 3 3 2 5 5 4 2 7 9 8 6 3 3 2 2 6 1 4 4 4 3 3 3 5
14 18 22 24 26 17 3 1 2 1 2 0 3 6 5 4 3 3 4 4 5 2 3 3 2 1 2 7 9 6 6 2 4 4 2 2 2 3 4 5 3 6 4 4
13 16 20 23 23 15 3 3 3 4 4 2 3 4 5 5 6 5 2 4 3 3 2 3 1 1 2 5 6 10 3 2 3 4 3 5 5 5 6 6 3 4 6 6
12 16 21 23 22 13 3 4 2 2 4 4 6 4 3 6 5 4 3 1 4 3 4 5 3 1 4 4 3 3 3 3 2 2 1 2 2 5 10 9 8 8 2 9
9 15 19 22 23 11 9 3 3 3 3 4 5 6 6 8 8 6 9 5 11 3 3 1 3 2 3 3 2 2 2 1 3 1 3 2 3 7 10 13 10 7 11 12
6 11 16 19 22 16 6 3 1 3 3 5 3 1 4 6 9 8 6 12 8 10 6 3 3 1 1 1 1 3 2 4 2 2 0 0 5 7 12 7 5 12 9 14
4 7 12 15 18 18 7 3 3 3 3 2 2 5 4 9 10 8 10 11 2 5 19 8 0 1 1 2 1 1 3 3 2 2 1 1 4 1 5 10 4 11 8 4
3 3 4 7 10 9 8 4 3 2 3 2 5 5 5 9 11 4 6 4 3 10 9 2 2 2 0 2 4 2 2 3 3 2 1 6 2 1 3 5 5 11 14 14
4 1 2 4 4 4 5 4 4 3 2 3 4 4 4 4 5 6 3 4 10 6 2 2 3 3 3 3 2 3 4 4 4 1 2 3 2 3 3 3 4 2 6 9
3 4 6 7 6 5 1 3 3 3 1 3 1 3 3 4 3 3 5 9 8 5 1 1 1 2 2 2 5 4 2 1 4 3 2 6 5 3 3 3 4 4 2 5
6 9 9 9 9 9 4 2 3 3 2 4 4 3 3 4 1 3 6 4 4 4 3 1 1 1 0 1 2 4 5 4 2 3 1 6 3 2 3 4 2 2 1 2
10 10 9 6 6 9 7 3 3 6 2 5 8 20 23 16 14 2 2 5 4 1 3 4 2 1 1 1 0 1 1 4 4 6 5 4 4 4 2 2 1 2 1 2
11 8 6 6 4 9 9 4 6 2 1 4 3 3 3 2 4 6 3 3 3 3 1 2 3 2 1 1 2 1 2 2 2 1 2 4 5 4 3 1 2 2 2 3
6 5 4 3 3 10 12 4 6 2 0 2 5 6 11 11 6 6 16 7 2 2 1 2 2 3 1 2 2 2 3 2 2 3 5 5 5 4 3 2 3 4 4 3
8 6 6 5 7 13 10 5 4 5 1 2 4 15 4 6 8 10 8 13 2 0 2 2 2 2 2 1 1 3 4 4 3 4 3 2 5 2 3 4 3 3 3 3
10 9 8 10 12 13 7 2 2 2 6 2 3 4 5 8 10 7 4 8 2 1 2 3 3 4 1 2 2 5 3 2 2 3 2 3 1 1 2 4 4 4 6 5
8 10 15 15 14 9 4 3 5 7 2 1 3 5 4 6 3 1 2 5 2 3 2 3 3 2 1 2 4 6 3 3 4 4 2 1 2 1 4 5 6 7 7 7
21 23 19 16 12 9 5 5 7 3 4 2 2 4 4 5 3 2 1 2 1 2 2 2 3 2 2 3 8 7 7 8 7 5 1 1 4 5 5 5 3 4 4 3
25 23 18 11 4 3 2 6 4 2 1 2 1 1 3 4 2 2 2 3 2 2 3 3 1 2 4 5 3 4 4 4 5 3 4 4 4 5 4 4 5 3 2 3
25 14 4 2 3 12 6 2 1 1 1 1 1 0 3 1 1 2 2 3 2 3 4 2 3 3 1 3 3 4 5 5 1 2 1 2 3 3 3 4 4 3 3 3
5 3 3 7 11 3 1 1 1 1 1 2 2 3 2 1 2 2 2 2 2 2 3 2 2 2 3 5 4 5 4 5 5 6 5 6 4 4 3 3 5 6 6 6
10 16 13 6 3 2 1 1 1 2 3 2 2 2 4 2 2 2 2 2 1 4 1 2 2 1 3 4 3 4 4 4 6 7 6 7 8 7 5 5 6 7 7 8
10 4 3 3 1 2 5 5 3 1 3 2 1 3 2 1 2 3 2 3 4 1 2 2 1 4 6 2 1 2 3 5 6 6 7 7 7 7 7 6 6 7 7 9
3 3 5 4 2 4 4 4 4 3 3 1 1 2 2 1 2 3 3 2 2 2 2 2 2 7 6 3 2 1 1 2 4 5 6 6 6 5 4 4 4 5 6 9
3 3 4 4 2 0 2 3 1 2 3 2 1 2 2 2 3 2 2 2 3 1 2 2 4 7 4 3 2 1 1 1 2 2 4 5 5 4 3 3 5 6 6 7
3 3 4 2 2 2 2 4 2 2 2 1 1 2 2 3 2 2 4 1 2 2 2 2 4 4 5 3 2 1 1 1 2 2 1 3 3 4 3 3 4 6 6 7
3 1 2 3 2 3 3 3 3 5 2 2 1 3 3 2 2 3 2 2 1 1 2 2 3 3 3 4 2 2 2 2 3 3 2 3 3 3 3 4 6 8 7 7

GFSNW_925_spd_087.txt.gz
Wind_Speed
6 12 16 18 18 10 1 3 2 2 4 2 1 1 4 5 5 3 5 2 5 4 3 3 4 5 4 8 10 8 6 1 4 1 1 5 0 4 3 4 4 2 2 3
7 11 14 17 17 14 2 3 2 1 2 3 3 5 6 4 5 4 4 3 5 3 2 2 2 3 5 9 10 7 3 2 4 3 2 4 3 2 4 4 3 6 5 4
7 10 14 18 17 14 3 3 3 3 3 1 2 5 5 7 9 4 7 5 3 3 2 3 0 1 4 8 3 5 2 2 2 4 4 4 5 6 6 5 3 6 4 5
6 9 14 18 16 11 3 4 2 1 3 4 3 4 4 6 10 6 7 7 14 11 3 2 3 2 4 2 7 2 1 2 2 3 1 3 1 3 7 6 5 6 6 8
6 9 14 17 15 8 8 3 3 1 1 2 4 5 4 5 7 4 8 7 17 9 8 6 3 1 2 0 4 4 1 2 1 3 2 2 2 5 7 9 5 4 3 9
8 9 13 16 20 10 5 3 2 3 1 3 3 2 4 5 10 5 5 12 10 7 7 14 13 7 3 4 3 2 2 3 2 2 2 2 5 5 7 4 4 7 8 8
9 9 12 14 17 15 8 4 3 3 1 1 2 4 1 6 9 6 11 9 4 5 12 15 4 5 3 4 1 0 3 3 2 1 2 1 3 1 3 7 3 8 6 4
10 8 7 7 9 9 11 6 3 3 1 1 1 5 3 7 6 4 4 7 2 9 6 3 3 3 2 3 4 3 2 3 3 2 2 5 2 1 2 2 4 4 11 11
12 9 6 4 4 5 8 9 6 4 3 2 0 2 2 3 4 5 3 5 10 8 2 1 1 2 1 2 1 2 4 4 3 1 1 2 2 2 2 2 3 2 4 7
13 10 6 4 2 0 2 5 6 4 2 2 3 1 0 1 2 3 4 8 6 6 3 2 1 1 2 1 3 2 1 2 3 3 1 5 5 4 3 2 3 3 2 4
14 10 8 8 9 6 5 5 6 2 2 3 5 4 2 2 1 2 5 3 2 4 5 3 2 1 2 2 2 2 3 4 2 2 1 5 3 1 1 4 3 2 2 1
14 11 9 8 13 9 8 3 7 6 1 3 3 10 11 10 11 2 2 2 2 1 2 2 3 2 1 1 1 1 1 4 4 6 5 4 4 5 2 2 2 2 2 2
15 12 9 10 11 14 10 5 8 3 1 3 3 1 2 2 11 11 2 2 2 1 2 2 2 2 2 0 1 2 2 2 1 1 1 4 4 4 4 1 0 1 3 2
14 11 12 12 13 18 12 8 8 3 3 1 3 2 3 1 4 7 15 3 2 1 1 2 2 2 1 2 2 2 2 2 2 3 5 6 3 3 1 2 2 4 5 4
16 15 14 13 18 17 15 9 7 3 2 2 3 8 2 3 1 3 8 9 1 2 2 1 2 3 2 1 1 3 3 3 3 3 2 2 4 5 1 4 3 3 4 4
18 18 16 18 23 17 9 2 3 7 3 1 1 2 2 4 5 4 3 5 2 1 1 3 3 4 1 2 2 4 2 1 1 2 2 3 3 2 1 3 4 4 6 5
21 19 20 24 20 14 4 3 7 10 4 2 2 3 3 4 2 2 2 2 1 2 2 2 3 3 2 2 3 5 2 3 6 5 4 3 2 1 4 6 6 9 9 8
24 25 25 21 15 13 8 10 9 3 5 1 2 3 3 5 2 1 2 2 0 3 3 2 3 2 1 3 5 6 7 8 5 7 0 0 3 4 5 5 4 5 5 3
35 29 26 15 3 3 4 10 4 3 3 2 1 2 2 4 1 2 2 2 2 2 3 3 3 2 4 3 4 5 5 4 7 6 3 3 4 5 4 4 5 4 3 3
35 24 4 2 4 17 15 3 1 1 2 1 1 1 2 2 2 2 2 2 1 2 3 1 3 3 2 2 4 5 6 6 6 3 1 2 3 3 3 4 4 3 3 3
11 4 2 11 15 3 1 2 0 1 1 2 1 2 1 1 0 2 1 2 1 2 2 1 3 1 2 4 5 4 5 4 4 3 4 4 4 4 5 4 5 6 6 6
13 20 17 7 2 1 3 1 1 2 3 2 3 3 4 2 2 1 2 2 2 4 1 2 2 1 5 6 3 4 4 4 4 6 5 7 8 6 7 6 6 6 6 7
13 5 4 3 1 2 6 7 3 3 3 3 2 1 1 2 2 2 2 3 4 1 2 2 1 2 5 5 3 3 4 4 3 4 6 8 8 9 9 6 6 4 5 7
3 4 6 4 4 4 4 4 4 3 3 5 2 0 2 2 2 2 3 3 2 2 1 2 1 4 7 5 3 3 2 2 3 4 6 7 7 6 5 6 6 7 7 8
3 3 5 6 3 2 1 2 2 2 4 3 2 1 1 1 3 2 2 2 3 2 2 2 2 4 6 5 2 2 0 1 1 1 3 5 4 4 3 3 4 4 4 6
3 3 4 2 3 1 2 4 3 2 3 1 2 2 2 4 1 1 4 2 4 3 2 2 2 2 3 5 4 1 0 1 1 2 1 1 2 3 2 3 2 4 4 4
3 1 1 3 1 4 4 5 4 8 3 3 2 3 8 1 2 3 3 4 3 3 3 3 3 3 3 3 5 3 3 4 4 2 4 4 3 2 3 4 3 4 4 4

GFSNW_925_spd_090.txt.gz
Wind_Speed
4 1 6 10 9 4 4 3 1 2 1 1 1 5 9 8 9 4 5 2 2 4 3 2 3 6 4 11 11 7 6 1 2 5 2 4 3 6 3 2 3 2 3 5
5 1 6 9 9 4 4 2 2 1 1 3 4 8 6 4 14 11 9 7 6 6 3 4 3 1 6 10 8 4 4 2 5 7 3 1 4 4 3 4 1 2 1 5
7 3 6 8 8 7 3 2 1 2 2 2 2 4 5 11 11 3 10 6 8 15 6 4 5 6 4 7 5 2 5 1 3 2 5 7 4 10 10 4 3 5 4 2
9 5 7 8 8 5 3 3 2 2 2 2 4 2 7 9 11 7 11 4 13 7 5 9 7 7 3 7 5 3 2 1 2 4 4 3 5 10 11 6 4 5 5 10
11 9 9 9 6 5 7 2 3 1 2 1 2 6 8 10 10 3 5 8 11 1 2 2 5 7 3 1 5 1 3 1 1 2 3 3 3 6 12 12 10 11 7 14
13 12 11 10 8 3 4 3 2 1 1 0 1 3 5 7 9 1 4 9 7 3 2 11 12 6 10 5 2 1 0 0 1 2 3 4 2 2 8 5 5 9 10 10
16 14 12 12 15 12 9 5 4 2 2 1 2 2 3 6 8 4 6 6 6 5 16 15 7 4 6 5 2 2 2 1 1 1 0 2 4 2 2 7 6 11 10 9
19 16 13 11 12 13 12 7 3 2 3 1 2 3 3 5 5 2 3 5 6 11 7 2 1 1 3 2 3 1 1 1 2 1 2 2 3 2 1 1 3 1 7 8
21 17 13 11 11 10 13 8 7 2 3 2 1 2 3 3 6 2 2 5 7 5 2 1 2 2 0 3 2 1 2 2 0 1 2 0 3 2 1 2 3 2 4 7
22 19 15 11 10 8 5 5 7 3 2 2 2 1 1 2 3 2 3 7 7 5 2 2 1 2 2 1 2 3 2 2 3 2 1 2 1 1 3 3 3 4 3 6
24 21 17 13 10 8 4 6 6 2 2 2 4 3 2 2 2 3 5 2 3 5 3 3 2 2 2 1 0 2 2 4 2 2 2 3 2 2 2 3 3 2 2 1
26 23 18 15 13 10 7 4 7 5 3 2 3 5 7 8 6 2 3 2 0 3 2 2 2 2 2 2 2 1 3 2 0 3 0 2 2 5 2 2 4 3 2 2
27 21 18 16 16 16 13 9 12 5 2 2 1 2 0 2 9 8 2 1 0 2 2 1 2 2 3 2 1 3 2 2 2 2 2 3 3 3 5 2 1 2 2 5
25 22 18 17 18 18 12 8 10 6 3 1 3 0 1 2 5 8 7 2 2 1 1 1 2 3 0 2 4 3 2 2 2 3 1 2 4 4 3 1 3 4 5 5
25 21 19 19 23 19 14 8 8 3 1 1 3 1 2 1 5 6 6 6 2 1 1 2 3 2 2 1 3 4 3 1 2 2 4 4 5 6 3 2 4 3 5 5
24 23 22 24 27 21 12 1 5 6 2 1 3 1 2 1 1 4 4 4 2 1 1 2 3 3 2 2 3 2 3 2 4 3 9 7 8 3 1 3 5 5 7 5
27 26 25 30 25 17 1 1 9 11 4 1 2 2 1 1 2 2 2 2 1 1 1 2 2 2 2 2 3 7 9 8 10 7 6 5 1 1 2 6 7 8 9 8
30 30 33 26 19 14 7 13 11 6 4 1 2 2 1 1 2 2 3 2 2 3 2 2 2 2 2 4 3 6 9 12 3 9 7 5 0 3 3 5 6 6 5 4
40 37 30 21 4 4 6 10 5 5 2 2 1 3 3 1 1 1 3 2 1 2 2 2 3 2 4 2 5 8 7 5 11 12 8 3 3 4 3 4 4 5 3 3
43 29 5 3 3 19 14 2 1 1 1 0 1 1 1 1 1 2 1 2 1 2 3 2 3 3 2 2 4 7 8 8 8 5 3 1 1 3 2 3 3 4 4 3
11 4 3 14 19 3 0 2 1 1 1 2 2 3 1 2 1 1 1 0 1 2 1 2 2 2 1 4 6 4 5 6 6 5 3 2 2 4 5 4 4 3 4 4
12 22 17 9 3 1 2 2 2 3 3 4 3 3 3 2 1 1 1 0 1 3 1 2 2 2 4 6 6 4 4 4 3 4 3 5 6 5 6 5 5 3 4 4
19 5 4 4 2 3 7 8 4 3 5 5 5 3 3 2 2 1 1 1 3 0 2 2 0 2 4 5 5 4 3 2 1 2 5 7 7 7 5 5 3 2 2 3
3 4 7 5 4 5 5 4 4 2 5 8 4 2 2 2 3 2 3 2 1 3 3 2 1 3 5 5 3 4 3 1 2 3 5 5 4 5 3 2 1 0 1 1
3 4 5 5 2 2 2 2 4 2 6 5 3 2 1 2 2 2 1 2 4 4 2 0 1 2 3 4 3 3 3 3 3 3 3 4 3 1 2 1 1 1 2 3
3 3 4 3 3 2 3 4 4 4 5 3 2 2 3 3 2 3 5 2 5 2 2 2 1 0 2 3 3 2 3 4 4 5 4 2 4 4 3 3 3 2 3 3
3 2 1 3 2 4 5 5 4 7 3 3 3 5 6 2 3 3 4 4 2 3 3 3 3 2 3 4 5 4 4 5 6 6 6 6 7 6 5 6 4 4 4 5

GFSNW_925_spd_093.txt.gz
Wind_Speed
13 9 6 6 5 5 8 2 1 2 2 1 2 4 6 5 12 10 5 6 4 4 4 4 3 3 3 5 10 5 3 2 4 2 4 6 3 6 8 3 3 2 3 5
14 10 7 5 4 11 3 0 3 2 3 3 4 6 4 7 9 7 7 5 4 9 3 3 6 2 5 6 8 1 6 2 4 5 3 2 4 6 7 1 3 1 4 6
15 11 7 5 4 8 4 2 2 2 1 1 3 5 5 8 5 4 6 4 2 8 8 6 6 7 3 1 0 8 6 0 3 3 5 9 5 11 11 2 2 2 4 6
16 12 7 5 5 9 4 2 2 1 1 2 2 3 5 8 7 5 7 1 9 3 6 5 6 6 5 5 4 4 3 2 2 4 5 5 8 12 12 5 5 3 5 6
18 12 7 4 7 9 2 2 3 2 3 2 3 3 5 7 6 3 3 6 9 3 4 3 4 8 2 1 3 3 3 2 1 2 3 1 3 5 10 8 10 12 12 16
19 14 7 3 6 7 3 3 2 3 4 3 2 3 5 4 7 2 4 7 7 2 3 10 9 7 10 4 2 3 2 1 2 3 2 3 2 6 8 7 6 10 11 9
22 16 10 7 6 9 6 5 5 3 4 3 1 1 3 5 3 3 4 5 5 7 13 13 7 9 8 7 5 4 6 3 1 1 3 4 4 2 1 8 5 8 11 10
25 20 15 11 9 7 12 9 3 3 4 3 4 1 3 2 1 2 3 4 7 10 7 2 2 4 4 3 2 3 3 5 1 2 2 5 4 4 1 3 3 1 5 6
28 23 17 14 11 11 15 9 2 2 3 3 3 2 0 1 2 4 1 2 5 4 2 3 2 1 3 2 3 0 3 4 4 1 2 1 6 3 1 2 4 0 4 7
31 26 21 17 13 10 9 6 4 1 3 3 2 1 1 1 1 2 1 3 4 3 3 1 2 1 2 2 2 1 1 2 5 3 2 2 4 3 2 4 3 3 4 7
34 28 23 19 14 12 9 6 4 3 2 4 2 2 1 1 1 2 4 2 2 2 3 1 2 2 3 3 1 3 2 2 2 2 2 2 3 3 3 5 3 3 4 3
34 30 25 20 16 12 9 5 5 4 3 4 2 0 2 3 3 3 2 2 2 1 2 1 2 2 1 3 1 2 2 2 4 3 3 3 1 4 3 3 5 3 4 3
36 31 26 21 17 14 9 8 8 4 3 3 3 2 2 1 3 1 3 1 1 1 3 1 1 3 2 2 2 5 2 1 3 2 4 3 3 2 2 2 2 2 2 2
35 29 24 20 18 16 11 5 7 2 3 1 3 1 2 0 1 2 4 5 2 3 2 1 2 2 1 2 3 5 3 2 3 6 1 3 5 7 5 0 1 2 3 4
34 27 23 21 21 18 12 8 5 1 2 2 3 3 2 1 1 2 2 4 4 2 2 3 2 2 2 2 3 7 2 4 2 1 7 6 5 9 7 3 1 2 4 5
33 27 22 25 24 19 9 3 4 5 1 2 3 3 3 1 1 1 2 3 3 2 2 1 2 1 3 3 3 5 4 4 7 5 11 10 10 7 4 1 2 3 5 5
32 26 28 27 22 16 1 1 4 9 3 1 3 3 3 2 3 2 2 3 1 2 2 2 2 1 2 3 4 4 6 8 9 6 10 3 5 4 4 1 5 5 6 7
30 32 30 26 20 13 7 10 10 6 2 0 2 3 3 6 3 2 1 1 1 3 2 1 2 1 3 4 6 5 7 9 3 8 8 9 8 5 1 2 3 4 4 4
40 37 33 21 1 3 6 10 5 3 1 2 2 5 3 4 2 2 1 1 2 1 2 2 2 2 5 3 4 7 9 7 10 12 11 8 6 3 2 1 2 3 3 3
45 33 5 3 3 20 15 2 1 1 0 1 2 1 3 2 2 3 2 2 2 2 3 3 3 4 1 2 3 5 8 8 10 10 6 8 5 3 3 1 2 3 3 2
17 5 3 13 21 3 1 2 1 2 2 3 2 2 3 1 2 2 1 0 1 2 2 2 2 3 3 2 6 4 3 4 4 8 9 6 6 7 3 3 2 2 3 3
15 20 17 9 2 2 2 3 2 4 3 4 4 3 1 3 2 1 2 2 2 3 2 2 3 2 2 4 6 6 2 5 4 4 4 5 6 7 4 2 2 2 2 2
21 5 5 5 2 3 6 8 4 4 6 6 5 4 3 2 1 1 1 3 3 1 2 3 2 3 1 3 4 4 5 4 4 2 1 3 5 6 5 3 2 2 2 3
3 5 6 6 5 5 5 3 4 3 5 9 6 5 2 2 3 2 2 2 1 3 3 4 3 2 1 2 3 4 5 3 3 1 1 1 1 2 3 3 3 4 3 4
3 2 5 5 3 3 3 4 4 2 8 7 6 4 2 2 2 3 1 3 4 5 3 2 3 3 3 1 0 2 2 2 2 3 3 4 2 1 2 3 5 5 5 5
2 2 4 4 3 3 3 4 5 4 6 4 3 3 3 3 2 4 6 3 5 2 2 3 5 4 3 2 2 2 3 3 3 5 4 3 2 4 6 6 6 7 6 6
2 2 3 4 3 3 4 6 6 10 5 3 3 5 5 2 3 4 4 5 1 1 3 3 3 4 4 3 3 3 3 4 6 7 7 7 7 6 8 10 9 8 8 8

GFSNW_925_spd_096.txt.gz
Wind_Speed
21 17 13 9 6 11 13 3 1 4 1 1 2 2 2 2 8 7 3 4 3 3 5 3 2 2 1 3 5 1 3 0 3 2 2 3 4 6 3 2 5 3 3 1
22 18 14 10 7 17 4 1 3 2 2 2 1 4 3 4 6 5 5 3 1 6 3 3 4 1 5 6 5 1 3 1 3 3 2 3 2 4 3 0 1 2 1 2
23 19 15 11 9 16 4 2 2 3 3 1 2 3 1 5 6 2 5 3 4 7 5 7 4 3 5 4 6 6 3 1 2 1 3 6 4 6 8 4 1 4 3 2
24 21 17 12 9 15 9 1 2 1 2 2 1 1 2 6 5 3 3 3 8 1 4 3 6 6 5 5 5 4 2 2 1 3 3 4 4 7 12 5 4 2 3 3
25 21 17 12 12 19 4 3 3 2 3 3 5 3 5 4 4 3 2 3 5 3 3 2 3 5 3 2 3 4 4 3 0 3 2 3 3 7 7 4 6 6 5 3
26 22 17 12 18 17 4 2 1 1 4 3 2 2 3 3 3 3 3 4 5 1 2 5 6 3 5 5 2 2 2 2 1 1 1 2 2 4 6 2 3 2 4 2
28 23 17 13 21 15 4 4 4 2 3 2 3 3 2 0 1 3 2 3 4 4 8 9 6 7 8 10 9 8 5 5 1 1 2 1 2 5 5 3 3 2 5 5
31 25 18 13 15 16 6 9 3 2 3 5 4 4 2 3 5 4 4 3 3 6 4 3 3 3 3 6 3 4 3 3 2 1 2 3 2 2 1 0 1 3 3 5
33 25 20 14 14 17 15 12 8 2 4 2 4 5 1 0 2 4 3 2 2 1 2 2 2 2 1 3 4 4 3 4 2 2 1 1 2 2 4 3 1 4 4 5
34 28 23 18 15 15 14 8 9 1 4 2 1 1 2 1 1 1 2 3 3 5 2 1 1 2 0 0 2 3 2 2 3 3 1 2 3 3 1 1 2 3 3 3
35 30 25 19 14 15 9 9 7 3 3 3 3 1 3 3 2 2 3 2 1 2 2 1 0 2 3 3 3 1 1 2 3 1 0 1 3 1 2 2 1 3 4 4
37 29 25 20 16 13 12 6 10 9 6 4 6 7 5 5 7 3 1 2 3 1 1 2 1 2 2 3 1 1 2 2 1 2 0 2 2 2 2 2 2 3 4 4
36 30 26 21 16 13 9 14 13 6 3 3 3 3 5 7 5 3 2 3 2 1 2 1 1 3 2 2 2 4 3 3 2 2 3 4 6 5 4 3 3 4 4 4
37 30 26 22 18 12 12 10 8 4 2 4 3 4 7 5 6 5 5 3 1 2 2 1 2 2 1 2 3 2 3 5 3 0 7 3 7 7 6 4 4 4 6 6
35 31 27 22 19 16 15 16 7 6 3 3 4 6 5 5 6 4 3 1 1 1 1 2 2 2 1 2 2 4 3 4 3 1 6 5 3 6 5 6 2 3 5 5
37 31 27 25 20 16 6 2 2 5 4 3 3 3 4 4 5 3 3 3 1 1 1 2 2 0 0 2 2 4 6 7 6 3 6 6 7 4 7 4 5 6 6 6
36 30 31 24 21 12 5 2 6 8 5 2 3 3 2 5 6 2 2 2 1 1 1 2 2 1 2 2 3 4 7 6 6 7 8 2 7 4 6 3 5 6 8 8
36 34 31 26 19 13 8 13 12 8 5 1 3 3 3 6 3 2 0 1 0 2 2 1 2 1 2 3 3 6 7 6 2 8 5 5 9 8 1 1 2 3 3 3
45 39 32 18 5 3 5 10 8 6 3 2 1 4 3 4 2 3 1 1 2 1 2 2 0 3 4 3 3 5 5 4 6 10 11 6 5 5 2 1 2 3 4 4
46 29 7 3 4 18 13 3 2 2 1 2 2 1 3 3 3 2 2 2 1 1 3 2 2 4 2 5 1 2 3 2 5 5 6 8 8 7 6 1 4 4 4 4
11 4 3 15 19 3 1 2 1 2 1 3 2 1 4 1 3 3 2 1 1 2 2 1 2 3 3 5 2 2 2 2 2 5 6 5 5 6 5 4 6 7 7 5
14 23 20 8 2 2 2 2 2 3 4 4 4 2 3 3 2 3 2 2 1 2 2 1 3 1 4 3 2 1 1 3 3 4 4 3 3 5 6 6 6 6 4 5
18 6 4 3 2 3 6 8 4 3 5 4 4 5 3 3 2 2 2 3 3 3 2 3 3 4 3 2 1 2 2 3 3 1 2 1 2 5 6 6 6 5 6 7
3 6 7 6 5 5 4 2 4 2 6 10 5 4 3 3 3 3 3 3 1 2 3 4 3 4 4 1 0 2 2 2 2 2 2 1 1 3 4 5 6 7 6 7
3 3 5 4 4 4 3 3 3 2 8 5 4 3 3 3 3 3 2 3 4 5 4 2 2 5 5 3 2 3 3 2 2 3 4 3 3 4 4 4 4 5 7 8
2 3 4 4 4 2 2 4 5 2 4 2 3 3 3 3 4 4 5 4 5 4 2 2 4 5 4 5 4 3 3 4 6 5 5 5 7 6 5 2 5 6 7 9
3 2 3 2 5 4 3 5 4 4 2 2 3 5 6 3 4 4 4 5 3 2 1 2 5 6 6 5 6 7 6 4 6 6 6 7 6 6 6 5 7 10 10 10

GFSNW_925_spd_099.txt.gz
Wind_Speed
30 26 23 18 14 16 19 3 2 4 3 3 1 2 2 1 4 5 1 3 2 1 2 3 2 0 2 9 2 3 2 2 1 2 5 4 3 3 2 3 3 0 3 3
27 27 24 19 17 24 10 4 3 3 1 3 1 2 1 3 2 3 4 2 3 2 1 1 3 3 6 7 4 2 2 2 2 2 2 2 3 3 2 2 1 1 2 3
29 29 25 21 18 24 5 3 2 2 2 2 5 4 1 4 1 1 3 2 4 3 4 6 3 4 4 7 4 7 5 1 2 4 4 4 4 5 5 4 3 1 2 1
30 30 26 22 18 24 8 2 3 4 2 2 5 4 3 3 1 2 2 2 4 3 3 3 3 3 4 4 7 5 1 0 1 5 4 3 4 5 7 4 3 3 2 5
31 30 26 22 19 22 4 4 4 3 3 4 5 3 1 3 1 0 2 3 3 4 3 2 2 1 2 2 3 3 2 2 2 3 2 3 2 6 6 3 2 2 5 2
33 31 27 23 24 24 5 4 2 5 3 3 4 3 4 4 3 1 3 2 3 2 2 2 3 3 3 3 3 2 1 2 2 3 3 4 3 1 5 3 1 2 3 3
32 31 27 23 24 24 5 5 5 4 2 3 4 5 3 5 4 3 2 1 2 0 4 3 2 5 8 8 10 6 3 2 1 2 2 0 3 2 3 4 2 2 2 1
33 31 27 22 24 25 6 6 3 3 3 4 5 7 4 6 3 2 2 1 2 2 3 1 2 2 2 5 7 5 6 2 3 1 1 1 1 1 2 2 2 2 3 4
36 29 24 21 23 28 10 9 5 4 6 2 5 5 4 4 4 2 2 3 2 1 1 1 2 2 3 1 0 2 1 2 3 3 1 1 2 1 1 2 1 2 4 3
36 28 23 19 22 25 18 7 7 6 4 2 4 3 5 4 3 3 3 1 3 1 1 2 1 2 2 2 3 3 1 0 3 1 1 3 0 1 2 4 3 1 3 2
38 30 25 23 21 20 13 9 7 5 3 3 3 3 3 3 3 4 2 3 2 2 1 1 1 1 1 2 1 2 3 3 2 1 2 2 1 2 2 2 2 3 3 2
38 32 28 22 20 18 15 7 17 17 5 3 9 11 7 5 4 4 2 4 2 1 0 1 1 1 0 2 1 4 1 3 2 4 3 3 3 3 3 2 1 2 3 1
39 33 28 21 19 17 7 21 18 13 4 4 4 3 7 7 7 5 4 1 1 2 0 1 1 1 2 1 2 3 5 4 0 2 6 4 6 4 6 4 2 2 2 3
39 34 28 21 16 12 20 17 12 9 4 4 1 5 5 7 8 10 10 6 4 4 2 1 1 1 2 1 2 1 4 5 2 2 4 1 6 5 5 6 2 5 6 4
39 33 27 22 18 18 21 20 11 9 5 4 3 7 4 6 8 9 8 8 3 2 2 1 2 1 2 1 0 3 2 1 2 2 1 2 5 7 7 6 3 3 4 3
40 34 29 23 19 23 8 3 4 8 6 4 3 2 3 4 7 8 7 5 2 2 2 1 1 2 2 1 2 2 1 4 4 0 2 2 6 2 6 4 4 5 6 5
40 34 28 24 19 8 7 3 7 9 5 3 3 2 1 9 5 2 3 3 1 1 1 0 2 2 2 1 2 3 2 4 4 5 5 3 2 4 7 2 2 3 6 8
40 37 29 22 18 13 9 13 10 7 7 3 4 2 2 4 2 2 2 2 1 1 1 1 1 2 1 3 3 2 3 3 4 6 5 4 8 8 5 1 1 2 3 4
47 40 32 16 5 3 6 10 8 8 4 3 3 5 4 3 2 2 1 1 1 2 2 2 2 2 4 5 5 2 2 3 6 8 7 6 5 6 7 3 3 3 2 3
46 31 7 3 4 22 13 3 3 4 3 3 2 3 3 4 4 2 3 2 1 2 3 2 2 3 3 4 4 3 1 2 3 4 6 7 6 6 6 3 3 4 3 5
18 3 3 13 12 3 1 2 2 0 2 2 2 3 5 0 3 3 2 2 2 2 2 3 2 3 3 6 5 4 3 1 3 4 5 6 5 5 5 4 8 7 7 5
13 20 17 6 2 3 3 1 1 3 4 3 4 3 3 2 2 2 1 3 2 3 3 1 3 3 4 6 4 4 3 2 2 2 4 5 4 5 3 4 6 6 6 6
22 6 4 3 1 2 7 7 3 3 5 4 3 3 3 3 1 2 3 4 4 2 2 3 4 3 5 5 4 4 3 2 2 3 1 2 2 2 2 3 4 3 3 2
3 4 6 5 4 5 4 3 4 2 5 9 5 3 3 3 3 3 4 3 2 2 2 5 3 6 6 5 4 3 3 2 1 2 2 3 4 3 2 4 4 5 3 2
3 3 5 5 2 3 2 3 3 1 8 5 4 3 3 2 3 3 2 4 4 5 5 3 3 4 6 6 5 4 3 2 2 3 3 4 5 6 7 7 7 6 5 3
2 2 3 3 3 2 2 4 6 4 6 3 2 4 4 3 4 4 6 5 6 4 3 3 5 6 7 7 7 6 5 4 4 4 5 5 6 8 9 9 9 8 7 7
3 1 2 2 4 4 3 4 5 4 3 2 3 5 5 3 3 3 3 5 3 3 3 2 6 7 7 6 7 9 9 8 7 7 7 8 9 8 9 9 11 9 10 11

GFSNW_925_spd_102.txt.gz
Wind_Speed
42 35 33 31 28 32 23 8 3 4 5 3 1 2 5 3 1 4 3 3 1 2 3 2 1 1 2 7 3 3 1 1 2 4 3 2 3 3 2 3 2 2 3 2
40 37 36 33 33 39 14 5 3 1 1 3 1 2 3 3 2 2 2 2 2 1 1 1 2 2 5 7 3 2 1 2 3 3 2 2 4 3 1 4 3 2 4 3
47 41 40 36 36 35 11 3 3 2 2 1 7 5 3 2 1 2 3 3 3 1 3 3 3 2 2 6 3 5 1 2 3 4 4 3 2 3 2 4 3 1 2 3
45 43 40 36 36 31 8 2 3 4 3 2 5 3 5 4 4 1 2 3 3 2 2 2 3 3 5 3 7 3 2 1 0 3 4 2 2 2 5 2 4 4 0 1
41 38 38 35 34 28 3 4 4 3 2 5 6 3 4 5 3 2 2 5 1 3 2 1 1 1 2 1 6 5 4 3 4 2 3 5 1 3 6 0 3 9 3 5
38 39 37 35 35 29 5 3 3 4 2 4 5 5 6 6 7 3 4 5 2 4 4 1 2 3 4 2 2 3 3 3 3 3 4 2 4 1 5 4 3 5 5 5
38 38 36 35 34 18 7 5 5 4 2 3 4 6 3 7 5 5 4 3 3 3 0 1 1 2 5 6 7 4 4 4 1 2 4 2 2 3 0 5 4 4 3 1
39 38 35 34 33 15 8 8 4 3 4 4 5 8 5 6 4 2 3 1 2 3 1 1 1 1 3 4 6 3 6 2 2 2 1 3 3 4 2 1 3 3 4 2
39 36 35 31 29 20 11 10 6 4 7 3 6 5 5 4 3 2 2 2 1 0 2 1 1 2 3 1 1 5 4 2 3 1 2 1 2 3 3 2 1 1 2 2
40 37 33 27 27 29 11 7 6 6 4 2 3 3 5 5 3 3 3 3 1 1 2 2 1 1 1 1 1 3 1 1 2 0 0 3 2 2 2 3 2 2 2 0
39 35 27 25 28 32 13 8 6 4 3 3 4 3 4 3 2 4 4 3 3 2 2 2 2 1 1 1 2 1 3 3 2 1 2 2 2 2 0 3 2 2 2 2
39 32 24 25 25 26 15 7 17 17 6 3 11 15 11 4 2 5 2 3 2 3 3 1 2 2 1 2 3 3 0 3 2 3 3 2 4 4 4 2 1 0 2 2
41 30 29 28 26 24 10 21 19 15 4 4 5 4 10 8 8 4 4 1 2 2 1 2 2 2 2 1 1 2 3 3 2 2 5 4 6 4 6 5 3 3 3 2
37 34 30 26 23 18 17 18 10 10 4 4 1 3 5 7 7 11 7 6 5 5 3 1 1 2 3 1 1 1 3 4 1 2 1 3 3 7 6 7 2 3 5 3
39 33 31 22 19 17 21 17 9 8 6 4 3 4 4 6 8 12 12 11 4 3 2 2 2 1 2 2 1 2 1 1 2 3 2 1 3 2 6 6 5 4 2 3
40 35 32 17 18 24 18 3 3 10 9 4 3 0 2 5 9 11 10 6 3 2 2 1 1 1 3 2 2 2 1 0 1 1 3 3 5 2 3 5 4 4 1 3
41 34 26 23 23 12 6 3 7 12 9 3 4 2 2 9 4 3 3 5 2 2 0 0 0 1 2 2 3 3 3 2 4 5 6 1 3 3 8 7 4 1 2 2
42 33 27 20 15 14 8 12 10 7 10 4 4 2 2 5 3 2 2 2 0 2 0 1 1 1 1 3 5 3 2 3 4 5 4 3 7 7 7 5 3 1 2 2
43 36 27 13 5 3 6 11 9 9 5 4 3 5 4 3 2 2 1 1 2 2 1 2 2 2 4 6 6 6 5 4 1 2 4 4 5 7 6 6 5 3 3 3
44 30 6 2 2 19 9 3 3 4 3 3 3 3 3 3 2 2 2 1 1 1 4 1 2 3 5 5 6 6 6 5 2 1 3 2 5 6 7 8 3 4 3 5
13 3 3 10 7 2 2 2 3 1 2 1 3 3 6 2 3 3 2 2 2 1 3 3 3 3 4 7 7 6 6 5 4 3 2 2 3 5 5 4 2 3 4 3
14 20 14 5 2 2 4 1 2 1 4 2 4 4 3 2 2 3 1 3 2 3 3 2 3 3 4 7 6 6 6 6 4 4 3 2 2 3 5 1 0 1 3 4
23 7 3 3 1 3 7 6 3 2 4 4 3 3 3 2 1 3 3 4 4 2 3 4 5 2 5 6 6 6 7 6 5 4 5 4 3 2 3 3 3 4 3 3
3 4 6 5 4 5 4 3 3 3 5 9 5 3 3 3 3 3 4 3 3 3 3 5 3 6 7 6 5 5 5 5 4 4 5 4 4 4 4 4 3 3 5 3
3 3 5 5 2 2 2 2 3 2 8 5 4 3 3 1 3 2 3 4 4 6 5 3 3 4 7 6 5 6 5 5 4 5 6 6 7 7 6 7 7 5 5 5
2 3 3 2 3 2 2 3 6 2 6 3 3 4 3 2 4 3 5 7 6 4 3 3 4 6 6 6 6 5 8 7 7 8 8 8 8 8 9 8 9 9 10 11
3 1 1 2 2 3 2 4 3 3 2 3 3 4 5 3 3 2 4 5 3 4 2 2 4 8 9 6 7 10 11 11 12 11 10 10 10 8 8 8 11 10 12 11

GFSNW_925_spd_105.txt.gz
Wind_Speed
32 27 27 47 41 42 24 7 3 9 12 3 0 3 5 3 2 2 2 3 3 2 1 2 2 2 2 7 2 2 1 3 2 3 3 2 1 2 1 3 2 3 3 3
31 29 25 47 45 47 16 3 3 4 4 3 1 2 3 3 2 1 1 2 2 1 0 2 3 3 4 6 4 3 3 2 1 5 3 2 2 2 1 4 3 3 4 3
30 40 39 48 50 37 12 4 4 1 1 1 6 5 4 3 2 2 2 2 3 2 2 1 3 2 2 6 5 1 5 3 4 4 2 1 1 2 2 3 3 5 2 2
32 27 45 44 51 33 6 2 3 4 4 3 5 4 5 5 4 1 1 2 3 4 3 3 2 1 3 3 6 4 2 3 2 4 4 2 2 1 3 3 3 4 6 3
28 28 44 43 49 29 2 4 4 2 3 4 6 3 5 5 3 4 2 4 4 3 2 3 2 1 3 1 4 1 3 2 2 3 4 4 2 2 3 3 3 5 5 1
16 46 45 43 44 22 4 3 2 4 1 3 5 5 6 7 7 3 4 7 4 4 4 2 1 1 2 3 1 4 2 2 3 3 5 2 6 5 2 1 1 5 2 4
28 37 38 39 43 22 3 5 5 4 2 3 4 6 3 8 4 6 4 4 3 2 3 2 1 1 3 4 3 2 3 3 1 2 3 3 4 4 3 4 4 2 3 2
12 30 33 36 41 28 2 6 3 3 4 3 4 8 6 6 4 3 4 1 2 3 3 2 2 2 2 2 4 4 4 1 2 2 1 2 3 4 2 3 2 4 2 2
21 35 35 36 34 27 6 6 8 5 7 4 6 5 4 4 3 2 2 3 2 1 2 1 2 1 1 1 2 4 3 2 2 1 3 1 2 3 3 1 0 2 2 2
29 45 39 35 34 22 8 6 8 7 4 2 3 3 5 5 3 3 3 3 1 2 2 2 2 1 1 2 2 2 1 2 1 1 1 3 3 3 4 2 3 1 1 1
41 42 36 35 34 22 4 8 6 4 3 3 4 3 4 3 2 4 4 4 2 2 1 2 2 2 1 1 2 1 3 3 2 1 2 1 5 3 2 3 3 2 2 1
44 38 35 32 31 29 9 7 17 17 6 3 14 17 13 4 2 5 2 3 3 4 3 1 2 1 1 3 2 2 1 3 2 3 3 1 3 3 3 3 1 3 2 2
38 32 29 27 29 28 9 20 21 16 4 4 5 4 11 11 8 2 4 2 3 2 2 3 2 2 2 2 2 1 1 2 2 2 2 3 4 2 5 4 3 3 3 1
44 31 27 27 30 24 19 18 12 10 4 4 1 4 5 9 8 7 5 7 5 5 2 2 2 2 1 2 3 2 4 3 2 1 1 2 1 3 3 6 6 5 4 2
44 33 32 32 28 19 19 16 6 7 5 4 2 2 7 10 12 15 13 12 4 3 2 2 1 1 2 2 2 2 3 5 4 3 4 3 3 1 4 6 5 6 4 2
41 38 30 23 20 22 17 3 4 11 8 4 3 1 4 8 14 16 13 8 4 3 2 1 1 1 2 1 2 3 3 2 2 3 0 2 3 3 6 6 6 6 5 1
45 39 30 24 25 16 5 3 7 12 8 3 4 2 3 2 3 3 3 7 2 2 1 2 1 2 2 1 3 4 5 5 3 2 2 2 3 1 7 5 7 5 3 2
49 38 29 22 18 14 8 11 9 7 11 4 4 2 2 2 2 2 1 2 2 3 1 0 1 1 1 4 6 4 5 5 4 3 3 1 3 3 4 6 4 3 3 1
44 35 26 15 6 4 6 11 10 10 5 4 3 5 3 3 2 2 1 2 2 0 0 2 2 2 4 6 6 7 7 6 5 4 1 2 1 4 5 5 5 3 3 2
44 30 7 2 2 18 11 2 3 4 3 3 3 3 3 4 2 2 2 1 1 1 3 2 2 4 5 5 6 7 7 6 6 2 2 1 2 2 3 5 3 3 3 4
18 3 2 9 8 3 3 2 3 1 2 2 3 3 6 2 3 2 2 3 2 2 3 3 3 3 4 7 6 6 7 6 5 3 2 2 1 2 3 5 1 2 2 1
14 18 13 5 2 2 4 1 2 1 5 2 4 4 3 1 2 3 1 2 1 3 2 2 3 4 2 6 7 6 6 7 5 4 3 3 2 1 3 5 3 1 2 1
13 7 4 2 3 3 6 6 3 2 4 4 4 4 3 2 2 3 2 3 4 1 2 4 5 3 4 6 6 6 8 8 6 5 3 2 1 1 2 3 3 2 2 2
3 3 6 5 4 4 4 3 4 2 4 10 5 4 3 3 3 3 4 3 3 3 3 6 3 6 7 6 5 7 7 7 6 5 4 3 3 4 4 5 3 3 4 4
3 3 5 4 2 2 1 2 3 1 7 5 4 3 3 1 3 2 3 4 4 5 5 3 3 4 9 7 5 6 6 5 3 5 5 6 6 6 6 6 7 7 6 6
2 3 3 2 3 2 1 2 3 2 6 2 3 4 4 2 4 3 6 8 7 4 3 3 2 5 6 6 6 5 10 10 8 7 7 8 8 9 10 9 10 10 10 11
2 2 2 2 2 3 2 3 3 4 2 2 3 4 5 3 3 2 4 5 3 4 3 2 3 7 8 6 6 9 12 11 11 10 10 11 10 9 8 7 10 10 11 12

GFSNW_925_spd_111.txt.gz
Wind_Speed
18 16 16 12 6 16 19 5 4 18 20 3 1 2 4 4 3 1 2 3 3 4 4 2 1 1 3 5 2 1 1 3 1 2 5 2 2 1 1 2 1 2 3 4
17 16 15 14 8 13 9 3 3 9 5 3 2 3 2 2 3 3 3 2 2 0 3 3 2 4 4 5 3 2 4 3 3 7 4 2 5 4 2 2 1 6 4 2
15 19 16 16 16 18 13 3 4 2 1 2 3 5 4 4 2 2 3 3 1 2 2 4 3 2 2 3 3 4 1 3 2 2 2 2 5 7 5 4 4 1 3 4
16 19 15 17 15 38 8 2 3 4 6 6 4 3 4 5 4 2 2 1 2 4 3 1 1 1 3 3 6 2 3 3 2 3 1 2 4 5 9 7 0 4 3 5
16 17 16 17 24 23 2 5 4 2 2 7 8 5 5 6 3 4 3 3 4 3 4 5 6 2 1 4 5 3 3 1 2 3 4 6 7 8 8 6 5 6 5 6
15 17 19 17 27 37 6 3 2 4 2 5 6 5 7 7 7 2 1 6 5 2 3 3 3 2 2 1 3 4 3 2 3 2 2 1 6 5 4 3 4 1 4 1
15 20 23 29 45 40 5 6 4 4 2 4 4 6 4 8 3 6 2 4 4 3 4 4 2 2 2 4 5 4 3 2 2 1 3 4 4 3 2 5 4 5 3 4
19 27 14 43 58 25 4 4 3 3 4 4 4 8 6 6 5 4 4 3 0 4 4 2 3 3 2 3 5 4 3 1 3 3 3 1 2 4 3 2 4 4 3 5
17 14 49 54 40 16 7 6 4 4 7 2 6 5 4 5 4 3 3 3 1 2 2 1 2 2 1 1 1 4 3 3 3 2 4 2 0 3 3 1 3 5 4 5
8 27 44 49 41 14 7 7 6 6 4 2 2 4 6 5 4 4 3 3 1 3 1 2 2 1 1 2 3 2 2 2 2 1 2 3 2 3 3 3 3 2 2 2
3 2 26 41 35 20 7 8 6 5 3 3 4 3 4 2 3 4 4 4 2 2 2 2 2 2 2 2 1 2 4 3 2 2 3 2 1 2 2 3 2 2 4 3
4 8 37 36 34 23 1 7 20 17 6 3 12 16 11 3 2 5 1 2 3 4 4 1 2 2 1 3 2 1 0 4 3 4 3 1 1 2 1 2 1 2 2 3
11 26 38 36 31 22 3 14 12 12 4 4 5 4 8 11 5 2 4 2 3 1 1 3 2 2 3 3 4 2 1 3 2 2 1 1 1 1 1 1 2 2 1 2
16 38 40 36 28 19 10 7 8 10 4 4 2 6 4 9 4 1 1 7 5 5 2 2 2 2 2 3 2 3 4 4 4 0 0 2 2 1 1 3 4 4 3 2
30 42 38 34 31 16 9 11 6 7 5 4 2 1 7 10 9 11 10 11 4 2 2 2 2 1 2 1 1 3 5 6 4 5 7 4 4 5 1 3 2 3 4 2
44 40 35 34 29 17 7 3 3 8 8 4 3 2 4 7 11 15 12 7 4 3 3 1 0 1 2 2 3 4 4 2 3 4 5 3 6 5 3 2 2 2 2 2
37 33 30 24 23 17 5 2 4 9 7 3 3 2 3 3 4 3 3 6 2 2 2 1 2 0 2 2 3 4 7 6 5 4 7 3 3 4 2 1 2 1 2 2
36 28 26 25 17 9 6 8 9 5 10 4 3 2 1 0 1 2 2 2 2 4 1 1 1 0 1 4 7 3 6 7 5 5 3 5 7 5 3 2 3 2 2 1
35 28 24 16 4 3 3 9 6 5 3 4 3 5 4 1 1 1 2 2 2 1 1 1 2 2 5 8 7 8 9 8 9 7 6 6 5 5 4 3 4 2 3 2
35 25 6 2 1 13 8 2 2 3 3 3 3 2 3 3 1 1 2 2 1 1 1 2 2 4 6 6 6 9 12 8 13 7 5 4 3 5 4 3 1 1 1 1
10 3 2 3 8 2 3 2 2 1 1 1 3 3 5 2 3 3 1 2 0 2 3 3 2 4 4 4 8 7 10 9 7 5 5 7 7 6 5 3 3 2 0 1
11 14 9 3 2 3 3 2 2 2 5 3 4 4 3 2 2 3 1 3 2 3 2 1 3 4 3 3 6 7 9 9 7 9 8 10 9 8 6 4 3 3 4 4
16 4 3 2 1 2 6 7 3 2 5 5 4 4 3 2 2 3 3 4 3 1 1 4 5 3 1 5 5 7 9 12 10 7 10 11 9 8 5 4 4 5 5 6
3 5 5 5 4 5 5 3 2 2 4 9 4 4 3 2 3 3 5 1 3 2 3 6 3 4 4 6 5 8 8 8 8 8 11 11 10 8 6 5 5 5 6 6
2 3 5 6 2 2 1 1 2 1 7 5 3 3 3 2 3 1 4 3 4 6 5 3 3 3 5 7 6 6 7 6 6 11 11 11 10 8 7 8 8 8 8 8
2 2 2 1 2 2 2 2 2 2 6 2 2 3 3 1 4 3 6 8 7 4 3 3 1 3 4 6 7 6 10 12 12 14 15 12 11 10 10 10 10 11 11 13
2 2 1 1 0 3 3 3 4 5 3 3 3 4 5 3 2 2 4 5 3 3 3 2 3 5 7 6 6 10 13 13 15 15 12 12 10 8 9 8 13 13 14 15

GFSNW_925_spd_114.txt.gz
Wind_Speed
18 14 12 11 6 10 28 6 3 16 18 3 1 2 3 3 5 2 2 1 3 4 4 3 2 2 3 3 5 5 3 3 3 3 4 5 4 7 4 3 4 5 6 5
15 14 11 10 6 5 8 3 3 9 2 3 3 2 3 2 4 4 4 2 1 2 3 2 2 4 5 5 3 4 3 3 2 3 1 1 5 13 5 2 2 5 3 5
12 13 12 12 11 8 3 3 4 2 2 1 3 5 5 5 1 3 2 2 2 3 3 2 3 1 2 4 4 4 3 4 6 5 4 4 6 17 10 1 7 13 10 12
11 12 9 14 13 7 13 2 3 4 6 6 5 3 7 7 6 2 3 3 2 3 3 3 2 1 3 2 6 4 3 4 5 6 3 3 9 13 16 8 5 9 10 14
10 13 9 17 12 15 7 4 4 2 2 8 14 6 7 11 4 6 5 2 7 3 2 0 4 2 1 2 4 2 3 2 2 6 9 10 14 16 12 13 13 14 14 13
7 11 13 17 11 16 4 3 2 2 6 9 11 6 8 11 8 1 2 6 7 3 2 2 4 4 2 2 4 5 3 1 1 2 4 5 7 12 10 9 10 6 10 6
7 10 14 17 18 19 9 5 4 2 4 7 9 8 6 12 4 4 3 5 3 3 4 5 3 3 3 3 6 5 3 1 1 2 2 3 3 4 2 12 10 9 8 6
10 14 17 20 16 29 12 8 3 2 4 5 4 10 8 9 7 5 6 4 3 5 2 2 3 2 2 4 5 5 4 2 2 1 4 3 3 3 2 4 7 8 6 5
16 23 26 25 26 37 6 8 5 2 7 5 5 6 10 7 5 4 3 3 2 1 1 1 1 1 1 2 1 1 1 2 2 1 2 2 2 1 3 3 3 6 5 7
16 17 32 42 43 23 15 6 6 4 4 2 1 3 9 4 3 4 4 4 2 2 1 1 1 2 0 1 1 1 1 2 3 3 3 2 1 1 3 1 4 4 5 6
17 50 48 44 30 17 11 8 4 3 3 4 4 3 3 3 2 4 6 5 1 2 3 2 2 1 2 2 1 1 1 1 1 1 1 2 1 3 2 4 4 4 4 4
7 31 45 34 25 15 9 8 15 15 6 4 7 10 10 4 2 3 2 1 3 3 2 2 2 2 2 1 2 1 2 1 1 2 2 2 1 2 3 2 4 2 2 2
10 35 42 27 17 8 11 19 13 11 4 4 2 4 7 10 5 1 2 1 2 2 1 2 1 1 2 3 3 3 3 2 1 3 3 2 1 3 3 2 4 3 3 2
16 35 39 28 21 8 4 6 8 8 4 4 3 6 4 10 4 1 1 4 5 4 0 1 1 1 2 1 1 3 1 7 5 1 2 3 4 2 3 4 4 3 2 2
26 34 34 29 24 9 7 9 7 5 1 4 3 1 7 11 7 8 8 7 3 1 2 1 1 2 2 0 1 4 6 5 5 4 9 2 7 9 6 5 4 3 2 1
21 35 32 27 20 13 4 2 5 7 6 4 4 2 3 7 8 11 10 6 3 2 1 2 1 1 2 3 3 3 9 6 2 3 9 4 10 7 3 4 3 2 1 2
39 34 31 30 16 6 5 1 3 4 4 3 4 2 2 3 3 2 2 4 2 2 2 1 1 2 2 2 4 3 10 8 5 10 12 6 7 4 5 3 3 2 2 1
36 33 28 24 9 6 6 7 6 5 9 3 4 2 1 1 1 1 3 1 1 3 1 1 2 1 2 5 9 4 9 9 8 10 1 3 10 8 5 4 2 3 3 2
32 30 26 16 2 3 3 6 6 7 4 3 2 5 3 2 1 1 1 1 1 1 1 1 2 3 6 8 9 13 15 13 13 9 7 8 8 8 7 5 4 3 3 2
33 24 4 2 1 9 5 1 2 3 3 2 3 2 3 3 2 1 2 1 1 2 1 2 3 5 11 7 6 12 16 11 17 14 8 8 8 9 9 7 5 5 4 2
9 2 2 4 8 2 2 1 0 0 1 1 3 2 5 3 2 3 1 2 1 2 2 2 2 4 3 2 10 9 14 12 15 3 7 10 8 11 10 8 7 6 5 3
6 12 8 3 2 2 2 2 0 3 3 3 5 4 2 3 2 2 2 2 1 3 3 2 3 4 1 1 8 9 14 12 11 8 10 10 10 11 9 8 7 7 5 5
7 4 2 1 2 2 6 7 3 3 5 6 5 4 3 3 1 3 2 3 3 3 2 4 5 1 2 4 8 9 13 15 12 10 10 11 10 8 8 7 5 5 5 5
2 4 5 5 4 5 5 4 3 2 4 8 5 4 2 2 3 2 3 1 2 3 3 6 2 4 4 7 8 11 13 13 11 11 12 12 11 9 7 7 6 6 6 5
4 4 6 7 2 1 1 2 3 2 7 6 4 3 2 2 3 2 4 3 5 6 5 3 2 2 5 9 9 10 11 9 8 11 11 10 11 9 9 10 9 9 8 9
2 3 2 1 3 3 3 3 3 4 7 3 2 3 3 3 3 4 8 6 6 3 3 2 2 4 6 9 9 8 10 11 10 12 12 12 13 12 12 12 11 11 11 13
4 3 1 2 1 2 4 5 5 7 5 3 3 5 5 4 2 4 5 5 3 2 2 2 3 5 10 8 8 10 11 11 11 12 13 13 11 10 10 9 12 13 14 14

GFSNW_925_spd_117.txt.gz
Wind_Speed
13 14 10 8 7 6 9 4 2 12 14 3 3 4 1 1 8 3 2 1 1 4 5 3 1 2 2 5 4 5 3 4 4 4 3 5 7 9 4 4 5 6 6 6
13 8 7 7 11 7 10 3 2 2 4 3 4 2 2 0 4 5 2 2 2 2 4 2 4 3 3 4 5 7 9 5 3 5 4 5 5 14 3 3 2 13 5 4
7 6 9 9 11 10 7 3 3 1 2 2 2 4 3 3 2 4 1 1 2 4 4 1 4 1 2 4 5 8 5 5 5 6 5 5 7 14 12 3 8 12 13 14
2 7 10 13 15 10 4 1 3 5 4 5 4 4 4 6 3 1 3 2 4 1 2 4 3 2 4 1 3 2 3 3 5 7 7 12 12 16 18 13 14 9 14 17
2 9 10 17 18 15 4 2 3 2 0 7 9 4 4 6 4 5 4 4 5 4 0 3 3 4 1 2 5 3 3 2 4 6 8 12 15 17 15 14 15 15 16 15
5 11 11 18 16 16 2 2 0 3 4 8 8 5 5 7 6 1 4 3 5 3 4 1 5 4 5 3 5 6 4 2 2 3 2 5 5 12 9 13 13 10 10 9
8 13 11 20 14 19 3 4 4 3 4 6 8 3 6 9 5 2 1 3 1 4 4 3 2 3 3 3 4 4 4 2 2 2 4 2 3 5 8 12 12 11 10 10
10 13 11 21 14 15 6 1 2 2 2 4 5 6 6 9 6 7 5 4 3 2 2 3 4 4 5 2 2 2 2 3 0 2 5 4 3 2 3 5 8 10 10 9
11 12 13 17 14 14 9 3 2 3 3 3 4 8 10 9 5 4 2 2 2 3 2 2 2 1 2 3 3 2 3 3 3 1 2 1 4 4 4 5 2 7 8 9
15 18 20 20 19 24 6 4 3 1 3 3 1 4 8 1 2 3 3 3 1 2 2 1 1 2 1 0 0 2 1 1 1 3 2 4 4 2 3 3 4 4 5 7
9 27 36 28 24 28 8 5 4 2 3 5 5 4 2 2 3 3 6 4 2 2 3 2 1 1 2 2 1 1 2 2 1 1 0 4 1 3 4 5 5 5 5 6
28 33 36 36 35 22 12 5 8 10 5 4 7 10 8 5 5 2 4 3 2 1 2 1 2 1 1 2 2 2 1 3 3 4 3 3 3 5 4 2 5 4 4 4
37 44 41 31 20 15 11 11 10 8 4 4 4 3 5 8 5 3 3 1 1 1 2 2 2 2 3 1 1 1 3 2 1 3 4 5 5 4 4 3 5 4 4 3
36 32 28 25 23 19 18 8 8 4 3 3 3 2 3 8 6 3 3 1 2 1 1 1 1 2 1 2 3 4 2 6 5 2 4 4 5 4 5 5 4 3 3 3
33 19 19 16 14 14 12 13 8 5 2 3 4 2 4 7 5 5 4 2 0 1 1 2 0 0 2 0 2 6 7 6 5 2 9 5 10 10 8 6 4 3 1 1
40 27 20 13 7 6 4 2 7 5 4 3 3 2 2 5 6 6 6 4 2 1 2 1 1 1 2 2 3 3 12 7 3 2 9 3 10 10 8 6 4 3 1 1
32 31 25 15 6 2 3 1 2 3 4 2 3 2 2 2 1 1 1 2 1 2 0 1 1 2 2 3 4 4 11 10 6 9 12 7 10 6 8 6 5 3 2 1
27 25 20 18 6 4 4 4 4 4 4 2 3 1 2 0 1 2 1 1 1 0 1 1 2 2 3 5 10 5 10 11 9 12 1 2 9 9 8 7 6 5 4 3
30 26 19 9 1 1 1 3 4 4 1 3 2 4 2 2 1 1 2 1 2 1 2 2 2 4 6 7 8 13 15 13 12 12 5 7 10 10 8 7 5 5 5 4
29 23 4 2 1 5 3 1 1 1 1 1 2 2 3 3 3 2 2 1 1 2 1 2 4 5 12 7 6 11 15 12 15 13 8 9 9 9 9 8 6 5 4 4
11 2 2 2 8 0 1 2 2 1 2 3 3 2 5 3 3 2 2 1 1 2 2 2 3 4 4 4 10 9 13 12 14 6 8 8 7 10 9 7 6 5 5 5
2 6 6 4 1 0 2 3 1 4 3 4 5 4 2 3 2 2 2 1 1 3 2 2 4 3 4 5 10 11 14 13 14 9 8 11 7 10 8 7 6 5 5 5
8 1 1 2 2 3 5 7 4 3 6 6 5 4 4 3 2 2 2 4 3 1 2 4 5 3 3 5 8 9 13 14 13 8 10 10 9 8 7 6 5 5 6 6
3 3 4 6 5 6 5 4 3 3 5 9 7 5 3 2 4 3 4 2 2 3 4 6 2 3 5 6 8 9 12 13 11 10 11 11 10 9 7 5 5 6 7 5
3 4 6 7 3 2 1 3 4 2 7 8 5 4 3 2 3 3 3 3 5 6 5 2 1 2 4 6 7 8 9 10 9 11 10 10 9 8 7 6 6 6 6 7
2 5 4 2 2 3 3 4 3 5 8 1 2 4 3 4 3 5 8 5 7 3 3 1 2 3 4 7 7 6 7 10 10 11 11 10 9 9 7 7 8 10 10 11
4 4 3 3 3 2 4 5 5 10 7 3 3 6 6 4 3 4 5 5 2 1 1 1 1 3 7 7 8 9 11 10 11 11 10 9 8 7 7 7 11 13 13 15

GFSNW_925_spd_120.txt.gz
Wind_Speed
11 6 2 4 7 14 9 4 3 4 6 2 2 2 2 3 4 3 1 4 6 2 3 3 3 2 4 4 3 5 3 3 4 2 1 7 5 5 4 4 6 1 2 4
6 1 6 8 14 11 9 3 2 1 8 2 2 2 2 2 2 1 1 3 4 3 1 2 4 3 3 6 3 6 5 3 5 2 2 3 5 6 4 3 3 12 3 4
2 6 11 13 13 13 8 3 3 1 2 4 4 2 2 2 4 5 3 5 3 2 1 2 1 2 2 2 4 5 3 4 4 4 3 3 8 16 13 5 6 4 9 11
6 11 13 17 14 17 6 1 2 4 2 3 4 3 2 5 3 2 3 3 3 3 1 1 2 3 5 4 3 3 0 3 3 6 8 12 16 16 16 14 9 7 9 14
9 13 16 17 16 9 5 2 3 3 3 7 5 1 1 2 2 1 4 4 5 2 3 3 2 2 2 2 6 1 2 2 3 5 6 14 11 17 14 10 8 10 11 12
12 15 16 17 17 8 2 1 2 2 3 2 3 2 4 2 4 3 6 4 5 1 6 5 6 4 3 2 4 6 3 3 2 0 3 4 7 9 9 10 13 11 9 9
13 14 18 17 16 6 3 4 2 2 3 3 3 2 4 6 6 5 3 5 3 2 2 2 4 3 2 2 3 2 5 4 1 2 2 3 3 3 4 12 10 8 7 7
13 15 16 19 12 12 6 4 4 3 3 4 5 5 5 6 7 7 7 5 4 4 3 3 3 3 2 1 4 4 3 3 2 2 3 4 3 2 2 4 8 7 7 6
15 13 16 19 14 15 4 3 5 3 1 3 6 3 5 4 4 3 3 1 4 4 3 2 2 1 2 3 2 3 5 3 0 2 2 3 3 2 3 5 4 6 7 7
17 17 17 19 15 13 5 1 3 2 3 4 7 3 1 4 1 3 3 3 1 1 3 1 2 2 2 0 1 1 1 3 1 3 3 3 3 2 3 2 3 5 7 7
19 22 21 19 17 16 6 4 5 4 3 3 6 6 5 4 3 2 2 2 2 1 2 2 1 2 2 2 1 2 1 1 2 1 1 3 2 0 3 4 5 7 6 6
28 28 27 25 22 19 6 3 7 7 6 3 6 10 9 5 4 2 3 0 2 2 2 1 2 2 1 4 2 1 0 1 1 2 2 2 3 5 4 2 6 4 6 5
25 37 31 27 26 19 7 8 11 6 3 2 2 2 3 6 5 3 1 2 3 1 1 2 1 2 3 2 2 1 3 2 1 3 4 6 5 3 3 5 6 6 5 5
30 35 30 25 24 18 10 8 10 2 1 3 1 1 1 6 4 1 1 2 2 3 1 1 1 1 1 3 2 2 1 6 4 2 4 5 5 7 6 6 6 6 5 5
34 30 24 22 19 14 11 10 4 4 2 3 3 2 2 5 4 4 3 1 2 1 2 1 1 0 1 2 1 4 5 6 4 4 10 6 8 8 8 6 5 4 5 4
22 23 20 18 16 7 1 2 5 5 5 3 3 1 1 4 3 5 5 3 2 1 1 1 0 1 1 2 3 4 8 3 2 3 7 4 9 9 7 6 7 4 5 5
18 15 12 9 7 7 4 2 2 2 3 2 3 2 2 1 2 0 0 1 1 1 1 1 2 1 1 2 4 5 8 6 6 7 9 6 5 6 7 8 8 7 7 6
21 15 6 2 5 5 4 3 3 2 1 2 2 1 1 3 2 1 1 1 1 1 1 0 2 0 2 4 8 2 6 8 6 7 4 3 6 8 7 10 8 5 4 4
24 14 8 2 3 3 3 1 1 2 1 2 2 4 3 2 1 1 0 0 1 1 2 2 1 3 5 9 8 10 8 9 9 8 5 7 7 8 7 6 6 4 3 3
25 15 3 0 2 4 2 2 1 1 1 0 2 2 2 2 3 1 3 0 1 1 3 2 3 4 11 8 7 8 9 9 10 9 6 6 7 8 7 7 6 5 4 5
6 3 2 1 1 1 2 2 1 1 1 3 3 2 3 2 3 3 1 2 1 0 3 2 3 4 4 4 9 6 9 8 9 4 7 6 7 7 7 7 6 7 6 5
8 11 8 4 2 2 1 3 2 3 5 3 4 3 3 2 2 3 2 3 2 4 3 1 4 4 2 3 5 7 9 9 9 5 9 10 9 12 10 9 9 9 8 9
6 3 3 3 1 0 5 5 3 3 3 4 3 3 4 1 2 2 2 3 4 2 0 4 5 3 3 4 5 6 8 11 9 7 12 13 12 12 12 11 10 10 9 8
2 3 3 5 4 5 4 3 2 1 2 6 3 2 3 2 2 3 4 3 3 2 3 7 3 5 7 6 5 6 9 9 10 9 12 12 13 12 12 11 10 9 7 7
3 4 6 9 4 3 3 3 2 2 4 4 2 2 3 2 2 3 3 2 5 6 5 4 2 3 5 5 5 6 7 8 8 10 9 12 14 13 11 9 8 7 6 7
2 4 3 1 1 1 3 3 3 3 4 1 1 2 1 5 4 4 8 7 7 4 3 2 3 4 4 6 6 5 7 10 11 15 16 16 16 15 11 9 8 8 8 10
5 4 3 2 1 0 2 3 3 7 4 3 3 4 8 1 2 4 6 6 3 2 2 1 4 5 7 6 6 7 11 12 15 15 16 15 13 11 9 7 9 10 11 12

GFSNW_925_spd_123.txt.gz
Wind_Speed
7 6 9 11 17 15 16 5 4 2 4 2 1 2 3 2 2 3 2 3 5 3 5 4 3 2 1 2 0 2 4 2 3 4 5 5 3 4 3 3 6 3 2 3
9 9 11 13 17 6 9 3 2 4 6 3 2 2 3 5 4 2 4 3 4 3 3 4 4 4 2 4 2 1 2 2 4 6 2 5 5 7 5 3 1 12 2 4
11 13 14 13 10 7 9 3 3 1 3 1 3 2 1 2 4 3 4 2 6 3 3 4 4 1 1 2 2 3 0 3 1 5 3 2 5 15 16 6 3 3 9 11
13 14 15 11 10 8 5 2 2 3 1 3 2 3 1 2 2 3 3 3 4 2 3 3 3 1 3 3 3 2 2 4 5 5 5 15 14 14 13 14 8 7 8 14
15 16 14 10 12 4 5 3 3 1 2 2 3 4 3 3 3 3 3 4 3 6 5 3 3 2 2 1 7 4 2 1 3 3 5 15 11 12 13 11 7 6 4 6
14 16 13 13 11 6 4 3 3 4 2 2 3 2 2 3 3 4 4 3 4 6 4 2 1 1 2 0 2 4 3 2 2 2 4 2 6 8 8 5 7 3 5 3
13 14 13 13 8 6 4 5 2 3 1 2 1 3 5 5 4 4 4 7 4 3 5 4 2 1 2 0 3 1 3 3 2 2 3 4 3 3 4 8 10 7 5 2
14 14 14 12 8 7 9 7 3 2 3 1 5 6 4 5 6 4 3 5 1 5 3 3 3 4 2 1 0 3 2 1 2 3 3 3 1 2 1 2 5 7 6 4
16 14 15 12 7 5 5 8 8 3 4 3 4 1 3 3 2 2 2 1 4 5 1 2 3 1 0 2 4 1 2 2 3 2 3 2 2 2 2 2 3 6 6 7
15 13 16 14 10 8 2 4 7 4 4 2 4 2 1 2 3 3 1 0 4 2 3 3 2 2 0 1 1 1 3 3 2 2 2 3 4 3 1 1 4 2 3 4
16 15 18 15 11 10 4 2 4 3 3 2 4 4 3 4 3 3 2 3 4 3 3 2 1 2 2 3 2 1 3 2 2 1 2 3 2 2 5 5 3 5 4 3
18 19 18 19 15 10 3 2 8 9 7 3 4 6 6 2 1 2 2 3 2 3 2 1 1 1 1 2 2 1 2 4 3 6 4 2 1 3 3 6 6 4 6 4
25 25 22 19 18 13 1 3 7 5 3 3 2 2 1 3 2 1 2 2 1 2 3 3 2 0 3 2 4 2 3 3 2 2 3 4 5 4 4 6 7 7 5 5
26 29 23 21 18 14 5 2 5 1 3 3 4 2 2 2 1 3 3 1 0 1 2 1 1 2 2 3 3 3 5 5 5 3 2 3 4 5 7 7 8 7 5 5
26 28 22 21 16 13 7 4 5 2 3 3 2 4 2 2 1 1 1 2 1 1 1 1 2 1 1 2 1 4 5 7 5 6 9 5 6 8 8 8 7 8 7 5
23 22 18 14 11 10 2 3 1 3 3 3 1 2 2 3 1 2 2 1 1 2 2 2 2 1 2 1 3 6 7 6 6 4 8 3 5 10 7 7 7 6 7 7
21 20 18 13 3 5 0 1 1 1 1 3 2 3 3 2 3 3 2 2 0 2 1 1 2 2 3 2 4 5 8 7 5 8 9 4 5 6 8 8 9 10 9 8
19 15 11 6 4 4 3 5 5 2 1 3 2 2 3 3 1 1 1 1 2 1 2 1 2 1 1 4 8 5 5 8 7 7 3 6 7 8 7 10 9 6 6 5
18 11 4 2 0 2 1 2 3 3 1 2 2 4 3 1 1 1 2 2 1 1 2 2 3 2 5 10 8 9 8 9 10 6 6 9 8 9 9 7 7 6 6 6
15 6 2 2 1 5 6 1 3 3 2 2 2 2 2 3 1 2 1 1 2 1 3 1 3 4 12 9 8 7 10 10 14 9 7 6 7 10 9 8 7 6 6 8
11 3 3 2 2 2 4 2 1 1 1 2 2 3 3 2 3 3 2 2 0 1 3 3 3 4 5 5 12 8 10 11 12 4 6 7 10 12 10 8 9 11 12 8
12 9 5 2 2 3 2 3 3 2 5 4 5 4 3 1 1 2 1 2 2 5 2 2 4 5 5 4 6 8 10 11 11 9 10 11 13 16 13 11 11 13 12 11
11 3 3 2 0 2 7 7 4 2 3 3 2 2 3 1 2 2 2 3 5 1 1 4 6 3 3 5 4 6 7 10 9 8 13 15 15 20 19 14 16 16 14 12
2 3 4 5 4 4 5 5 3 2 2 4 3 2 2 2 2 3 2 3 2 1 3 7 3 5 6 6 5 7 9 10 11 10 12 13 15 14 19 20 20 18 15 13
3 3 5 5 3 1 2 3 3 1 4 3 2 2 2 1 1 3 3 3 5 6 5 4 4 3 4 4 5 7 9 10 10 10 10 13 17 17 17 18 17 15 13 13
2 4 2 1 2 3 1 1 0 1 4 2 3 2 0 4 3 2 8 5 6 4 4 3 1 2 3 6 6 5 5 8 9 13 15 17 18 17 19 18 16 14 13 12
4 3 2 3 2 4 3 4 4 7 4 3 3 5 8 1 1 4 5 5 4 3 3 2 3 4 6 5 6 6 9 9 12 15 17 17 19 19 19 10 15 13 11 9

GFSNW_925_spd_126.txt.gz
Wind_Speed
14 15 15 17 15 10 10 4 4 3 17 4 1 2 3 0 4 2 3 2 3 5 5 3 2 2 1 3 1 2 4 1 3 4 4 3 2 4 4 2 5 2 3 3
14 14 15 15 10 3 7 3 2 5 7 3 3 2 4 3 5 4 4 4 4 2 3 4 2 3 4 5 1 2 1 3 3 6 4 5 6 6 1 3 1 9 3 5
15 16 15 14 6 6 6 4 2 3 3 1 2 2 3 2 3 3 3 3 4 2 4 4 3 2 4 5 2 2 1 4 3 4 4 2 6 12 11 2 3 2 6 7
15 15 14 10 8 5 2 2 2 3 1 3 3 1 2 2 2 3 4 4 4 3 3 3 2 1 4 4 6 2 2 2 3 3 4 8 7 6 8 8 4 4 7 9
13 12 9 7 6 5 4 3 4 2 2 2 3 5 3 2 2 4 3 5 4 6 4 2 3 2 0 2 7 5 4 1 2 5 3 11 7 9 9 7 6 3 5 4
12 10 9 12 4 5 4 2 3 4 3 2 3 2 1 1 3 3 4 2 4 5 1 2 2 3 1 2 2 3 3 2 2 3 3 1 5 6 6 3 6 4 5 3
9 8 10 7 7 11 5 3 3 4 1 2 0 1 3 3 2 4 3 4 3 1 5 4 2 2 2 1 3 1 3 2 1 3 3 3 4 2 1 5 5 6 3 3
5 7 7 5 7 12 14 8 2 3 2 1 4 4 4 2 6 3 2 3 1 2 2 3 2 3 3 2 3 2 1 2 1 2 1 3 2 1 1 3 3 4 4 6
2 6 4 2 1 6 9 15 7 4 5 1 1 1 1 1 1 4 2 2 2 3 2 2 2 1 2 2 4 3 2 3 3 1 2 0 2 1 3 2 3 2 2 5
5 5 6 3 4 3 8 8 11 4 3 2 1 2 2 2 2 1 3 4 4 2 2 2 2 1 2 1 2 1 2 2 2 0 1 5 3 2 1 3 5 1 2 4
7 7 6 4 2 3 7 6 9 3 3 2 2 2 1 1 1 3 3 3 3 3 3 2 2 2 2 1 3 2 2 2 2 1 1 5 6 4 6 4 2 5 3 3
9 9 5 6 2 4 9 3 6 7 7 2 2 2 2 1 2 2 1 2 2 3 3 0 1 1 1 2 2 1 2 5 3 6 4 3 3 4 3 6 6 5 5 4
12 12 10 7 5 5 9 6 5 4 3 2 3 1 2 3 3 2 2 2 1 1 2 3 1 2 3 2 4 2 3 3 3 1 3 5 4 1 2 3 5 5 5 7
18 17 15 10 7 7 7 9 7 3 3 2 4 2 3 3 5 4 4 2 1 3 2 2 2 2 2 3 2 3 5 5 5 4 3 1 6 5 6 5 5 4 3 4
21 22 20 15 10 8 6 9 4 3 1 2 3 6 2 4 4 4 3 3 1 1 1 1 3 1 2 1 1 4 6 7 5 6 9 6 8 10 7 8 7 7 6 4
20 24 20 16 13 8 1 3 1 1 1 3 2 3 3 3 4 4 4 3 1 1 2 3 2 2 2 2 3 6 7 7 7 4 7 5 2 13 7 8 9 7 7 5
21 19 16 12 10 9 2 3 1 2 2 3 3 3 2 1 1 3 2 3 1 1 1 2 2 2 4 2 4 6 9 9 7 5 8 2 5 7 9 8 10 12 10 10
21 19 15 9 7 4 1 2 2 2 2 3 1 3 3 1 1 0 1 1 2 1 2 1 2 0 1 5 9 6 4 8 7 10 5 6 7 8 7 8 10 7 7 6
17 12 9 5 3 3 2 4 4 3 2 2 2 3 3 1 1 1 1 2 1 1 2 3 3 3 6 11 9 8 11 10 10 7 7 9 12 13 11 10 8 8 7 6
9 2 2 2 1 3 3 2 2 3 2 2 3 1 2 3 1 1 1 1 1 1 3 1 3 5 13 11 8 7 11 10 15 9 7 6 6 13 14 15 12 10 9 9
7 1 2 2 1 0 3 1 2 0 2 3 1 3 2 2 2 3 2 2 1 1 3 2 3 4 5 5 11 10 9 10 15 2 7 8 11 15 14 8 9 13 15 14
11 5 2 1 2 3 2 2 3 2 4 2 4 3 3 2 1 2 1 1 2 5 1 2 4 5 6 5 4 7 9 12 10 8 10 10 11 15 12 11 13 17 20 19
11 2 1 2 1 2 6 5 4 2 3 4 3 1 3 1 1 2 2 1 4 1 2 4 6 4 6 6 4 4 6 8 11 8 11 15 14 20 18 14 19 22 21 19
3 5 5 5 4 5 5 5 4 3 3 4 3 2 2 1 2 2 3 3 2 3 3 6 3 5 8 6 4 1 4 7 9 10 9 9 13 14 19 21 24 23 19 20
4 4 5 6 3 1 2 2 1 2 3 3 3 2 2 1 2 3 2 3 4 6 5 3 3 6 5 5 4 4 3 5 5 5 6 9 14 15 15 22 24 23 20 19
1 4 3 2 0 2 2 2 2 3 4 2 2 3 3 4 3 2 7 5 6 4 3 3 3 5 4 5 5 3 4 3 4 9 10 13 15 16 18 21 23 22 21 21
4 3 3 4 2 4 3 4 4 8 3 3 3 4 10 2 1 3 5 6 4 4 4 2 3 5 6 5 5 5 5 5 8 9 11 13 16 18 19 9 21 20 19 17